| time (UTC) | temp F | wind direction | speed knots | gust knots | rain 1hr in | rain 24hr in | rain mn in | humidity % | barometer mb |
| 20260904211148 | 76 | 217 | 1.7 | 5.2 | 0.00 | 0.03 | 0.03 | 49 | 1012.7 |
| 20260904211040 | 76 | 230 | 1.7 | 5.2 | 0.00 | 0.03 | 0.03 | 49 | 1012.7 |
| 20260904210945 | 76 | 286 | 2.6 | 6.1 | 0.00 | 0.03 | 0.03 | 50 | 1012.8 |
| 20260904210939 | 76 | 287 | 2.6 | 6.1 | 0.00 | 0.03 | 0.03 | 50 | 1012.8 |
| 20260904210840 | 76 | 308 | 2.6 | 6.1 | 0.00 | 0.03 | 0.03 | 50 | 1012.8 |
| 20260904210741 | 76 | 195 | 2.6 | 6.1 | 0.00 | 0.03 | 0.03 | 50 | 1012.8 |
| 20260904210708 | 75 | 146 | 3.5 | 6.1 | 0.00 | 0.03 | 0.03 | 51 | 1012.9 |
| 20260904210639 | 76 | 242 | 2.6 | 6.1 | 0.00 | 0.03 | 0.03 | 50 | 1012.8 |
| 20260904210533 | 75 | 250 | 3.5 | 6.1 | 0.00 | 0.03 | 0.03 | 51 | 1012.9 |
| 20260904210434 | 75 | 114 | 3.5 | 7.0 | 0.00 | 0.03 | 0.03 | 51 | 1012.9 |
| 20260904210335 | 75 | 153 | 3.5 | 7.0 | 0.00 | 0.03 | 0.03 | 50 | 1012.9 |
| 20260904210234 | 75 | 231 | 3.5 | 7.0 | 0.00 | 0.03 | 0.03 | 50 | 1012.9 |
| 20260904210132 | 75 | 232 | 2.6 | 7.0 | 0.00 | 0.03 | 0.03 | 49 | 1012.9 |
| 20260904210026 | 76 | 248 | 2.6 | 7.0 | 0.00 | 0.03 | 0.03 | 49 | 1012.9 |
| 20260904205944 | 76 | 221 | 2.6 | 7.0 | 0.00 | 0.03 | 0.03 | 49 | 1012.9 |
| 20260904205925 | 76 | 242 | 2.6 | 7.0 | 0.00 | 0.03 | 0.03 | 49 | 1012.9 |
| 20260904205826 | 76 | 253 | 2.6 | 7.0 | 0.00 | 0.03 | 0.03 | 48 | 1012.9 |
| 20260904205727 | 76 | 214 | 2.6 | 7.8 | 0.00 | 0.03 | 0.03 | 48 | 1012.8 |
| 20260904205658 | 77 | 259 | 1.7 | 7.8 | 0.00 | 0.03 | 0.03 | 47 | 1012.8 |
| 20260904205623 | 76 | 172 | 2.6 | 7.8 | 0.00 | 0.03 | 0.03 | 48 | 1012.8 |
| 20260904205549 | 77 | 234 | 2.6 | 7.8 | 0.00 | 0.03 | 0.03 | 47 | 1012.8 |
| 20260904205418 | 77 | 236 | 1.7 | 7.8 | 0.00 | 0.03 | 0.03 | 48 | 1012.8 |
| 20260904205317 | 77 | 139 | 1.7 | 7.8 | 0.00 | 0.03 | 0.03 | 47 | 1012.8 |
| 20260904205217 | 77 | 232 | 1.7 | 7.8 | 0.00 | 0.03 | 0.03 | 47 | 1012.8 |
| 20260904205117 | 78 | 238 | 1.7 | 7.8 | 0.00 | 0.03 | 0.03 | 46 | 1012.9 |
| 20260904204932 | 78 | 239 | 1.7 | 7.8 | 0.00 | 0.03 | 0.03 | 45 | 1012.9 |
| 20260904204914 | 79 | 195 | 1.7 | 7.8 | 0.00 | 0.03 | 0.03 | 45 | 1012.9 |
| 20260904204814 | 79 | 214 | 1.7 | 7.0 | 0.00 | 0.03 | 0.03 | 45 | 1012.8 |
| 20260904204714 | 79 | 235 | 1.7 | 5.2 | 0.00 | 0.03 | 0.03 | 46 | 1012.8 |
| 20260904204652 | 78 | 121 | 1.7 | 8.7 | 0.00 | 0.03 | 0.03 | 47 | 1012.8 |
| 20260904204612 | 79 | 226 | 1.7 | 5.2 | 0.00 | 0.03 | 0.03 | 46 | 1012.8 |
| 20260904204539 | 78 | 240 | 1.7 | 8.7 | 0.00 | 0.03 | 0.03 | 47 | 1012.8 |
| 20260904204405 | 78 | 138 | 1.7 | 8.7 | 0.00 | 0.03 | 0.03 | 47 | 1012.8 |
| 20260904204305 | 78 | 135 | 2.6 | 8.7 | 0.00 | 0.03 | 0.03 | 47 | 1012.8 |
| 20260904204206 | 77 | 20 | 2.6 | 8.7 | 0.00 | 0.03 | 0.03 | 47 | 1012.9 |
| 20260904204141 | 77 | 129 | 2.6 | 8.7 | 0.00 | 0.03 | 0.03 | 48 | 1012.9 |
| 20260904204105 | 77 | 175 | 2.6 | 8.7 | 0.00 | 0.03 | 0.03 | 48 | 1012.9 |
| 20260904203904 | 77 | 239 | 2.6 | 8.7 | 0.00 | 0.03 | 0.03 | 49 | 1012.9 |
| 20260904203800 | 76 | 143 | 2.6 | 8.7 | 0.00 | 0.03 | 0.03 | 49 | 1012.9 |
| 20260904203700 | 76 | 146 | 1.7 | 8.7 | 0.00 | 0.03 | 0.03 | 49 | 1012.9 |
| 20260904203559 | 76 | 143 | 1.7 | 8.7 | 0.00 | 0.03 | 0.03 | 49 | 1012.9 |
| 20260904203454 | 76 | 153 | 1.7 | 6.1 | 0.00 | 0.03 | 0.03 | 49 | 1012.9 |
| 20260904203414 | 76 | 108 | 1.7 | 6.1 | 0.00 | 0.03 | 0.03 | 49 | 1013.0 |
| 20260904203353 | 76 | 49 | 1.7 | 6.1 | 0.00 | 0.03 | 0.03 | 50 | 1013.0 |
| 20260904203255 | 76 | 238 | 1.7 | 6.1 | 0.00 | 0.03 | 0.03 | 50 | 1012.9 |
| 20260904203154 | 76 | 186 | 1.7 | 6.1 | 0.00 | 0.03 | 0.03 | 50 | 1012.9 |
| 20260904203134 | 76 | 43 | 1.7 | 5.2 | 0.00 | 0.03 | 0.03 | 50 | 1012.9 |
| 20260904203052 | 76 | 183 | 0.9 | 6.1 | 0.00 | 0.03 | 0.03 | 50 | 1012.9 |
| 20260904203019 | 76 | 206 | 1.7 | 5.2 | 0.00 | 0.03 | 0.03 | 50 | 1012.9 |
| 20260904202848 | 76 | 43 | 1.7 | 5.2 | 0.00 | 0.03 | 0.03 | 50 | 1012.9 |
| 20260904202747 | 76 | 146 | 1.7 | 5.2 | 0.00 | 0.03 | 0.03 | 51 | 1012.9 |
| 20260904202649 | 75 | 147 | 1.7 | 5.2 | 0.00 | 0.03 | 0.03 | 51 | 1012.9 |
| 20260904202548 | 75 | 146 | 1.7 | 5.2 | 0.00 | 0.03 | 0.03 | 50 | 1012.9 |
| 20260904202444 | 75 | 146 | 1.7 | 5.2 | 0.00 | 0.03 | 0.03 | 50 | 1012.9 |
| 20260904202403 | 75 | 146 | 1.7 | 5.2 | 0.00 | 0.03 | 0.03 | 50 | 1013.0 |
| 20260904202342 | 75 | 146 | 1.7 | 5.2 | 0.00 | 0.03 | 0.03 | 51 | 1013.0 |
| 20260904202242 | 75 | 148 | 1.7 | 5.2 | 0.00 | 0.03 | 0.03 | 51 | 1012.9 |
| 20260904202143 | 75 | 204 | 1.7 | 5.2 | 0.00 | 0.03 | 0.03 | 51 | 1012.9 |
| 20260904202041 | 75 | 252 | 1.7 | 5.2 | 0.00 | 0.03 | 0.03 | 51 | 1013.0 |
| 20260904201940 | 75 | 174 | 0.9 | 5.2 | 0.00 | 0.03 | 0.03 | 51 | 1012.9 |
| 20260904201905 | 75 | 215 | 0.9 | 4.3 | 0.00 | 0.03 | 0.03 | 51 | 1013.0 |
| 20260904201840 | 75 | 226 | 0.9 | 4.3 | 0.00 | 0.03 | 0.03 | 52 | 1013.0 |
| 20260904201740 | 75 | 284 | 1.7 | 4.3 | 0.00 | 0.03 | 0.03 | 52 | 1012.9 |
| 20260904201638 | 75 | 284 | 1.7 | 4.3 | 0.00 | 0.03 | 0.03 | 53 | 1013.0 |
| 20260904201536 | 75 | 285 | 1.7 | 5.2 | 0.00 | 0.03 | 0.03 | 53 | 1013.0 |
| 20260904201432 | 74 | 145 | 1.7 | 5.2 | 0.00 | 0.03 | 0.03 | 52 | 1013.0 |
| 20260904201354 | 74 | 148 | 1.7 | 5.2 | 0.00 | 0.03 | 0.03 | 52 | 1013.0 |
| 20260904201330 | 74 | 139 | 1.7 | 5.2 | 0.00 | 0.03 | 0.03 | 52 | 1013.0 |
| 20260904201230 | 74 | 148 | 1.7 | 5.2 | 0.00 | 0.03 | 0.03 | 53 | 1013.0 |
| 20260904201129 | 74 | 222 | 1.7 | 5.2 | 0.00 | 0.03 | 0.03 | 54 | 1013.0 |
| 20260904201107 | 75 | 243 | 1.7 | 5.2 | 0.00 | 0.03 | 0.03 | 53 | 1013.0 |
| 20260904201029 | 74 | 235 | 1.7 | 5.2 | 0.00 | 0.03 | 0.03 | 54 | 1013.0 |
| 20260904200958 | 74 | 226 | 1.7 | 5.2 | 0.00 | 0.03 | 0.03 | 53 | 1013.0 |
| 20260904200824 | 75 | 236 | 1.7 | 5.2 | 0.00 | 0.03 | 0.03 | 52 | 1013.0 |
| 20260904200724 | 75 | 228 | 1.7 | 5.2 | 0.00 | 0.03 | 0.03 | 52 | 1012.9 |
| 20260904200624 | 75 | 143 | 1.7 | 5.2 | 0.00 | 0.03 | 0.03 | 53 | 1013.0 |
| 20260904200523 | 75 | 248 | 0.9 | 5.2 | 0.00 | 0.03 | 0.03 | 53 | 1013.0 |
| 20260904200421 | 75 | 211 | 0.9 | 5.2 | 0.00 | 0.03 | 0.03 | 53 | 1013.0 |
| 20260904200338 | 75 | 255 | 0.9 | 5.2 | 0.00 | 0.03 | 0.03 | 53 | 1013.0 |
| 20260904200322 | 75 | 239 | 0.9 | 5.2 | 0.00 | 0.03 | 0.03 | 53 | 1013.0 |
| 20260904200222 | 75 | 232 | 0.9 | 5.2 | 0.00 | 0.03 | 0.03 | 54 | 1013.0 |
| 20260904200120 | 75 | 219 | 0.9 | 2.6 | 0.00 | 0.03 | 0.03 | 53 | 1013.0 |
| 20260904200018 | 75 | 215 | 0.9 | 2.6 | 0.00 | 0.03 | 0.03 | 53 | 1013.0 |
| 20260904195912 | 75 | 185 | 0.9 | 2.6 | 0.00 | 0.03 | 0.03 | 53 | 1013.0 |
| 20260904195833 | 75 | 280 | 0.9 | 2.6 | 0.00 | 0.03 | 0.03 | 54 | 1013.0 |
| 20260904195812 | 75 | 311 | 0.9 | 2.6 | 0.00 | 0.03 | 0.03 | 55 | 1013.0 |
| 20260904195712 | 74 | 332 | 0.9 | 2.6 | 0.00 | 0.03 | 0.03 | 55 | 1013.1 |
| 20260904195612 | 74 | 334 | 0.9 | 2.6 | 0.00 | 0.03 | 0.03 | 55 | 1013.1 |
| 20260904195511 | 75 | 335 | 0.9 | 2.6 | 0.00 | 0.03 | 0.03 | 54 | 1013.1 |
| 20260904195407 | 75 | 330 | 0.9 | 2.6 | 0.00 | 0.03 | 0.03 | 53 | 1013.0 |
| 20260904195326 | 75 | 330 | 0.9 | 2.6 | 0.00 | 0.03 | 0.03 | 54 | 1013.0 |
| 20260904195306 | 75 | 326 | 0.9 | 2.6 | 0.00 | 0.03 | 0.03 | 55 | 1013.1 |
| 20260904195206 | 75 | 328 | 0.9 | 2.6 | 0.00 | 0.03 | 0.03 | 55 | 1013.1 |
| 20260904195106 | 75 | 330 | 0.9 | 2.6 | 0.00 | 0.03 | 0.03 | 54 | 1013.1 |
| 20260904195005 | 75 | 321 | 0.9 | 2.6 | 0.00 | 0.03 | 0.03 | 54 | 1013.1 |
| 20260904194905 | 75 | 321 | 0.9 | 3.5 | 0.00 | 0.03 | 0.03 | 53 | 1013.1 |
| 20260904194833 | 75 | 321 | 0.9 | 4.3 | 0.00 | 0.03 | 0.03 | 53 | 1013.1 |
| 20260904194803 | 75 | 321 | 0.9 | 5.2 | 0.00 | 0.03 | 0.03 | 53 | 1013.1 |
| 20260904194704 | 75 | 321 | 0.9 | 5.2 | 0.00 | 0.03 | 0.03 | 52 | 1013.2 |
| 20260904194601 | 75 | 321 | 1.7 | 5.2 | 0.00 | 0.03 | 0.03 | 52 | 1013.1 |
| 20260904194459 | 75 | 321 | 1.7 | 5.2 | 0.00 | 0.03 | 0.03 | 52 | 1013.2 |
| 20260904194400 | 76 | 321 | 1.7 | 5.2 | 0.00 | 0.03 | 0.03 | 52 | 1013.2 |
| 20260904194314 | 76 | 321 | 1.7 | 5.2 | 0.00 | 0.03 | 0.03 | 52 | 1013.2 |
| 20260904194258 | 76 | 321 | 1.7 | 5.2 | 0.00 | 0.03 | 0.03 | 52 | 1013.2 |
| 20260904194158 | 75 | 228 | 1.7 | 5.2 | 0.00 | 0.03 | 0.03 | 53 | 1013.2 |
| 20260904194056 | 75 | 228 | 1.7 | 5.2 | 0.00 | 0.03 | 0.03 | 52 | 1013.3 |
| 20260904193953 | 75 | 228 | 1.7 | 5.2 | 0.00 | 0.03 | 0.03 | 53 | 1013.3 |
| 20260904193851 | 75 | 172 | 1.7 | 5.2 | 0.00 | 0.03 | 0.03 | 52 | 1013.3 |
| 20260904193811 | 75 | 193 | 0.9 | 4.3 | 0.00 | 0.03 | 0.03 | 52 | 1013.2 |
| 20260904193752 | 75 | 208 | 0.9 | 4.3 | 0.00 | 0.03 | 0.03 | 52 | 1013.2 |
| 20260904193653 | 76 | 219 | 0.9 | 6.1 | 0.00 | 0.03 | 0.03 | 52 | 1013.2 |
| 20260904193550 | 76 | 229 | 0.9 | 6.1 | 0.00 | 0.03 | 0.03 | 51 | 1013.3 |
| 20260904193447 | 76 | 221 | 0.9 | 6.1 | 0.00 | 0.03 | 0.03 | 54 | 1013.3 |
| 20260904193342 | 76 | 287 | 0.9 | 6.1 | 0.00 | 0.03 | 0.03 | 53 | 1013.3 |
| 20260904193303 | 76 | 287 | 0.9 | 6.1 | 0.00 | 0.03 | 0.03 | 54 | 1013.3 |
| 20260904193242 | 76 | 300 | 0.9 | 6.1 | 0.00 | 0.03 | 0.03 | 54 | 1013.3 |
| 20260904193145 | 76 | 298 | 0.9 | 6.1 | 0.00 | 0.03 | 0.03 | 53 | 1013.3 |
| 20260904193041 | 76 | 284 | 0.9 | 6.1 | 0.00 | 0.03 | 0.03 | 54 | 1013.3 |
| 20260904192941 | 76 | 284 | 0.9 | 6.1 | 0.00 | 0.03 | 0.03 | 53 | 1013.3 |
| 20260904192842 | 76 | 283 | 0.9 | 6.1 | 0.00 | 0.03 | 0.03 | 52 | 1013.3 |
| 20260904192757 | 76 | 283 | 0.9 | 6.1 | 0.00 | 0.03 | 0.03 | 52 | 1013.3 |
| 20260904192740 | 76 | 281 | 0.9 | 6.1 | 0.00 | 0.03 | 0.03 | 52 | 1013.3 |
| 20260904192637 | 76 | 212 | 0.9 | 4.3 | 0.00 | 0.03 | 0.03 | 51 | 1013.3 |
| 20260904192538 | 76 | 314 | 0.9 | 3.5 | 0.00 | 0.03 | 0.03 | 53 | 1013.3 |
| 20260904192435 | 76 | 29 | 0.9 | 3.5 | 0.00 | 0.03 | 0.03 | 52 | 1013.3 |
| 20260904192336 | 76 | 148 | 0.9 | 3.5 | 0.00 | 0.03 | 0.03 | 51 | 1013.3 |
| 20260904192252 | 76 | 212 | 0.9 | 3.5 | 0.00 | 0.03 | 0.03 | 53 | 1013.3 |
| 20260904192234 | 76 | 225 | 0.9 | 3.5 | 0.00 | 0.03 | 0.03 | 53 | 1013.3 |
| 20260904192132 | 75 | 229 | 0.9 | 5.2 | 0.00 | 0.03 | 0.03 | 52 | 1013.3 |
| 20260904192031 | 76 | 243 | 0.9 | 5.2 | 0.00 | 0.03 | 0.03 | 53 | 1013.3 |
| 20260904191930 | 76 | 219 | 0.9 | 5.2 | 0.00 | 0.03 | 0.03 | 53 | 1013.4 |
| 20260904191828 | 76 | 211 | 0.9 | 5.2 | 0.00 | 0.03 | 0.03 | 54 | 1013.4 |
| 20260904191728 | 75 | 211 | 1.7 | 5.2 | 0.00 | 0.03 | 0.03 | 55 | 1013.4 |
| 20260904191628 | 75 | 201 | 1.7 | 5.2 | 0.00 | 0.03 | 0.03 | 55 | 1013.4 |
| 20260904191526 | 75 | 148 | 1.7 | 5.2 | 0.00 | 0.03 | 0.03 | 55 | 1013.4 |
| 20260904191423 | 75 | 148 | 1.7 | 5.2 | 0.00 | 0.03 | 0.03 | 54 | 1013.4 |
| 20260904191317 | 75 | 205 | 1.7 | 5.2 | 0.00 | 0.03 | 0.03 | 54 | 1013.4 |
| 20260904191239 | 75 | 237 | 1.7 | 5.2 | 0.00 | 0.03 | 0.03 | 54 | 1013.4 |
| 20260904191218 | 75 | 238 | 1.7 | 5.2 | 0.00 | 0.03 | 0.03 | 54 | 1013.4 |
| 20260904191117 | 74 | 232 | 1.7 | 6.1 | 0.00 | 0.03 | 0.03 | 57 | 1013.4 |
| 20260904191018 | 74 | 257 | 1.7 | 6.1 | 0.00 | 0.03 | 0.03 | 57 | 1013.4 |
| 20260904190918 | 74 | 225 | 1.7 | 6.1 | 0.00 | 0.03 | 0.03 | 57 | 1013.4 |
| 20260904190812 | 74 | 210 | 1.7 | 6.1 | 0.00 | 0.03 | 0.03 | 56 | 1013.4 |
| 20260904190732 | 74 | 232 | 0.9 | 6.1 | 0.00 | 0.03 | 0.03 | 58 | 1013.4 |
| 20260904190713 | 74 | 311 | 0.9 | 6.1 | 0.00 | 0.03 | 0.03 | 58 | 1013.4 |
| 20260904190612 | 74 | 311 | 0.9 | 6.1 | 0.00 | 0.03 | 0.03 | 58 | 1013.4 |
| 20260904190511 | 74 | 222 | 0.9 | 6.1 | 0.00 | 0.03 | 0.03 | 59 | 1013.4 |
| 20260904190448 | 74 | 325 | 1.7 | 6.1 | 0.00 | 0.03 | 0.03 | 56 | 1013.4 |
| 20260904190411 | 74 | 342 | 1.7 | 6.1 | 0.00 | 0.03 | 0.03 | 57 | 1013.4 |
| 20260904190305 | 74 | 12 | 1.7 | 6.1 | 0.00 | 0.03 | 0.03 | 56 | 1013.4 |
| 20260904190206 | 75 | 314 | 0.9 | 6.1 | 0.00 | 0.03 | 0.03 | 56 | 1013.4 |
| 20260904190105 | 74 | 266 | 1.7 | 4.3 | 0.00 | 0.03 | 0.03 | 59 | 1013.5 |
| 20260904190006 | 74 | 154 | 1.7 | 4.3 | 0.00 | 0.03 | 0.03 | 60 | 1013.4 |
| 20260904185905 | 74 | 221 | 1.7 | 4.3 | 0.00 | 0.03 | 0.03 | 61 | 1013.4 |
| 20260904185800 | 73 | 239 | 1.7 | 4.3 | 0.00 | 0.03 | 0.03 | 60 | 1013.4 |
| 20260904185721 | 73 | 307 | 1.7 | 4.3 | 0.00 | 0.03 | 0.03 | 60 | 1013.4 |
| 20260904185701 | 73 | 307 | 2.6 | 7.0 | 0.00 | 0.03 | 0.03 | 60 | 1013.4 |
| 20260904185600 | 73 | 321 | 2.6 | 7.0 | 0.00 | 0.03 | 0.03 | 59 | 1013.5 |
| 20260904185500 | 73 | 52 | 2.6 | 7.0 | 0.00 | 0.03 | 0.03 | 58 | 1013.5 |
| 20260904185359 | 73 | 74 | 2.6 | 7.0 | 0.00 | 0.03 | 0.03 | 58 | 1013.5 |
| 20260904185257 | 73 | 72 | 2.6 | 7.0 | 0.00 | 0.03 | 0.03 | 58 | 1013.5 |
| 20260904185214 | 73 | 138 | 2.6 | 7.0 | 0.00 | 0.03 | 0.03 | 59 | 1013.5 |
| 20260904185159 | 73 | 158 | 2.6 | 7.0 | 0.00 | 0.03 | 0.03 | 59 | 1013.5 |
| 20260904185057 | 73 | 239 | 1.7 | 7.0 | 0.00 | 0.03 | 0.03 | 58 | 1013.5 |
| 20260904184955 | 74 | 136 | 1.7 | 7.0 | 0.00 | 0.03 | 0.03 | 58 | 1013.6 |
| 20260904184857 | 74 | 212 | 1.7 | 7.0 | 0.00 | 0.03 | 0.03 | 58 | 1013.6 |
| 20260904184747 | 74 | 217 | 1.7 | 7.0 | 0.00 | 0.03 | 0.03 | 58 | 1013.5 |
| 20260904184709 | 74 | 204 | 1.7 | 6.1 | 0.00 | 0.03 | 0.03 | 58 | 1013.5 |
| 20260904184648 | 74 | 208 | 1.7 | 6.1 | 0.00 | 0.03 | 0.03 | 58 | 1013.5 |
| 20260904184548 | 74 | 153 | 0.9 | 5.2 | 0.00 | 0.03 | 0.03 | 58 | 1013.6 |
| 20260904184448 | 74 | 131 | 0.9 | 5.2 | 0.00 | 0.03 | 0.03 | 58 | 1013.5 |
| 20260904184347 | 73 | 195 | 0.9 | 5.2 | 0.00 | 0.03 | 0.03 | 59 | 1013.6 |
| 20260904184248 | 73 | 149 | 1.7 | 5.2 | 0.00 | 0.03 | 0.03 | 58 | 1013.6 |
| 20260904184202 | 73 | 149 | 1.7 | 5.2 | 0.00 | 0.03 | 0.03 | 58 | 1013.6 |
| 20260904184147 | 73 | 149 | 1.7 | 5.2 | 0.00 | 0.03 | 0.03 | 58 | 1013.6 |
| 20260904184046 | 73 | 193 | 1.7 | 5.2 | 0.00 | 0.03 | 0.03 | 59 | 1013.6 |
| 20260904183943 | 73 | 193 | 1.7 | 5.2 | 0.00 | 0.03 | 0.03 | 59 | 1013.6 |
| 20260904183918 | 72 | 146 | 0.9 | 5.2 | 0.00 | 0.03 | 0.03 | 63 | 1013.6 |
| 20260904183842 | 72 | 146 | 0.9 | 5.2 | 0.00 | 0.03 | 0.03 | 62 | 1013.6 |
| 20260904183808 | 72 | 148 | 0.9 | 5.2 | 0.00 | 0.03 | 0.03 | 63 | 1013.6 |
| 20260904183635 | 71 | 146 | 0.9 | 5.2 | 0.00 | 0.03 | 0.03 | 63 | 1013.6 |
| 20260904183536 | 71 | 165 | 0.9 | 5.2 | 0.00 | 0.03 | 0.03 | 63 | 1013.7 |
| 20260904183436 | 71 | 228 | 0.9 | 5.2 | 0.00 | 0.03 | 0.03 | 62 | 1013.6 |
| 20260904183335 | 71 | 203 | 0.0 | 2.6 | 0.00 | 0.03 | 0.03 | 63 | 1013.6 |
| 20260904183229 | 71 | 163 | 0.0 | 1.7 | 0.00 | 0.03 | 0.03 | 62 | 1013.7 |
| 20260904183151 | 71 | 165 | 0.9 | 3.5 | 0.00 | 0.03 | 0.03 | 62 | 1013.7 |
| 20260904183129 | 71 | 253 | 0.9 | 3.5 | 0.00 | 0.03 | 0.03 | 62 | 1013.7 |
| 20260904183029 | 71 | 253 | 0.9 | 4.3 | 0.00 | 0.03 | 0.03 | 63 | 1013.7 |
| 20260904182930 | 71 | 243 | 0.9 | 5.2 | 0.00 | 0.03 | 0.03 | 64 | 1013.7 |
| 20260904182829 | 71 | 242 | 0.9 | 5.2 | 0.00 | 0.03 | 0.03 | 64 | 1013.7 |
| 20260904182728 | 71 | 242 | 0.9 | 5.2 | 0.00 | 0.03 | 0.03 | 64 | 1013.7 |
| 20260904182648 | 71 | 241 | 0.9 | 5.2 | 0.00 | 0.03 | 0.03 | 64 | 1013.6 |
| 20260904182633 | 72 | 176 | 0.9 | 5.2 | 0.00 | 0.03 | 0.03 | 62 | 1013.7 |
| 20260904182627 | 71 | 242 | 0.9 | 5.2 | 0.00 | 0.03 | 0.03 | 64 | 1013.6 |
| 20260904182528 | 71 | 240 | 0.9 | 5.2 | 0.00 | 0.03 | 0.03 | 63 | 1013.6 |
| 20260904182517 | 71 | 242 | 0.9 | 5.2 | 0.00 | 0.03 | 0.03 | 63 | 1013.7 |
| 20260904182323 | 71 | 173 | 0.9 | 5.2 | 0.00 | 0.03 | 0.03 | 64 | 1013.6 |
| 20260904182220 | 72 | 194 | 0.9 | 5.2 | 0.00 | 0.03 | 0.03 | 62 | 1013.6 |
| 20260904182120 | 72 | 231 | 0.9 | 5.2 | 0.00 | 0.03 | 0.03 | 62 | 1013.7 |
| 20260904182019 | 72 | 243 | 0.0 | 5.2 | 0.00 | 0.03 | 0.03 | 64 | 1013.6 |
| 20260904181920 | 72 | 233 | 0.0 | 1.7 | 0.00 | 0.03 | 0.03 | 64 | 1013.6 |
| 20260904181817 | 72 | 233 | 0.0 | 1.7 | 0.00 | 0.03 | 0.03 | 64 | 1013.6 |
| 20260904181712 | 72 | 232 | 0.9 | 2.6 | 0.00 | 0.03 | 0.03 | 63 | 1013.6 |
| 20260904181647 | 72 | 233 | 0.9 | 2.6 | 0.00 | 0.03 | 0.03 | 63 | 1013.6 |
| 20260904181611 | 72 | 232 | 0.9 | 2.6 | 0.00 | 0.03 | 0.03 | 63 | 1013.6 |
| 20260904181512 | 72 | 233 | 0.9 | 2.6 | 0.00 | 0.03 | 0.03 | 64 | 1013.6 |
| 20260904181411 | 72 | 232 | 0.9 | 2.6 | 0.00 | 0.03 | 0.03 | 64 | 1013.6 |
| 20260904181311 | 72 | 232 | 0.9 | 2.6 | 0.00 | 0.03 | 0.03 | 64 | 1013.6 |
| 20260904181210 | 72 | 233 | 1.7 | 2.6 | 0.00 | 0.03 | 0.03 | 64 | 1013.7 |
| 20260904181154 | 72 | 113 | 1.7 | 5.2 | 0.00 | 0.03 | 0.03 | 63 | 1013.6 |
| 20260904181148 | 72 | 232 | 1.7 | 2.6 | 0.00 | 0.03 | 0.03 | 64 | 1013.7 |
| 20260904181110 | 72 | 119 | 1.7 | 2.6 | 0.00 | 0.03 | 0.03 | 62 | 1013.6 |
| 20260904181026 | 72 | 118 | 1.7 | 3.5 | 0.00 | 0.03 | 0.03 | 62 | 1013.6 |
| 20260904180908 | 72 | 105 | 1.7 | 5.2 | 0.00 | 0.03 | 0.03 | 62 | 1013.7 |
| 20260904180805 | 72 | 130 | 1.7 | 5.2 | 0.00 | 0.03 | 0.03 | 61 | 1013.7 |
| 20260904180757 | 72 | 131 | 1.7 | 5.2 | 0.00 | 0.03 | 0.03 | 63 | 1013.6 |
| 20260904180602 | 72 | 201 | 1.7 | 5.2 | 0.00 | 0.03 | 0.03 | 63 | 1013.6 |
| 20260904180501 | 72 | 124 | 1.7 | 5.2 | 0.00 | 0.03 | 0.03 | 63 | 1013.6 |
| 20260904180402 | 72 | 103 | 1.7 | 5.2 | 0.00 | 0.03 | 0.03 | 63 | 1013.7 |
| 20260904180300 | 72 | 103 | 1.7 | 5.2 | 0.00 | 0.03 | 0.03 | 63 | 1013.7 |
| 20260904180145 | 71 | 142 | 1.7 | 5.2 | 0.00 | 0.03 | 0.03 | 65 | 1013.7 |
| 20260904180058 | 71 | 121 | 0.9 | 5.2 | 0.00 | 0.03 | 0.03 | 65 | 1013.7 |
| 20260904175957 | 71 | 145 | 0.9 | 5.2 | 0.00 | 0.03 | 0.03 | 66 | 1013.7 |
| 20260904175855 | 71 | 113 | 1.7 | 4.3 | 0.00 | 0.03 | 0.03 | 66 | 1013.7 |
| 20260904175753 | 70 | 245 | 1.7 | 5.2 | 0.00 | 0.03 | 0.03 | 65 | 1013.7 |
| 20260904175649 | 70 | 235 | 1.7 | 5.2 | 0.00 | 0.03 | 0.03 | 67 | 1013.7 |
| 20260904175548 | 70 | 155 | 1.7 | 5.2 | 0.00 | 0.03 | 0.03 | 67 | 1013.7 |
| 20260904175447 | 70 | 117 | 1.7 | 5.2 | 0.00 | 0.03 | 0.03 | 68 | 1013.7 |
| 20260904175347 | 69 | 150 | 1.7 | 5.2 | 0.00 | 0.03 | 0.03 | 68 | 1013.7 |
| 20260904175247 | 69 | 134 | 0.9 | 5.2 | 0.00 | 0.03 | 0.03 | 68 | 1013.8 |
| 20260904175150 | 69 | 226 | 0.9 | 5.2 | 0.00 | 0.03 | 0.03 | 68 | 1013.7 |
| 20260904175045 | 69 | 141 | 0.9 | 5.2 | 0.00 | 0.03 | 0.03 | 68 | 1013.8 |
| 20260904174943 | 69 | 142 | 0.9 | 5.2 | 0.00 | 0.03 | 0.03 | 68 | 1013.8 |
| 20260904174844 | 69 | 149 | 0.9 | 5.2 | 0.00 | 0.03 | 0.03 | 68 | 1013.8 |
| 20260904174741 | 69 | 205 | 0.9 | 4.3 | 0.00 | 0.03 | 0.03 | 68 | 1013.8 |
| 20260904174704 | 69 | 225 | 0.9 | 4.3 | 0.00 | 0.03 | 0.03 | 69 | 1013.8 |
| 20260904174644 | 69 | 224 | 0.9 | 4.3 | 0.00 | 0.03 | 0.03 | 69 | 1013.8 |
| 20260904174540 | 69 | 131 | 0.9 | 4.3 | 0.00 | 0.03 | 0.03 | 68 | 1013.8 |
| 20260904174440 | 69 | 131 | 0.9 | 4.3 | 0.00 | 0.03 | 0.03 | 68 | 1013.8 |
| 20260904174338 | 69 | 120 | 0.9 | 4.3 | 0.00 | 0.03 | 0.03 | 68 | 1013.8 |
| 20260904174235 | 69 | 120 | 0.9 | 4.3 | 0.00 | 0.03 | 0.03 | 68 | 1013.7 |
| 20260904174136 | 69 | 88 | 0.9 | 4.3 | 0.00 | 0.03 | 0.03 | 68 | 1013.7 |
| 20260904174034 | 69 | 165 | 0.9 | 4.3 | 0.00 | 0.03 | 0.03 | 68 | 1013.8 |
| 20260904173931 | 69 | 165 | 0.9 | 4.3 | 0.00 | 0.03 | 0.03 | 69 | 1013.8 |
| 20260904173832 | 69 | 158 | 0.9 | 3.5 | 0.00 | 0.03 | 0.03 | 69 | 1013.7 |
| 20260904173729 | 69 | 150 | 0.9 | 3.5 | 0.00 | 0.03 | 0.03 | 70 | 1013.8 |
| 20260904173644 | 68 | 160 | 0.9 | 2.6 | 0.00 | 0.03 | 0.03 | 72 | 1013.8 |
| 20260904173630 | 68 | 143 | 0.9 | 2.6 | 0.00 | 0.03 | 0.03 | 72 | 1013.8 |
| 20260904173528 | 68 | 191 | 0.9 | 2.6 | 0.00 | 0.03 | 0.03 | 73 | 1013.8 |
| 20260904173427 | 67 | 208 | 0.9 | 2.6 | 0.00 | 0.03 | 0.03 | 73 | 1013.8 |
| 20260904173325 | 67 | 208 | 0.9 | 2.6 | 0.00 | 0.03 | 0.03 | 72 | 1013.8 |
| 20260904173223 | 67 | 233 | 1.7 | 2.6 | 0.00 | 0.03 | 0.03 | 73 | 1013.8 |
| 20260904173142 | 67 | 233 | 1.7 | 2.6 | 0.00 | 0.03 | 0.03 | 72 | 1013.8 |
| 20260904173117 | 67 | 231 | 1.7 | 2.6 | 0.00 | 0.03 | 0.03 | 72 | 1013.7 |
| 20260904173018 | 66 | 223 | 1.7 | 3.5 | 0.00 | 0.03 | 0.03 | 74 | 1013.7 |
| 20260904172918 | 66 | 228 | 1.7 | 3.5 | 0.00 | 0.03 | 0.03 | 74 | 1013.7 |
| 20260904172817 | 66 | 232 | 1.7 | 3.5 | 0.00 | 0.03 | 0.03 | 74 | 1013.8 |
| 20260904172716 | 66 | 231 | 1.7 | 3.5 | 0.00 | 0.03 | 0.03 | 73 | 1013.7 |
| 20260904172640 | 66 | 208 | 1.7 | 4.3 | 0.00 | 0.03 | 0.03 | 73 | 1013.7 |
| 20260904172612 | 66 | 228 | 2.6 | 4.3 | 0.00 | 0.03 | 0.03 | 73 | 1013.7 |
| 20260904172511 | 66 | 207 | 2.6 | 4.3 | 0.00 | 0.03 | 0.03 | 73 | 1013.7 |
| 20260904172412 | 66 | 225 | 2.6 | 4.3 | 0.00 | 0.03 | 0.03 | 73 | 1013.7 |
| 20260904172311 | 66 | 221 | 2.6 | 4.3 | 0.00 | 0.03 | 0.03 | 73 | 1013.7 |
| 20260904172211 | 66 | 234 | 2.6 | 4.3 | 0.00 | 0.03 | 0.03 | 73 | 1013.6 |
| 20260904172144 | 66 | 231 | 1.7 | 4.3 | 0.00 | 0.03 | 0.03 | 73 | 1013.6 |
| 20260904172107 | 66 | 229 | 1.7 | 4.3 | 0.00 | 0.03 | 0.03 | 73 | 1013.7 |
| 20260904172006 | 66 | 235 | 1.7 | 4.3 | 0.00 | 0.03 | 0.03 | 73 | 1013.6 |
| 20260904171906 | 67 | 139 | 1.7 | 4.3 | 0.00 | 0.03 | 0.03 | 73 | 1013.6 |
| 20260904171806 | 67 | 212 | 1.7 | 4.3 | 0.00 | 0.03 | 0.03 | 72 | 1013.6 |
| 20260904171705 | 67 | 253 | 1.7 | 4.3 | 0.00 | 0.03 | 0.03 | 72 | 1013.6 |
| 20260904171641 | 67 | 193 | 1.7 | 4.3 | 0.00 | 0.03 | 0.03 | 72 | 1013.6 |
| 20260904171602 | 67 | 236 | 0.9 | 4.3 | 0.00 | 0.03 | 0.03 | 72 | 1013.6 |
| 20260904171501 | 67 | 243 | 0.9 | 4.3 | 0.00 | 0.03 | 0.03 | 73 | 1013.6 |
| 20260904171407 | 68 | 183 | 0.9 | 2.6 | 0.00 | 0.03 | 0.03 | 71 | 1013.6 |
| 20260904171401 | 68 | 226 | 0.9 | 2.6 | 0.00 | 0.03 | 0.03 | 72 | 1013.6 |
| 20260904171301 | 68 | 226 | 0.9 | 2.6 | 0.00 | 0.03 | 0.03 | 72 | 1013.6 |
| 20260904171159 | 68 | 197 | 0.9 | 2.6 | 0.00 | 0.03 | 0.03 | 72 | 1013.6 |
| 20260904171058 | 68 | 226 | 0.9 | 2.6 | 0.00 | 0.03 | 0.03 | 71 | 1013.5 |
| 20260904170957 | 68 | 149 | 0.9 | 2.6 | 0.00 | 0.03 | 0.03 | 72 | 1013.6 |
| 20260904170858 | 68 | 149 | 0.9 | 3.5 | 0.00 | 0.03 | 0.03 | 72 | 1013.6 |
| 20260904170756 | 68 | 149 | 0.9 | 3.5 | 0.00 | 0.03 | 0.03 | 72 | 1013.5 |
| 20260904170656 | 68 | 150 | 0.9 | 3.5 | 0.00 | 0.03 | 0.03 | 72 | 1013.6 |
| 20260904170636 | 68 | 139 | 0.9 | 4.3 | 0.00 | 0.03 | 0.03 | 72 | 1013.6 |
| 20260904170555 | 68 | 122 | 1.7 | 4.3 | 0.00 | 0.03 | 0.03 | 73 | 1013.6 |
| 20260904170457 | 67 | 201 | 1.7 | 5.2 | 0.00 | 0.03 | 0.03 | 73 | 1013.6 |
| 20260904170356 | 67 | 184 | 1.7 | 5.2 | 0.00 | 0.03 | 0.03 | 74 | 1013.6 |
| 20260904170254 | 67 | 115 | 1.7 | 5.2 | 0.00 | 0.03 | 0.03 | 75 | 1013.5 |
| 20260904170133 | 67 | 115 | 1.7 | 5.2 | 0.00 | 0.03 | 0.03 | 73 | 1013.6 |
| 20260904170053 | 67 | 108 | 1.7 | 5.2 | 0.00 | 0.03 | 0.03 | 73 | 1013.6 |
| 20260904165954 | 67 | 115 | 1.7 | 5.2 | 0.00 | 0.03 | 0.03 | 73 | 1013.6 |
| 20260904165853 | 66 | 134 | 1.7 | 5.2 | 0.00 | 0.03 | 0.03 | 74 | 1013.6 |
| 20260904165752 | 66 | 160 | 1.7 | 5.2 | 0.00 | 0.03 | 0.03 | 74 | 1013.6 |
| 20260904165652 | 66 | 111 | 0.9 | 5.2 | 0.00 | 0.03 | 0.03 | 74 | 1013.5 |
| 20260904165631 | 66 | 106 | 0.9 | 5.2 | 0.00 | 0.03 | 0.03 | 74 | 1013.5 |
| 20260904165552 | 67 | 134 | 0.9 | 5.2 | 0.00 | 0.03 | 0.03 | 74 | 1013.6 |
| 20260904165453 | 67 | 139 | 0.9 | 3.5 | 0.00 | 0.03 | 0.03 | 75 | 1013.6 |
| 20260904165356 | 67 | 140 | 0.9 | 3.5 | 0.00 | 0.03 | 0.03 | 75 | 1013.5 |
| 20260904165351 | 67 | 229 | 0.9 | 3.5 | 0.00 | 0.03 | 0.03 | 74 | 1013.5 |
| 20260904165251 | 67 | 232 | 0.9 | 3.5 | 0.00 | 0.03 | 0.03 | 75 | 1013.5 |
| 20260904165242 | 67 | 139 | 0.9 | 3.5 | 0.00 | 0.03 | 0.03 | 75 | 1013.5 |
| 20260904165052 | 67 | 158 | 0.9 | 3.5 | 0.00 | 0.03 | 0.03 | 76 | 1013.5 |
| 20260904164951 | 66 | 158 | 0.9 | 4.3 | 0.00 | 0.03 | 0.03 | 76 | 1013.5 |
| 20260904164850 | 66 | 231 | 0.9 | 4.3 | 0.00 | 0.03 | 0.03 | 75 | 1013.5 |
| 20260904164750 | 66 | 230 | 0.9 | 4.3 | 0.00 | 0.03 | 0.03 | 76 | 1013.4 |
| 20260904164650 | 67 | 230 | 0.9 | 4.3 | 0.00 | 0.03 | 0.03 | 75 | 1013.5 |
| 20260904164625 | 67 | 231 | 0.9 | 4.3 | 0.00 | 0.03 | 0.03 | 75 | 1013.5 |
| 20260904164548 | 67 | 231 | 0.9 | 4.3 | 0.00 | 0.03 | 0.03 | 76 | 1013.4 |
| 20260904164445 | 67 | 231 | 0.9 | 4.3 | 0.00 | 0.03 | 0.03 | 76 | 1013.4 |
| 20260904164342 | 67 | 246 | 0.9 | 4.3 | 0.00 | 0.03 | 0.03 | 77 | 1013.4 |
| 20260904164240 | 66 | 246 | 1.7 | 5.2 | 0.00 | 0.03 | 0.03 | 77 | 1013.4 |
| 20260904164143 | 66 | 146 | 1.7 | 5.2 | 0.00 | 0.03 | 0.03 | 77 | 1013.4 |
| 20260904164119 | 66 | 155 | 1.7 | 5.2 | 0.00 | 0.03 | 0.03 | 77 | 1013.4 |
| 20260904164040 | 66 | 110 | 0.9 | 5.2 | 0.00 | 0.03 | 0.03 | 77 | 1013.4 |
| 20260904163939 | 66 | 155 | 0.9 | 5.2 | 0.00 | 0.03 | 0.03 | 78 | 1013.4 |
| 20260904163833 | 66 | 143 | 0.9 | 5.2 | 0.00 | 0.03 | 0.03 | 78 | 1013.4 |
| 20260904163812 | 64 | 129 | 0.9 | 3.5 | 0.00 | 0.03 | 0.03 | 80 | 1013.4 |
| 20260904163734 | 65 | 129 | 0.9 | 5.2 | 0.00 | 0.03 | 0.03 | 79 | 1013.4 |
| 20260904163707 | 65 | 129 | 1.7 | 5.2 | 0.00 | 0.03 | 0.03 | 79 | 1013.4 |
| 20260904163657 | 65 | 122 | 1.7 | 5.2 | 0.00 | 0.03 | 0.03 | 79 | 1013.4 |
| 20260904163534 | 65 | 109 | 1.7 | 5.2 | 0.00 | 0.03 | 0.03 | 79 | 1013.4 |
| 20260904163444 | 65 | 146 | 0.9 | 5.2 | 0.00 | 0.03 | 0.03 | 79 | 1013.4 |
| 20260904163330 | 65 | 135 | 0.9 | 5.2 | 0.00 | 0.03 | 0.03 | 80 | 1013.5 |
| 20260904163229 | 64 | 137 | 0.9 | 3.5 | 0.00 | 0.03 | 0.03 | 80 | 1013.5 |
| 20260904163217 | 64 | 128 | 0.9 | 3.5 | 0.00 | 0.03 | 0.03 | 80 | 1013.5 |
| 20260904163030 | 64 | 228 | 0.9 | 3.5 | 0.00 | 0.03 | 0.03 | 79 | 1013.4 |
| 20260904162927 | 64 | 242 | 0.9 | 3.5 | 0.00 | 0.03 | 0.03 | 80 | 1013.5 |
| 20260904162828 | 64 | 215 | 0.9 | 7.0 | 0.00 | 0.03 | 0.03 | 81 | 1013.3 |
| 20260904162824 | 64 | 150 | 0.9 | 3.5 | 0.00 | 0.03 | 0.03 | 80 | 1013.5 |
| 20260904162722 | 64 | 222 | 0.9 | 3.5 | 0.00 | 0.03 | 0.03 | 80 | 1013.4 |
| 20260904162711 | 64 | 148 | 0.9 | 7.0 | 0.00 | 0.03 | 0.03 | 81 | 1013.4 |
| 20260904162521 | 64 | 137 | 0.9 | 7.0 | 0.00 | 0.03 | 0.03 | 81 | 1013.3 |
| 20260904162422 | 64 | 153 | 0.9 | 7.0 | 0.00 | 0.03 | 0.03 | 81 | 1013.3 |
| 20260904162316 | 64 | 154 | 0.9 | 7.0 | 0.00 | 0.03 | 0.03 | 80 | 1013.3 |
| 20260904162216 | 64 | 154 | 0.9 | 7.0 | 0.00 | 0.03 | 0.03 | 80 | 1013.3 |
| 20260904162115 | 64 | 134 | 1.7 | 7.0 | 0.00 | 0.03 | 0.03 | 79 | 1013.3 |
| 20260904162055 | 64 | 134 | 1.7 | 7.0 | 0.00 | 0.03 | 0.03 | 79 | 1013.3 |
| 20260904162016 | 64 | 236 | 1.7 | 7.0 | 0.00 | 0.03 | 0.03 | 80 | 1013.3 |
| 20260904161915 | 64 | 238 | 1.7 | 7.0 | 0.00 | 0.03 | 0.03 | 79 | 1013.3 |
| 20260904161818 | 65 | 231 | 1.7 | 7.0 | 0.00 | 0.03 | 0.03 | 80 | 1013.3 |
| 20260904161810 | 65 | 194 | 1.7 | 7.0 | 0.00 | 0.03 | 0.03 | 78 | 1013.3 |
| 20260904161709 | 65 | 232 | 1.7 | 7.0 | 0.00 | 0.03 | 0.03 | 78 | 1013.3 |
| 20260904161700 | 65 | 235 | 1.7 | 7.0 | 0.00 | 0.03 | 0.03 | 79 | 1013.3 |
| 20260904161510 | 65 | 226 | 1.7 | 7.0 | 0.00 | 0.03 | 0.03 | 80 | 1013.2 |
| 20260904161409 | 65 | 226 | 1.7 | 7.0 | 0.00 | 0.03 | 0.03 | 81 | 1013.3 |
| 20260904161304 | 65 | 226 | 1.7 | 7.0 | 0.00 | 0.03 | 0.03 | 80 | 1013.2 |
| 20260904161205 | 65 | 225 | 1.7 | 7.0 | 0.00 | 0.03 | 0.03 | 80 | 1013.3 |
| 20260904161103 | 65 | 190 | 2.6 | 7.0 | 0.00 | 0.03 | 0.03 | 80 | 1013.2 |
| 20260904161043 | 65 | 248 | 2.6 | 7.0 | 0.00 | 0.03 | 0.03 | 80 | 1013.2 |
| 20260904161004 | 65 | 207 | 1.7 | 7.0 | 0.00 | 0.03 | 0.03 | 81 | 1013.2 |
| 20260904160903 | 64 | 167 | 1.7 | 5.2 | 0.00 | 0.03 | 0.03 | 81 | 1013.2 |
| 20260904160800 | 64 | 200 | 1.7 | 4.3 | 0.00 | 0.03 | 0.03 | 81 | 1013.2 |
| 20260904160701 | 64 | 143 | 1.7 | 4.3 | 0.00 | 0.03 | 0.03 | 81 | 1013.1 |
| 20260904160600 | 64 | 168 | 1.7 | 4.3 | 0.00 | 0.03 | 0.03 | 81 | 1013.2 |
| 20260904160537 | 64 | 210 | 1.7 | 4.3 | 0.00 | 0.03 | 0.03 | 82 | 1013.2 |
| 20260904160459 | 64 | 124 | 1.7 | 4.3 | 0.00 | 0.03 | 0.03 | 82 | 1013.2 |
| 20260904160357 | 64 | 129 | 1.7 | 4.3 | 0.00 | 0.03 | 0.03 | 83 | 1013.2 |
| 20260904160252 | 64 | 152 | 1.7 | 4.3 | 0.00 | 0.03 | 0.03 | 83 | 1013.2 |
| 20260904160152 | 64 | 139 | 1.7 | 4.3 | 0.00 | 0.03 | 0.03 | 83 | 1013.2 |
| 20260904160053 | 64 | 144 | 1.7 | 4.3 | 0.00 | 0.03 | 0.03 | 83 | 1013.2 |
| 20260904160043 | 63 | 137 | 1.7 | 4.3 | 0.00 | 0.03 | 0.03 | 83 | 1013.2 |
| 20260904155951 | 63 | 136 | 1.7 | 4.3 | 0.00 | 0.03 | 0.03 | 83 | 1013.2 |
| 20260904155852 | 63 | 177 | 2.6 | 4.3 | 0.00 | 0.03 | 0.03 | 83 | 1013.2 |
| 20260904155746 | 63 | 179 | 2.6 | 5.2 | 0.00 | 0.03 | 0.03 | 83 | 1013.2 |
| 20260904155647 | 63 | 225 | 1.7 | 5.2 | 0.00 | 0.03 | 0.03 | 84 | 1013.3 |
| 20260904155545 | 63 | 195 | 2.6 | 5.2 | 0.00 | 0.03 | 0.03 | 85 | 1013.2 |
| 20260904155525 | 63 | 205 | 2.6 | 5.2 | 0.00 | 0.03 | 0.03 | 85 | 1013.2 |
| 20260904155446 | 63 | 212 | 2.6 | 5.2 | 0.00 | 0.03 | 0.03 | 85 | 1013.2 |
| 20260904155346 | 63 | 211 | 2.6 | 5.2 | 0.00 | 0.03 | 0.03 | 84 | 1013.2 |
| 20260904155249 | 62 | 242 | 2.6 | 5.2 | 0.00 | 0.03 | 0.03 | 84 | 1013.2 |
| 20260904155241 | 63 | 211 | 2.6 | 5.2 | 0.00 | 0.03 | 0.03 | 84 | 1013.3 |
| 20260904155144 | 63 | 229 | 2.6 | 5.2 | 0.00 | 0.03 | 0.03 | 84 | 1013.2 |
| 20260904155129 | 62 | 239 | 2.6 | 5.2 | 0.00 | 0.03 | 0.03 | 84 | 1013.2 |
| 20260904154940 | 62 | 217 | 2.6 | 5.2 | 0.00 | 0.03 | 0.03 | 84 | 1013.2 |
| 20260904154843 | 62 | 215 | 2.6 | 5.2 | 0.00 | 0.03 | 0.03 | 84 | 1013.2 |
| 20260904154735 | 62 | 236 | 2.6 | 5.2 | 0.00 | 0.03 | 0.03 | 85 | 1013.2 |
| 20260904154639 | 62 | 174 | 2.6 | 5.2 | 0.00 | 0.03 | 0.03 | 85 | 1013.2 |
| 20260904154534 | 62 | 224 | 2.6 | 5.2 | 0.00 | 0.03 | 0.03 | 84 | 1013.2 |
| 20260904154512 | 62 | 214 | 2.6 | 5.2 | 0.00 | 0.03 | 0.03 | 85 | 1013.2 |
| 20260904154434 | 62 | 154 | 1.7 | 4.3 | 0.00 | 0.03 | 0.03 | 85 | 1013.2 |
| 20260904154333 | 62 | 129 | 2.6 | 4.3 | 0.00 | 0.03 | 0.03 | 84 | 1013.2 |
| 20260904154229 | 62 | 238 | 2.6 | 5.2 | 0.00 | 0.03 | 0.03 | 85 | 1013.2 |
| 20260904154128 | 62 | 205 | 1.7 | 5.2 | 0.00 | 0.03 | 0.03 | 84 | 1013.2 |
| 20260904154028 | 62 | 190 | 1.7 | 5.2 | 0.00 | 0.03 | 0.03 | 84 | 1013.2 |
| 20260904154006 | 62 | 217 | 1.7 | 5.2 | 0.00 | 0.03 | 0.03 | 84 | 1013.2 |
| 20260904153927 | 62 | 224 | 1.7 | 5.2 | 0.00 | 0.03 | 0.03 | 84 | 1013.2 |
| 20260904153828 | 62 | 175 | 1.7 | 5.2 | 0.00 | 0.03 | 0.03 | 85 | 1013.1 |
| 20260904153723 | 62 | 152 | 1.7 | 5.2 | 0.00 | 0.03 | 0.03 | 85 | 1013.1 |
| 20260904153621 | 62 | 117 | 1.7 | 5.2 | 0.00 | 0.03 | 0.03 | 85 | 1013.2 |
| 20260904153522 | 62 | 134 | 1.7 | 5.2 | 0.00 | 0.03 | 0.03 | 85 | 1013.2 |
| 20260904153501 | 62 | 167 | 1.7 | 5.2 | 0.00 | 0.03 | 0.03 | 84 | 1013.2 |
| 20260904153422 | 62 | 188 | 1.7 | 5.2 | 0.00 | 0.03 | 0.03 | 84 | 1013.2 |
| 20260904153321 | 62 | 210 | 1.7 | 5.2 | 0.00 | 0.03 | 0.03 | 85 | 1013.1 |
| 20260904153216 | 62 | 260 | 1.7 | 5.2 | 0.00 | 0.03 | 0.03 | 86 | 1013.2 |
| 20260904153115 | 62 | 129 | 1.7 | 5.2 | 0.00 | 0.03 | 0.03 | 86 | 1013.1 |
| 20260904153016 | 62 | 143 | 1.7 | 5.2 | 0.00 | 0.03 | 0.03 | 86 | 1013.1 |
| 20260904152954 | 62 | 135 | 1.7 | 5.2 | 0.00 | 0.03 | 0.03 | 86 | 1013.1 |
| 20260904152916 | 62 | 136 | 1.7 | 5.2 | 0.00 | 0.03 | 0.03 | 86 | 1013.1 |
| 20260904152815 | 62 | 226 | 2.6 | 5.2 | 0.00 | 0.03 | 0.03 | 85 | 1013.1 |
| 20260904152712 | 62 | 233 | 2.6 | 5.2 | 0.00 | 0.03 | 0.03 | 85 | 1013.1 |
| 20260904152610 | 62 | 183 | 2.6 | 5.2 | 0.00 | 0.03 | 0.03 | 85 | 1013.1 |
| 20260904152513 | 62 | 197 | 2.6 | 5.2 | 0.00 | 0.03 | 0.03 | 86 | 1013.1 |
| 20260904152503 | 62 | 159 | 2.6 | 6.1 | 0.00 | 0.03 | 0.03 | 86 | 1013.1 |
| 20260904152410 | 62 | 113 | 2.6 | 6.1 | 0.00 | 0.03 | 0.03 | 86 | 1013.1 |
| 20260904152309 | 62 | 134 | 2.6 | 6.1 | 0.00 | 0.03 | 0.03 | 86 | 1013.1 |
| 20260904152205 | 62 | 163 | 2.6 | 6.1 | 0.00 | 0.03 | 0.03 | 86 | 1013.0 |
| 20260904152104 | 62 | 212 | 2.6 | 6.1 | 0.00 | 0.03 | 0.03 | 86 | 1013.0 |
| 20260904152003 | 62 | 122 | 2.6 | 6.1 | 0.00 | 0.03 | 0.03 | 86 | 1013.0 |
| 20260904151943 | 62 | 225 | 2.6 | 6.1 | 0.00 | 0.03 | 0.03 | 86 | 1013.0 |
| 20260904151904 | 62 | 225 | 2.6 | 6.1 | 0.00 | 0.03 | 0.03 | 86 | 1013.0 |
| 20260904151803 | 62 | 129 | 1.7 | 6.1 | 0.00 | 0.03 | 0.03 | 86 | 1013.1 |
| 20260904151703 | 62 | 225 | 1.7 | 6.1 | 0.00 | 0.03 | 0.03 | 86 | 1013.1 |
| 20260904151601 | 62 | 208 | 1.7 | 6.1 | 0.00 | 0.03 | 0.03 | 86 | 1013.1 |
| 20260904151501 | 62 | 95 | 1.7 | 6.1 | 0.00 | 0.03 | 0.03 | 86 | 1013.1 |
| 20260904151436 | 62 | 190 | 1.7 | 5.2 | 0.00 | 0.03 | 0.03 | 86 | 1013.1 |
| 20260904151400 | 62 | 203 | 1.7 | 5.2 | 0.00 | 0.03 | 0.03 | 87 | 1013.1 |
| 20260904151258 | 62 | 226 | 1.7 | 5.2 | 0.00 | 0.03 | 0.03 | 86 | 1013.1 |
| 20260904151152 | 62 | 129 | 1.7 | 3.5 | 0.00 | 0.03 | 0.03 | 87 | 1013.1 |
| 20260904151051 | 62 | 224 | 1.7 | 3.5 | 0.00 | 0.03 | 0.03 | 87 | 1013.1 |
| 20260904150952 | 61 | 217 | 1.7 | 3.5 | 0.00 | 0.03 | 0.03 | 87 | 1013.2 |
| 20260904150931 | 61 | 149 | 1.7 | 3.5 | 0.00 | 0.03 | 0.03 | 87 | 1013.2 |
| 20260904150852 | 61 | 141 | 1.7 | 3.5 | 0.00 | 0.03 | 0.03 | 87 | 1013.1 |
| 20260904150751 | 61 | 194 | 1.7 | 3.5 | 0.00 | 0.03 | 0.03 | 87 | 1013.1 |
| 20260904150652 | 61 | 183 | 1.7 | 3.5 | 0.00 | 0.03 | 0.03 | 87 | 1013.1 |
| 20260904150549 | 61 | 231 | 1.7 | 5.2 | 0.00 | 0.03 | 0.03 | 87 | 1013.1 |
| 20260904150448 | 61 | 211 | 1.7 | 5.2 | 0.00 | 0.03 | 0.03 | 87 | 1013.1 |
| 20260904150427 | 61 | 215 | 1.7 | 5.2 | 0.00 | 0.03 | 0.03 | 87 | 1013.1 |
| 20260904150348 | 61 | 221 | 1.7 | 5.2 | 0.00 | 0.03 | 0.03 | 87 | 1013.0 |
| 20260904150246 | 61 | 210 | 1.7 | 5.2 | 0.00 | 0.03 | 0.03 | 88 | 1013.1 |
| 20260904150143 | 61 | 148 | 1.7 | 5.2 | 0.00 | 0.03 | 0.03 | 88 | 1013.0 |
| 20260904150040 | 61 | 149 | 1.7 | 5.2 | 0.00 | 0.03 | 0.03 | 88 | 1013.1 |
| 20260904145939 | 61 | 160 | 1.7 | 5.2 | 0.00 | 0.03 | 0.03 | 88 | 1013.0 |
| 20260904145919 | 61 | 149 | 1.7 | 5.2 | 0.00 | 0.03 | 0.03 | 88 | 1013.0 |
| 20260904145841 | 61 | 158 | 1.7 | 5.2 | 0.00 | 0.03 | 0.03 | 88 | 1013.0 |
| 20260904145740 | 61 | 218 | 1.7 | 5.2 | 0.00 | 0.03 | 0.03 | 88 | 1013.1 |
| 20260904145634 | 61 | 229 | 0.9 | 5.2 | 0.00 | 0.03 | 0.03 | 88 | 1013.0 |
| 20260904145533 | 61 | 231 | 0.9 | 4.3 | 0.00 | 0.03 | 0.03 | 89 | 1013.0 |
| 20260904145412 | 61 | 143 | 0.9 | 2.6 | 0.00 | 0.03 | 0.03 | 90 | 1013.0 |
| 20260904145333 | 61 | 144 | 0.9 | 2.6 | 0.00 | 0.03 | 0.03 | 90 | 1013.0 |
| 20260904145234 | 60 | 104 | 0.9 | 2.6 | 0.00 | 0.03 | 0.03 | 90 | 1013.0 |
| 20260904145129 | 60 | 135 | 0.9 | 2.6 | 0.00 | 0.03 | 0.03 | 90 | 1013.0 |
| 20260904145027 | 60 | 138 | 0.0 | 2.6 | 0.00 | 0.03 | 0.03 | 90 | 1013.0 |
| 20260904144927 | 60 | 138 | 0.9 | 2.6 | 0.00 | 0.03 | 0.03 | 90 | 1013.0 |
| 20260904144909 | 60 | 138 | 0.0 | 2.6 | 0.00 | 0.03 | 0.03 | 90 | 1013.0 |
| 20260904144827 | 60 | 135 | 0.0 | 2.6 | 0.00 | 0.03 | 0.03 | 91 | 1013.0 |
| 20260904144728 | 60 | 139 | 0.0 | 2.6 | 0.00 | 0.03 | 0.03 | 91 | 1013.0 |
| 20260904144624 | 60 | 139 | 0.9 | 2.6 | 0.00 | 0.03 | 0.03 | 90 | 1013.0 |
| 20260904144522 | 60 | 138 | 0.9 | 2.6 | 0.00 | 0.03 | 0.03 | 90 | 1013.0 |
| 20260904144422 | 60 | 133 | 0.9 | 2.6 | 0.00 | 0.03 | 0.03 | 90 | 1013.0 |
| 20260904144401 | 60 | 186 | 0.9 | 2.6 | 0.00 | 0.03 | 0.03 | 90 | 1013.0 |
| 20260904144321 | 59 | 211 | 0.9 | 3.5 | 0.00 | 0.03 | 0.03 | 91 | 1013.0 |
| 20260904144222 | 59 | 186 | 0.9 | 3.5 | 0.00 | 0.03 | 0.03 | 91 | 1012.9 |
| 20260904144125 | 59 | 235 | 0.9 | 3.5 | 0.00 | 0.03 | 0.03 | 91 | 1012.9 |
| 20260904144118 | 59 | 186 | 0.9 | 3.5 | 0.00 | 0.03 | 0.03 | 90 | 1012.9 |
| 20260904144015 | 59 | 188 | 0.9 | 3.5 | 0.00 | 0.03 | 0.03 | 91 | 1012.9 |
| 20260904144005 | 59 | 196 | 0.9 | 3.5 | 0.00 | 0.03 | 0.03 | 91 | 1012.9 |
| 20260904143816 | 59 | 235 | 0.9 | 3.5 | 0.00 | 0.03 | 0.03 | 90 | 1012.9 |
| 20260904143715 | 59 | 225 | 0.9 | 3.5 | 0.00 | 0.03 | 0.03 | 90 | 1012.9 |
| 20260904143624 | 59 | 236 | 0.0 | 3.5 | 0.00 | 0.03 | 0.03 | 90 | 1012.8 |
| 20260904143612 | 59 | 203 | 0.0 | 3.5 | 0.00 | 0.03 | 0.03 | 90 | 1012.9 |
| 20260904143510 | 59 | 236 | 0.0 | 3.5 | 0.00 | 0.03 | 0.03 | 91 | 1012.8 |
| 20260904143410 | 59 | 236 | 0.0 | 3.5 | 0.00 | 0.03 | 0.03 | 90 | 1012.8 |
| 20260904143310 | 59 | 245 | 0.0 | 1.7 | 0.00 | 0.03 | 0.03 | 90 | 1012.8 |
| 20260904143210 | 59 | 190 | 0.0 | 1.7 | 0.00 | 0.03 | 0.03 | 90 | 1012.8 |
| 20260904143110 | 59 | 186 | 0.0 | 1.7 | 0.00 | 0.03 | 0.03 | 90 | 1012.8 |
| 20260904143008 | 59 | 186 | 0.0 | 1.7 | 0.00 | 0.03 | 0.03 | 90 | 1012.8 |
| 20260904142907 | 59 | 186 | 0.0 | 1.7 | 0.00 | 0.03 | 0.03 | 90 | 1012.7 |
| 20260904142856 | 59 | 186 | 0.0 | 1.7 | 0.00 | 0.03 | 0.03 | 90 | 1012.7 |
| 20260904142805 | 59 | 186 | 0.0 | 1.7 | 0.00 | 0.03 | 0.03 | 90 | 1012.7 |
| 20260904142705 | 59 | 186 | 0.9 | 1.7 | 0.00 | 0.03 | 0.03 | 90 | 1012.7 |
| 20260904142558 | 59 | 186 | 0.9 | 1.7 | 0.00 | 0.03 | 0.03 | 90 | 1012.7 |
| 20260904142458 | 59 | 186 | 0.9 | 1.7 | 0.00 | 0.03 | 0.03 | 90 | 1012.6 |
| 20260904142357 | 59 | 186 | 0.9 | 1.7 | 0.00 | 0.03 | 0.03 | 90 | 1012.6 |
| 20260904142337 | 59 | 211 | 0.9 | 1.7 | 0.00 | 0.03 | 0.03 | 90 | 1012.6 |
| 20260904142257 | 59 | 211 | 0.9 | 1.7 | 0.00 | 0.03 | 0.03 | 90 | 1012.6 |
| 20260904142159 | 59 | 136 | 0.9 | 5.2 | 0.00 | 0.03 | 0.03 | 90 | 1012.5 |
| 20260904142055 | 59 | 136 | 0.9 | 6.1 | 0.00 | 0.03 | 0.03 | 90 | 1012.5 |
| 20260904141955 | 59 | 134 | 0.9 | 6.1 | 0.00 | 0.03 | 0.03 | 90 | 1012.5 |
| 20260904141831 | 59 | 134 | 1.7 | 6.1 | 0.00 | 0.03 | 0.03 | 90 | 1012.5 |
| 20260904141753 | 59 | 134 | 1.7 | 6.1 | 0.00 | 0.03 | 0.03 | 90 | 1012.4 |
| 20260904141652 | 59 | 129 | 1.7 | 6.1 | 0.00 | 0.03 | 0.03 | 90 | 1012.4 |
| 20260904141547 | 59 | 143 | 1.7 | 6.1 | 0.00 | 0.03 | 0.03 | 90 | 1012.4 |
| 20260904141448 | 59 | 258 | 1.7 | 6.1 | 0.00 | 0.03 | 0.03 | 90 | 1012.4 |
| 20260904141348 | 59 | 193 | 1.7 | 6.1 | 0.00 | 0.03 | 0.03 | 90 | 1012.4 |
| 20260904141326 | 59 | 155 | 1.7 | 6.1 | 0.00 | 0.03 | 0.03 | 90 | 1012.4 |
| 20260904141311 | 59 | 231 | 1.7 | 4.3 | 0.00 | 0.03 | 0.03 | 90 | 1012.3 |
| 20260904141248 | 59 | 120 | 1.7 | 6.1 | 0.00 | 0.03 | 0.03 | 90 | 1012.4 |
| 20260904141158 | 59 | 222 | 1.7 | 4.3 | 0.00 | 0.03 | 0.03 | 90 | 1012.4 |
| 20260904141040 | 59 | 131 | 1.7 | 4.3 | 0.00 | 0.03 | 0.03 | 90 | 1012.4 |
| 20260904140940 | 59 | 222 | 1.7 | 4.3 | 0.00 | 0.03 | 0.03 | 90 | 1012.4 |
| 20260904140931 | 59 | 193 | 1.7 | 4.3 | 0.00 | 0.03 | 0.03 | 90 | 1012.3 |
| 20260904140804 | 59 | 216 | 0.9 | 3.5 | 0.00 | 0.03 | 0.03 | 90 | 1012.3 |
| 20260904140740 | 59 | 207 | 1.7 | 4.3 | 0.00 | 0.03 | 0.03 | 90 | 1012.3 |
| 20260904140650 | 59 | 192 | 1.7 | 4.3 | 0.00 | 0.03 | 0.03 | 90 | 1012.3 |
| 20260904140536 | 59 | 231 | 1.7 | 4.3 | 0.00 | 0.03 | 0.03 | 90 | 1012.3 |
| 20260904140435 | 59 | 210 | 0.9 | 3.5 | 0.00 | 0.03 | 0.03 | 90 | 1012.2 |
| 20260904140423 | 59 | 215 | 0.9 | 3.5 | 0.00 | 0.03 | 0.03 | 90 | 1012.2 |
| 20260904140237 | 59 | 193 | 0.9 | 3.5 | 0.00 | 0.03 | 0.03 | 90 | 1012.3 |
| 20260904140133 | 59 | 200 | 0.9 | 2.6 | 0.00 | 0.03 | 0.03 | 90 | 1012.2 |
| 20260904140032 | 59 | 211 | 0.0 | 2.6 | 0.00 | 0.03 | 0.03 | 90 | 1012.3 |
| 20260904135932 | 59 | 179 | 0.0 | 1.7 | 0.00 | 0.03 | 0.03 | 90 | 1012.2 |
| 20260904135807 | 59 | 190 | 0.0 | 1.7 | 0.00 | 0.03 | 0.03 | 90 | 1012.3 |
| 20260904135730 | 59 | 190 | 0.0 | 2.6 | 0.00 | 0.03 | 0.03 | 90 | 1012.3 |
| 20260904135627 | 59 | 190 | 0.9 | 2.6 | 0.00 | 0.03 | 0.03 | 90 | 1012.3 |
| 20260904135522 | 59 | 190 | 0.0 | 2.6 | 0.00 | 0.03 | 0.03 | 90 | 1012.3 |
| 20260904135422 | 59 | 190 | 0.0 | 2.6 | 0.00 | 0.03 | 0.03 | 90 | 1012.3 |
| 20260904135321 | 59 | 190 | 0.9 | 2.6 | 0.00 | 0.03 | 0.03 | 89 | 1012.2 |
| 20260904135300 | 59 | 190 | 0.9 | 2.6 | 0.00 | 0.03 | 0.03 | 89 | 1012.2 |
| 20260904135223 | 59 | 190 | 0.9 | 2.6 | 0.00 | 0.03 | 0.03 | 89 | 1012.2 |
| 20260904135121 | 59 | 190 | 0.9 | 2.6 | 0.00 | 0.03 | 0.03 | 89 | 1012.2 |
| 20260904135022 | 59 | 190 | 0.9 | 2.6 | 0.00 | 0.03 | 0.03 | 89 | 1012.2 |
| 20260904134919 | 59 | 190 | 0.9 | 2.6 | 0.00 | 0.03 | 0.03 | 89 | 1012.2 |
| 20260904134820 | 59 | 190 | 0.9 | 2.6 | 0.00 | 0.03 | 0.03 | 89 | 1012.2 |
| 20260904134754 | 60 | 190 | 0.0 | 2.6 | 0.00 | 0.03 | 0.03 | 89 | 1012.2 |
| 20260904134718 | 60 | 191 | 0.0 | 2.6 | 0.00 | 0.03 | 0.03 | 89 | 1012.2 |
| 20260904134615 | 60 | 225 | 0.9 | 2.6 | 0.00 | 0.03 | 0.03 | 89 | 1012.1 |
| 20260904134509 | 60 | 225 | 0.9 | 2.6 | 0.00 | 0.03 | 0.03 | 89 | 1012.2 |
| 20260904134411 | 60 | 225 | 0.9 | 2.6 | 0.00 | 0.03 | 0.03 | 89 | 1012.2 |
| 20260904134310 | 60 | 226 | 0.9 | 2.6 | 0.00 | 0.03 | 0.03 | 89 | 1012.1 |
| 20260904134249 | 60 | 226 | 0.9 | 2.6 | 0.00 | 0.03 | 0.03 | 89 | 1012.1 |
| 20260904134210 | 60 | 226 | 0.9 | 2.6 | 0.00 | 0.03 | 0.03 | 89 | 1012.2 |
| 20260904134110 | 60 | 211 | 0.9 | 2.6 | 0.00 | 0.03 | 0.03 | 89 | 1012.1 |
| 20260904134005 | 60 | 136 | 0.9 | 2.6 | 0.00 | 0.03 | 0.03 | 89 | 1012.1 |
| 20260904133903 | 60 | 136 | 0.9 | 2.6 | 0.00 | 0.03 | 0.03 | 89 | 1012.1 |
| 20260904133803 | 60 | 136 | 1.7 | 4.3 | 0.00 | 0.03 | 0.03 | 89 | 1012.1 |
| 20260904133747 | 60 | 135 | 1.7 | 4.3 | 0.00 | 0.03 | 0.03 | 89 | 1012.1 |
| 20260904133703 | 60 | 136 | 0.9 | 4.3 | 0.00 | 0.03 | 0.03 | 89 | 1012.1 |
| 20260904133559 | 60 | 197 | 0.9 | 4.3 | 0.00 | 0.03 | 0.03 | 89 | 1012.0 |
| 20260904133456 | 60 | 229 | 0.9 | 4.3 | 0.00 | 0.03 | 0.03 | 89 | 1012.0 |
| 20260904133355 | 60 | 238 | 0.9 | 4.3 | 0.00 | 0.03 | 0.03 | 89 | 1012.0 |
| 20260904133232 | 60 | 147 | 0.9 | 4.3 | 0.00 | 0.03 | 0.03 | 88 | 1012.0 |
| 20260904133223 | 60 | 241 | 1.7 | 6.1 | 0.00 | 0.03 | 0.03 | 88 | 1011.9 |
| 20260904133156 | 60 | 146 | 0.9 | 4.3 | 0.00 | 0.03 | 0.03 | 88 | 1011.9 |
| 20260904133107 | 60 | 201 | 0.9 | 4.3 | 0.00 | 0.03 | 0.03 | 88 | 1012.0 |
| 20260904132951 | 60 | 239 | 1.7 | 4.3 | 0.00 | 0.03 | 0.03 | 88 | 1012.0 |
| 20260904132851 | 60 | 239 | 1.7 | 6.1 | 0.00 | 0.03 | 0.03 | 88 | 1012.0 |
| 20260904132836 | 60 | 207 | 1.7 | 6.1 | 0.00 | 0.03 | 0.03 | 88 | 1011.9 |
| 20260904132651 | 60 | 242 | 1.7 | 6.1 | 0.00 | 0.03 | 0.03 | 88 | 1012.0 |
| 20260904132547 | 60 | 242 | 1.7 | 6.1 | 0.00 | 0.03 | 0.03 | 88 | 1011.9 |
| 20260904132446 | 60 | 242 | 1.7 | 6.1 | 0.00 | 0.03 | 0.03 | 88 | 1011.9 |
| 20260904132345 | 60 | 212 | 1.7 | 6.1 | 0.00 | 0.03 | 0.03 | 88 | 1011.9 |
| 20260904132220 | 60 | 212 | 1.7 | 6.1 | 0.00 | 0.03 | 0.03 | 88 | 1011.8 |
| 20260904132145 | 60 | 231 | 1.7 | 6.1 | 0.00 | 0.03 | 0.03 | 88 | 1011.9 |
| 20260904132041 | 60 | 259 | 1.7 | 6.1 | 0.00 | 0.03 | 0.03 | 88 | 1011.8 |
| 20260904131940 | 60 | 229 | 1.7 | 6.1 | 0.00 | 0.03 | 0.03 | 88 | 1011.8 |
| 20260904131840 | 60 | 144 | 1.7 | 4.3 | 0.00 | 0.03 | 0.03 | 88 | 1011.8 |
| 20260904131739 | 61 | 222 | 1.7 | 4.3 | 0.00 | 0.03 | 0.03 | 88 | 1011.8 |
| 20260904131727 | 61 | 212 | 1.7 | 4.3 | 0.00 | 0.03 | 0.03 | 88 | 1011.8 |
| 20260904131638 | 61 | 236 | 1.7 | 4.3 | 0.00 | 0.03 | 0.03 | 88 | 1011.8 |
| 20260904131540 | 61 | 239 | 1.7 | 4.3 | 0.00 | 0.03 | 0.03 | 88 | 1011.8 |
| 20260904131429 | 61 | 221 | 1.7 | 4.3 | 0.00 | 0.03 | 0.03 | 88 | 1011.8 |
| 20260904131329 | 61 | 242 | 1.7 | 4.3 | 0.00 | 0.03 | 0.03 | 88 | 1011.8 |
| 20260904131231 | 61 | 238 | 1.7 | 4.3 | 0.00 | 0.03 | 0.03 | 88 | 1011.8 |
| 20260904131209 | 61 | 229 | 1.7 | 4.3 | 0.00 | 0.03 | 0.03 | 88 | 1011.8 |
| 20260904131130 | 61 | 231 | 1.7 | 4.3 | 0.00 | 0.03 | 0.03 | 88 | 1011.8 |
| 20260904131030 | 61 | 233 | 1.7 | 4.3 | 0.00 | 0.03 | 0.03 | 88 | 1011.8 |
| 20260904130926 | 61 | 203 | 1.7 | 3.5 | 0.00 | 0.03 | 0.03 | 89 | 1011.8 |
| 20260904130826 | 61 | 193 | 1.7 | 3.5 | 0.00 | 0.03 | 0.03 | 89 | 1011.7 |
| 20260904130726 | 61 | 155 | 0.9 | 3.5 | 0.00 | 0.03 | 0.03 | 89 | 1011.7 |
| 20260904130703 | 61 | 200 | 0.9 | 3.5 | 0.00 | 0.03 | 0.03 | 89 | 1011.7 |
| 20260904130625 | 61 | 212 | 0.9 | 3.5 | 0.00 | 0.03 | 0.03 | 89 | 1011.7 |
| 20260904130524 | 61 | 198 | 0.9 | 3.5 | 0.00 | 0.03 | 0.03 | 88 | 1011.7 |
| 20260904130417 | 61 | 226 | 0.9 | 3.5 | 0.00 | 0.03 | 0.03 | 88 | 1011.7 |
| 20260904130318 | 61 | 226 | 0.9 | 3.5 | 0.00 | 0.03 | 0.03 | 88 | 1011.7 |
| 20260904130220 | 61 | 228 | 0.9 | 3.5 | 0.00 | 0.03 | 0.03 | 88 | 1011.7 |
| 20260904130209 | 61 | 228 | 1.7 | 3.5 | 0.00 | 0.03 | 0.03 | 88 | 1011.7 |
| 20260904130117 | 61 | 229 | 1.7 | 3.5 | 0.00 | 0.03 | 0.03 | 88 | 1011.7 |
| 20260904130019 | 61 | 208 | 1.7 | 3.5 | 0.00 | 0.03 | 0.03 | 88 | 1011.7 |
| 20260904125911 | 61 | 210 | 1.7 | 5.2 | 0.00 | 0.03 | 0.03 | 88 | 1011.7 |
| 20260904125812 | 61 | 129 | 1.7 | 5.2 | 0.00 | 0.03 | 0.03 | 88 | 1011.7 |
| 20260904125712 | 61 | 138 | 2.6 | 5.2 | 0.00 | 0.03 | 0.03 | 88 | 1011.7 |
| 20260904125651 | 61 | 138 | 2.6 | 5.2 | 0.00 | 0.03 | 0.03 | 88 | 1011.7 |
| 20260904125613 | 61 | 137 | 2.6 | 7.8 | 0.00 | 0.03 | 0.03 | 88 | 1011.7 |
| 20260904125511 | 61 | 221 | 2.6 | 7.8 | 0.00 | 0.03 | 0.03 | 88 | 1011.7 |
| 20260904125412 | 61 | 228 | 2.6 | 7.8 | 0.00 | 0.03 | 0.03 | 88 | 1011.7 |
| 20260904125310 | 61 | 228 | 2.6 | 7.8 | 0.00 | 0.03 | 0.03 | 88 | 1011.8 |
| 20260904125214 | 61 | 232 | 2.6 | 7.8 | 0.00 | 0.03 | 0.03 | 88 | 1011.8 |
| 20260904125145 | 61 | 238 | 2.6 | 7.8 | 0.00 | 0.03 | 0.03 | 88 | 1011.8 |
| 20260904125108 | 61 | 162 | 2.6 | 7.8 | 0.00 | 0.03 | 0.03 | 88 | 1011.7 |
| 20260904125006 | 61 | 194 | 1.7 | 7.8 | 0.00 | 0.03 | 0.03 | 88 | 1011.7 |
| 20260904124859 | 61 | 231 | 1.7 | 7.8 | 0.00 | 0.03 | 0.03 | 88 | 1011.7 |
| 20260904124800 | 61 | 231 | 1.7 | 7.8 | 0.00 | 0.03 | 0.03 | 88 | 1011.7 |
| 20260904124700 | 61 | 248 | 1.7 | 7.8 | 0.00 | 0.03 | 0.03 | 88 | 1011.7 |
| 20260904124638 | 61 | 258 | 1.7 | 7.8 | 0.00 | 0.03 | 0.03 | 88 | 1011.7 |
| 20260904124600 | 61 | 231 | 1.7 | 4.3 | 0.00 | 0.03 | 0.03 | 88 | 1011.7 |
| 20260904124459 | 61 | 198 | 0.9 | 4.3 | 0.00 | 0.03 | 0.03 | 89 | 1011.7 |
| 20260904124355 | 61 | 228 | 0.9 | 3.5 | 0.00 | 0.03 | 0.03 | 89 | 1011.6 |
| 20260904124256 | 61 | 269 | 1.7 | 3.5 | 0.00 | 0.03 | 0.03 | 89 | 1011.6 |
| 20260904124156 | 61 | 212 | 1.7 | 6.1 | 0.00 | 0.03 | 0.03 | 89 | 1011.6 |
| 20260904124133 | 61 | 225 | 1.7 | 6.1 | 0.00 | 0.03 | 0.03 | 89 | 1011.6 |
| 20260904124056 | 61 | 222 | 1.7 | 6.1 | 0.00 | 0.03 | 0.03 | 89 | 1011.7 |
| 20260904123954 | 61 | 217 | 1.7 | 6.1 | 0.00 | 0.03 | 0.03 | 89 | 1011.6 |
| 20260904123852 | 61 | 219 | 1.7 | 6.1 | 0.00 | 0.03 | 0.03 | 89 | 1011.6 |
| 20260904123752 | 61 | 160 | 1.7 | 6.1 | 0.00 | 0.03 | 0.03 | 89 | 1011.6 |
| 20260904123627 | 61 | 190 | 1.7 | 6.1 | 0.00 | 0.03 | 0.03 | 89 | 1011.6 |
| 20260904123550 | 61 | 195 | 1.7 | 6.1 | 0.00 | 0.03 | 0.03 | 89 | 1011.6 |
| 20260904123447 | 61 | 218 | 1.7 | 6.1 | 0.00 | 0.03 | 0.03 | 89 | 1011.6 |
| 20260904123348 | 61 | 205 | 1.7 | 6.1 | 0.00 | 0.03 | 0.03 | 89 | 1011.6 |
| 20260904123246 | 61 | 214 | 1.7 | 6.1 | 0.00 | 0.03 | 0.03 | 89 | 1011.6 |
| 20260904123146 | 61 | 205 | 1.7 | 5.2 | 0.00 | 0.03 | 0.03 | 89 | 1011.6 |
| 20260904123120 | 61 | 225 | 1.7 | 5.2 | 0.00 | 0.03 | 0.03 | 89 | 1011.6 |
| 20260904123043 | 61 | 233 | 1.7 | 5.2 | 0.00 | 0.03 | 0.03 | 89 | 1011.6 |
| 20260904122941 | 61 | 136 | 1.7 | 5.2 | 0.00 | 0.03 | 0.03 | 89 | 1011.6 |
| 20260904122837 | 61 | 214 | 1.7 | 5.2 | 0.00 | 0.03 | 0.03 | 89 | 1011.5 |
| 20260904122735 | 61 | 193 | 1.7 | 5.2 | 0.00 | 0.03 | 0.03 | 89 | 1011.5 |
| 20260904122639 | 61 | 235 | 1.7 | 5.2 | 0.00 | 0.03 | 0.03 | 89 | 1011.5 |
| 20260904122613 | 61 | 236 | 1.7 | 5.2 | 0.00 | 0.03 | 0.03 | 89 | 1011.6 |
| 20260904122536 | 61 | 235 | 1.7 | 5.2 | 0.00 | 0.03 | 0.03 | 89 | 1011.6 |
| 20260904122435 | 61 | 235 | 1.7 | 5.2 | 0.00 | 0.03 | 0.03 | 89 | 1011.5 |
| 20260904122329 | 61 | 135 | 1.7 | 5.2 | 0.00 | 0.03 | 0.03 | 89 | 1011.5 |
| 20260904122229 | 61 | 242 | 1.7 | 5.2 | 0.00 | 0.03 | 0.03 | 89 | 1011.5 |
| 20260904122129 | 61 | 226 | 1.7 | 5.2 | 0.00 | 0.03 | 0.03 | 89 | 1011.5 |
| 20260904122108 | 61 | 259 | 1.7 | 5.2 | 0.00 | 0.03 | 0.03 | 89 | 1011.5 |
| 20260904122029 | 61 | 198 | 1.7 | 5.2 | 0.00 | 0.03 | 0.03 | 89 | 1011.5 |
| 20260904121929 | 61 | 205 | 1.7 | 5.2 | 0.00 | 0.03 | 0.03 | 89 | 1011.5 |
| 20260904121833 | 61 | 243 | 1.7 | 6.1 | 0.00 | 0.03 | 0.03 | 89 | 1011.5 |
| 20260904121728 | 61 | 226 | 1.7 | 6.1 | 0.00 | 0.03 | 0.03 | 89 | 1011.5 |
| 20260904121627 | 61 | 217 | 1.7 | 6.1 | 0.00 | 0.03 | 0.03 | 89 | 1011.5 |
| 20260904121602 | 61 | 166 | 2.6 | 6.1 | 0.00 | 0.03 | 0.03 | 89 | 1011.5 |
| 20260904121525 | 61 | 166 | 2.6 | 6.1 | 0.00 | 0.03 | 0.03 | 89 | 1011.5 |
| 20260904121423 | 61 | 211 | 1.7 | 6.1 | 0.00 | 0.03 | 0.03 | 89 | 1011.5 |
| 20260904121327 | 61 | 252 | 1.7 | 6.1 | 0.00 | 0.03 | 0.03 | 89 | 1011.5 |
| 20260904121320 | 61 | 212 | 1.7 | 6.1 | 0.00 | 0.03 | 0.03 | 89 | 1011.5 |
| 20260904121220 | 61 | 224 | 1.7 | 6.1 | 0.00 | 0.03 | 0.03 | 89 | 1011.5 |
| 20260904121212 | 61 | 145 | 1.7 | 6.1 | 0.00 | 0.03 | 0.03 | 89 | 1011.5 |
| 20260904121018 | 61 | 229 | 1.7 | 6.1 | 0.00 | 0.03 | 0.03 | 90 | 1011.5 |
| 20260904120917 | 61 | 214 | 1.7 | 4.3 | 0.00 | 0.03 | 0.03 | 90 | 1011.5 |
| 20260904120814 | 61 | 214 | 1.7 | 4.3 | 0.00 | 0.03 | 0.03 | 90 | 1011.5 |
| 20260904120712 | 61 | 161 | 1.7 | 4.3 | 0.00 | 0.03 | 0.03 | 89 | 1011.5 |
| 20260904120612 | 61 | 169 | 1.7 | 3.5 | 0.00 | 0.03 | 0.03 | 90 | 1011.5 |
| 20260904120550 | 61 | 210 | 1.7 | 3.5 | 0.00 | 0.03 | 0.03 | 90 | 1011.5 |
| 20260904120512 | 61 | 193 | 1.7 | 6.1 | 0.00 | 0.03 | 0.03 | 89 | 1011.4 |
| 20260904120411 | 61 | 219 | 1.7 | 6.1 | 0.00 | 0.03 | 0.03 | 89 | 1011.4 |
| 20260904120311 | 61 | 219 | 1.7 | 6.1 | 0.00 | 0.03 | 0.03 | 89 | 1011.5 |
| 20260904120211 | 61 | 255 | 1.7 | 6.1 | 0.00 | 0.03 | 0.03 | 90 | 1011.4 |
| 20260904120108 | 61 | 238 | 1.7 | 6.1 | 0.00 | 0.03 | 0.03 | 90 | 1011.4 |
| 20260904120057 | 61 | 211 | 1.7 | 6.1 | 0.00 | 0.03 | 0.03 | 90 | 1011.4 |
| 20260904120008 | 61 | 212 | 2.6 | 6.1 | 0.00 | 0.03 | 0.03 | 90 | 1011.4 |
| 20260904115905 | 61 | 148 | 2.6 | 6.1 | 0.00 | 0.03 | 0.03 | 89 | 1011.4 |
| 20260904115801 | 61 | 242 | 2.6 | 6.1 | 0.00 | 0.03 | 0.03 | 89 | 1011.4 |
| 20260904115700 | 61 | 211 | 2.6 | 6.1 | 0.00 | 0.03 | 0.03 | 89 | 1011.4 |
| 20260904115559 | 61 | 260 | 2.6 | 6.1 | 0.00 | 0.03 | 0.03 | 89 | 1011.4 |
| 20260904115539 | 61 | 242 | 2.6 | 6.1 | 0.00 | 0.03 | 0.03 | 89 | 1011.4 |
| 20260904115500 | 61 | 241 | 2.6 | 5.2 | 0.00 | 0.03 | 0.03 | 90 | 1011.4 |
| 20260904115359 | 61 | 199 | 2.6 | 5.2 | 0.00 | 0.03 | 0.03 | 90 | 1011.4 |
| 20260904115254 | 61 | 236 | 2.6 | 4.3 | 0.00 | 0.03 | 0.03 | 90 | 1011.4 |
| 20260904115154 | 61 | 233 | 2.6 | 4.3 | 0.00 | 0.03 | 0.03 | 90 | 1011.4 |
| 20260904115054 | 61 | 231 | 2.6 | 5.2 | 0.00 | 0.03 | 0.03 | 90 | 1011.4 |
| 20260904115032 | 61 | 243 | 2.6 | 5.2 | 0.00 | 0.03 | 0.03 | 90 | 1011.4 |
| 20260904114953 | 61 | 233 | 1.7 | 5.2 | 0.00 | 0.03 | 0.03 | 90 | 1011.4 |
| 20260904114854 | 61 | 192 | 1.7 | 5.2 | 0.00 | 0.03 | 0.03 | 90 | 1011.4 |
| 20260904114750 | 61 | 169 | 1.7 | 5.2 | 0.00 | 0.03 | 0.03 | 90 | 1011.4 |
| 20260904114649 | 61 | 217 | 1.7 | 5.2 | 0.00 | 0.03 | 0.03 | 91 | 1011.5 |
| 20260904114548 | 61 | 179 | 1.7 | 5.2 | 0.00 | 0.03 | 0.03 | 90 | 1011.5 |
| 20260904114527 | 61 | 150 | 1.7 | 5.2 | 0.00 | 0.03 | 0.03 | 90 | 1011.5 |
| 20260904114448 | 61 | 134 | 1.7 | 5.2 | 0.00 | 0.03 | 0.03 | 90 | 1011.5 |
| 20260904114347 | 61 | 226 | 1.7 | 5.2 | 0.00 | 0.03 | 0.03 | 90 | 1011.4 |
| 20260904114246 | 61 | 219 | 0.9 | 3.5 | 0.00 | 0.03 | 0.03 | 91 | 1011.5 |
| 20260904114241 | 61 | 233 | 1.7 | 5.2 | 0.00 | 0.03 | 0.03 | 90 | 1011.5 |
| 20260904114142 | 61 | 250 | 0.9 | 5.2 | 0.00 | 0.03 | 0.03 | 91 | 1011.5 |
| 20260904114131 | 61 | 207 | 0.9 | 4.3 | 0.00 | 0.03 | 0.03 | 91 | 1011.5 |
| 20260904113941 | 61 | 222 | 0.9 | 3.5 | 0.00 | 0.03 | 0.03 | 91 | 1011.5 |
| 20260904113841 | 61 | 218 | 0.9 | 3.5 | 0.00 | 0.03 | 0.03 | 91 | 1011.4 |
| 20260904113741 | 61 | 238 | 0.9 | 2.6 | 0.00 | 0.03 | 0.03 | 91 | 1011.4 |
| 20260904113737 | 61 | 236 | 0.9 | 3.5 | 0.00 | 0.03 | 0.03 | 91 | 1011.4 |
| 20260904113637 | 61 | 237 | 0.9 | 3.5 | 0.00 | 0.03 | 0.03 | 90 | 1011.4 |
| 20260904113625 | 61 | 240 | 0.9 | 2.6 | 0.00 | 0.03 | 0.03 | 91 | 1011.4 |
| 20260904113436 | 61 | 233 | 0.0 | 2.6 | 0.00 | 0.03 | 0.03 | 91 | 1011.4 |
| 20260904113336 | 61 | 232 | 0.0 | 1.7 | 0.00 | 0.03 | 0.03 | 91 | 1011.4 |
| 20260904113232 | 61 | 232 | 0.0 | 1.7 | 0.00 | 0.03 | 0.03 | 91 | 1011.4 |
| 20260904113130 | 61 | 232 | 0.9 | 3.5 | 0.00 | 0.03 | 0.03 | 91 | 1011.4 |
| 20260904113008 | 61 | 215 | 0.9 | 3.5 | 0.00 | 0.03 | 0.03 | 91 | 1011.4 |
| 20260904112929 | 61 | 216 | 0.9 | 3.5 | 0.00 | 0.03 | 0.03 | 91 | 1011.4 |
| 20260904112834 | 61 | 210 | 0.9 | 3.5 | 0.00 | 0.03 | 0.03 | 91 | 1011.4 |
| 20260904112736 | 61 | 172 | 1.7 | 5.2 | 0.00 | 0.03 | 0.03 | 91 | 1011.3 |
| 20260904112730 | 61 | 210 | 0.9 | 4.3 | 0.00 | 0.03 | 0.03 | 91 | 1011.3 |
| 20260904112627 | 61 | 210 | 0.9 | 4.3 | 0.00 | 0.03 | 0.03 | 91 | 1011.3 |
| 20260904112528 | 61 | 172 | 1.7 | 5.2 | 0.00 | 0.03 | 0.03 | 91 | 1011.3 |
| 20260904112426 | 61 | 172 | 1.7 | 5.2 | 0.00 | 0.03 | 0.03 | 91 | 1011.3 |
| 20260904112324 | 61 | 172 | 1.7 | 5.2 | 0.00 | 0.03 | 0.03 | 91 | 1011.3 |
| 20260904112219 | 61 | 190 | 1.7 | 5.2 | 0.00 | 0.03 | 0.03 | 91 | 1011.4 |
| 20260904112118 | 61 | 211 | 1.7 | 5.2 | 0.00 | 0.03 | 0.03 | 91 | 1011.3 |
| 20260904112018 | 61 | 228 | 1.7 | 5.2 | 0.00 | 0.03 | 0.03 | 91 | 1011.3 |
| 20260904111956 | 61 | 248 | 1.7 | 5.2 | 0.00 | 0.03 | 0.03 | 91 | 1011.4 |
| 20260904111918 | 61 | 185 | 1.7 | 5.2 | 0.00 | 0.03 | 0.03 | 91 | 1011.3 |
| 20260904111818 | 61 | 188 | 1.7 | 5.2 | 0.00 | 0.03 | 0.03 | 91 | 1011.3 |
| 20260904111715 | 61 | 239 | 1.7 | 5.2 | 0.00 | 0.03 | 0.03 | 91 | 1011.3 |
| 20260904111611 | 61 | 239 | 1.7 | 5.2 | 0.00 | 0.03 | 0.03 | 91 | 1011.3 |
| 20260904111511 | 61 | 229 | 1.7 | 4.3 | 0.00 | 0.03 | 0.03 | 91 | 1011.3 |
| 20260904111455 | 61 | 229 | 1.7 | 4.3 | 0.00 | 0.03 | 0.03 | 91 | 1011.3 |
| 20260904111411 | 61 | 229 | 1.7 | 4.3 | 0.00 | 0.03 | 0.03 | 91 | 1011.3 |
| 20260904111311 | 61 | 217 | 1.7 | 4.3 | 0.00 | 0.03 | 0.03 | 91 | 1011.3 |
| 20260904111207 | 61 | 230 | 1.7 | 4.3 | 0.00 | 0.03 | 0.03 | 91 | 1011.3 |
| 20260904111105 | 61 | 232 | 1.7 | 4.3 | 0.00 | 0.03 | 0.03 | 91 | 1011.3 |
| 20260904111006 | 61 | 205 | 1.7 | 3.5 | 0.00 | 0.03 | 0.03 | 91 | 1011.3 |
| 20260904110955 | 61 | 226 | 1.7 | 3.5 | 0.00 | 0.03 | 0.03 | 91 | 1011.3 |
| 20260904110906 | 61 | 199 | 1.7 | 3.5 | 0.00 | 0.03 | 0.03 | 91 | 1011.3 |
| 20260904110805 | 61 | 222 | 1.7 | 5.2 | 0.00 | 0.03 | 0.03 | 91 | 1011.3 |
| 20260904110704 | 61 | 228 | 1.7 | 5.2 | 0.00 | 0.03 | 0.03 | 91 | 1011.2 |
| 20260904110600 | 61 | 256 | 1.7 | 5.2 | 0.00 | 0.03 | 0.03 | 91 | 1011.3 |
| 20260904110502 | 61 | 148 | 1.7 | 5.2 | 0.00 | 0.03 | 0.03 | 91 | 1011.2 |
| 20260904110452 | 61 | 167 | 1.7 | 5.2 | 0.00 | 0.03 | 0.03 | 91 | 1011.2 |
| 20260904110400 | 61 | 181 | 1.7 | 5.2 | 0.00 | 0.03 | 0.03 | 91 | 1011.2 |
| 20260904110259 | 61 | 222 | 2.6 | 5.2 | 0.00 | 0.03 | 0.03 | 91 | 1011.2 |
| 20260904110156 | 61 | 236 | 2.6 | 5.2 | 0.00 | 0.03 | 0.03 | 91 | 1011.2 |
| 20260904110054 | 61 | 233 | 2.6 | 5.2 | 0.00 | 0.03 | 0.03 | 91 | 1011.1 |
| 20260904105959 | 61 | 188 | 2.6 | 5.2 | 0.00 | 0.03 | 0.03 | 91 | 1011.2 |
| 20260904105953 | 61 | 187 | 2.6 | 5.2 | 0.00 | 0.03 | 0.03 | 91 | 1011.2 |
| 20260904105853 | 61 | 243 | 1.7 | 5.2 | 0.00 | 0.03 | 0.03 | 92 | 1011.2 |
| 20260904105753 | 61 | 233 | 1.7 | 3.5 | 0.00 | 0.03 | 0.03 | 92 | 1011.2 |
| 20260904105655 | 61 | 212 | 1.7 | 3.5 | 0.00 | 0.03 | 0.03 | 92 | 1011.2 |
| 20260904105551 | 61 | 226 | 1.7 | 3.5 | 0.00 | 0.03 | 0.03 | 92 | 1011.1 |
| 20260904105455 | 61 | 197 | 1.7 | 3.5 | 0.00 | 0.03 | 0.03 | 92 | 1011.1 |
| 20260904105449 | 61 | 203 | 1.7 | 3.5 | 0.00 | 0.03 | 0.03 | 92 | 1011.1 |
| 20260904105350 | 61 | 240 | 1.7 | 3.5 | 0.00 | 0.03 | 0.03 | 92 | 1011.2 |
| 20260904105248 | 61 | 217 | 1.7 | 4.3 | 0.00 | 0.03 | 0.03 | 92 | 1011.1 |
| 20260904105145 | 61 | 163 | 1.7 | 4.3 | 0.00 | 0.03 | 0.03 | 92 | 1011.1 |
| 20260904105042 | 61 | 146 | 0.9 | 4.3 | 0.00 | 0.03 | 0.03 | 92 | 1011.1 |
| 20260904104950 | 61 | 214 | 1.7 | 4.3 | 0.00 | 0.03 | 0.03 | 92 | 1011.1 |
| 20260904104941 | 61 | 194 | 1.7 | 4.3 | 0.00 | 0.03 | 0.03 | 92 | 1011.1 |
| 20260904104842 | 61 | 218 | 1.7 | 4.3 | 0.00 | 0.03 | 0.03 | 92 | 1011.1 |
| 20260904104741 | 61 | 236 | 1.7 | 4.3 | 0.00 | 0.03 | 0.03 | 92 | 1011.1 |
| 20260904104637 | 61 | 221 | 1.7 | 4.3 | 0.00 | 0.03 | 0.03 | 92 | 1011.1 |
| 20260904104536 | 61 | 166 | 1.7 | 4.3 | 0.00 | 0.03 | 0.03 | 92 | 1011.2 |
| 20260904104453 | 61 | 235 | 1.7 | 4.3 | 0.00 | 0.03 | 0.03 | 92 | 1011.1 |
| 20260904104435 | 61 | 233 | 1.7 | 4.3 | 0.00 | 0.03 | 0.03 | 92 | 1011.1 |
| 20260904104336 | 61 | 226 | 1.7 | 5.2 | 0.00 | 0.03 | 0.03 | 92 | 1011.1 |
| 20260904104235 | 61 | 236 | 1.7 | 5.2 | 0.00 | 0.03 | 0.03 | 92 | 1011.1 |
| 20260904104216 | 61 | 219 | 1.7 | 5.2 | 0.00 | 0.03 | 0.03 | 92 | 1011.1 |
| 20260904104137 | 61 | 232 | 2.6 | 5.2 | 0.00 | 0.03 | 0.03 | 92 | 1011.1 |
| 20260904104101 | 61 | 222 | 2.6 | 5.2 | 0.00 | 0.03 | 0.03 | 92 | 1011.1 |
| 20260904103934 | 61 | 215 | 1.7 | 5.2 | 0.00 | 0.03 | 0.03 | 92 | 1011.1 |
| 20260904103832 | 61 | 197 | 1.7 | 5.2 | 0.00 | 0.03 | 0.03 | 92 | 1011.1 |
| 20260904103730 | 61 | 233 | 1.7 | 5.2 | 0.00 | 0.03 | 0.03 | 92 | 1011.1 |
| 20260904103624 | 61 | 188 | 1.7 | 5.2 | 0.00 | 0.03 | 0.03 | 92 | 1011.1 |
| 20260904103523 | 61 | 238 | 2.6 | 7.0 | 0.00 | 0.03 | 0.03 | 92 | 1011.0 |
| 20260904103449 | 61 | 233 | 1.7 | 7.0 | 0.00 | 0.03 | 0.03 | 92 | 1011.1 |
| 20260904103424 | 61 | 232 | 1.7 | 7.0 | 0.00 | 0.03 | 0.03 | 92 | 1011.1 |
| 20260904103324 | 61 | 222 | 1.7 | 7.0 | 0.00 | 0.03 | 0.03 | 92 | 1011.1 |
| 20260904103223 | 61 | 214 | 1.7 | 7.0 | 0.00 | 0.03 | 0.03 | 92 | 1011.1 |
| 20260904103118 | 61 | 233 | 1.7 | 7.0 | 0.00 | 0.03 | 0.03 | 92 | 1011.0 |
| 20260904103017 | 61 | 238 | 1.7 | 7.0 | 0.00 | 0.03 | 0.03 | 92 | 1011.1 |
| 20260904102948 | 61 | 222 | 1.7 | 7.0 | 0.00 | 0.03 | 0.03 | 92 | 1011.1 |
| 20260904102917 | 61 | 239 | 1.7 | 7.0 | 0.00 | 0.03 | 0.03 | 92 | 1011.1 |
| 20260904102818 | 61 | 232 | 1.7 | 7.0 | 0.00 | 0.03 | 0.03 | 92 | 1011.1 |
| 20260904102720 | 61 | 238 | 1.7 | 7.0 | 0.00 | 0.03 | 0.03 | 92 | 1011.1 |
| 20260904102711 | 60 | 199 | 1.7 | 4.3 | 0.00 | 0.03 | 0.03 | 92 | 1011.0 |
| 20260904102614 | 61 | 187 | 1.7 | 7.0 | 0.00 | 0.03 | 0.03 | 92 | 1011.1 |
| 20260904102559 | 60 | 223 | 1.7 | 4.3 | 0.00 | 0.03 | 0.03 | 92 | 1011.0 |
| 20260904102412 | 60 | 214 | 1.7 | 4.3 | 0.00 | 0.03 | 0.03 | 91 | 1011.0 |
| 20260904102312 | 60 | 240 | 1.7 | 4.3 | 0.00 | 0.03 | 0.03 | 91 | 1011.0 |
| 20260904102211 | 60 | 225 | 1.7 | 4.3 | 0.00 | 0.03 | 0.03 | 91 | 1011.1 |
| 20260904102106 | 60 | 198 | 1.7 | 6.1 | 0.00 | 0.03 | 0.03 | 91 | 1011.1 |
| 20260904102006 | 60 | 233 | 1.7 | 6.1 | 0.00 | 0.03 | 0.03 | 91 | 1011.0 |
| 20260904101949 | 60 | 215 | 1.7 | 6.1 | 0.00 | 0.03 | 0.03 | 91 | 1011.0 |
| 20260904101906 | 60 | 218 | 1.7 | 6.1 | 0.00 | 0.03 | 0.03 | 91 | 1011.0 |
| 20260904101805 | 60 | 239 | 1.7 | 6.1 | 0.00 | 0.03 | 0.03 | 91 | 1011.0 |
| 20260904101706 | 60 | 234 | 1.7 | 6.1 | 0.00 | 0.03 | 0.03 | 91 | 1011.0 |
| 20260904101604 | 60 | 211 | 1.7 | 6.1 | 0.00 | 0.03 | 0.03 | 91 | 1011.0 |
| 20260904101505 | 60 | 211 | 1.7 | 6.1 | 0.00 | 0.03 | 0.03 | 91 | 1010.9 |
| 20260904101448 | 60 | 212 | 1.7 | 6.1 | 0.00 | 0.03 | 0.03 | 91 | 1010.9 |
| 20260904101403 | 60 | 172 | 1.7 | 6.1 | 0.00 | 0.03 | 0.03 | 91 | 1011.0 |
| 20260904101301 | 60 | 228 | 0.9 | 6.1 | 0.00 | 0.03 | 0.03 | 91 | 1010.9 |
| 20260904101200 | 60 | 204 | 0.9 | 6.1 | 0.00 | 0.03 | 0.03 | 91 | 1011.0 |
| 20260904101057 | 60 | 236 | 0.9 | 2.6 | 0.00 | 0.03 | 0.03 | 91 | 1010.9 |
| 20260904100949 | 60 | 221 | 0.9 | 2.6 | 0.00 | 0.03 | 0.03 | 91 | 1010.9 |
| 20260904100857 | 60 | 221 | 0.9 | 2.6 | 0.00 | 0.03 | 0.03 | 91 | 1010.9 |
| 20260904100755 | 60 | 221 | 0.9 | 3.5 | 0.00 | 0.03 | 0.03 | 91 | 1010.9 |
| 20260904100653 | 60 | 221 | 0.9 | 3.5 | 0.00 | 0.03 | 0.03 | 91 | 1010.9 |
| 20260904100550 | 60 | 203 | 1.7 | 4.3 | 0.00 | 0.03 | 0.03 | 91 | 1011.0 |
| 20260904100448 | 60 | 239 | 1.7 | 4.3 | 0.00 | 0.03 | 0.03 | 91 | 1011.0 |
| 20260904100348 | 60 | 161 | 1.7 | 4.3 | 0.00 | 0.03 | 0.03 | 91 | 1011.0 |
| 20260904100248 | 60 | 161 | 1.7 | 4.3 | 0.00 | 0.03 | 0.03 | 91 | 1011.0 |
| 20260904100207 | 60 | 205 | 1.7 | 4.3 | 0.00 | 0.03 | 0.03 | 91 | 1011.0 |
| 20260904100147 | 60 | 211 | 1.7 | 4.3 | 0.00 | 0.03 | 0.03 | 91 | 1011.0 |
| 20260904100059 | 60 | 211 | 1.7 | 4.3 | 0.00 | 0.03 | 0.03 | 91 | 1011.0 |
| 20260904095942 | 60 | 201 | 1.7 | 4.3 | 0.00 | 0.03 | 0.03 | 91 | 1011.0 |
| 20260904095842 | 60 | 233 | 1.7 | 4.3 | 0.00 | 0.03 | 0.03 | 91 | 1011.0 |
| 20260904095742 | 60 | 218 | 1.7 | 4.3 | 0.00 | 0.03 | 0.03 | 91 | 1010.9 |
| 20260904095642 | 60 | 222 | 1.7 | 4.3 | 0.00 | 0.03 | 0.03 | 91 | 1011.0 |
| 20260904095535 | 60 | 210 | 0.9 | 4.3 | 0.00 | 0.03 | 0.03 | 91 | 1010.9 |
| 20260904095448 | 60 | 155 | 0.9 | 3.5 | 0.00 | 0.03 | 0.03 | 91 | 1010.9 |
| 20260904095435 | 60 | 156 | 0.9 | 3.5 | 0.00 | 0.03 | 0.03 | 91 | 1010.9 |
| 20260904095336 | 60 | 211 | 0.9 | 3.5 | 0.00 | 0.03 | 0.03 | 91 | 1010.9 |
| 20260904095234 | 60 | 213 | 0.9 | 3.5 | 0.00 | 0.03 | 0.03 | 91 | 1010.9 |
| 20260904095134 | 60 | 214 | 0.9 | 3.5 | 0.00 | 0.03 | 0.03 | 91 | 1010.9 |
| 20260904095030 | 60 | 219 | 0.9 | 3.5 | 0.00 | 0.03 | 0.03 | 91 | 1010.9 |
| 20260904094929 | 60 | 219 | 0.9 | 3.5 | 0.00 | 0.03 | 0.03 | 91 | 1010.9 |
| 20260904094830 | 60 | 219 | 0.9 | 3.5 | 0.00 | 0.03 | 0.03 | 91 | 1010.9 |
| 20260904094730 | 60 | 233 | 0.9 | 3.5 | 0.00 | 0.03 | 0.03 | 91 | 1010.9 |
| 20260904094629 | 60 | 233 | 1.7 | 3.5 | 0.00 | 0.03 | 0.03 | 91 | 1010.9 |
| 20260904094526 | 60 | 233 | 1.7 | 3.5 | 0.00 | 0.03 | 0.03 | 91 | 1010.9 |
| 20260904094426 | 60 | 229 | 1.7 | 3.5 | 0.00 | 0.03 | 0.03 | 91 | 1010.9 |
| 20260904094326 | 60 | 229 | 1.7 | 3.5 | 0.00 | 0.03 | 0.03 | 91 | 1010.9 |
| 20260904094224 | 60 | 212 | 1.7 | 3.5 | 0.00 | 0.03 | 0.03 | 91 | 1010.9 |
| 20260904094121 | 60 | 225 | 1.7 | 3.5 | 0.00 | 0.03 | 0.03 | 91 | 1011.0 |
| 20260904094018 | 60 | 232 | 1.7 | 3.5 | 0.00 | 0.03 | 0.03 | 91 | 1010.9 |
| 20260904093937 | 60 | 226 | 1.7 | 3.5 | 0.00 | 0.03 | 0.03 | 91 | 1010.9 |
| 20260904093917 | 60 | 225 | 1.7 | 3.5 | 0.00 | 0.03 | 0.03 | 91 | 1010.9 |
| 20260904093818 | 60 | 219 | 0.9 | 3.5 | 0.00 | 0.03 | 0.03 | 91 | 1010.9 |
| 20260904093718 | 60 | 227 | 0.9 | 3.5 | 0.00 | 0.03 | 0.03 | 91 | 1010.9 |
| 20260904093615 | 60 | 226 | 0.9 | 3.5 | 0.00 | 0.03 | 0.03 | 91 | 1011.0 |
| 20260904093509 | 60 | 214 | 0.9 | 2.6 | 0.00 | 0.03 | 0.03 | 91 | 1011.0 |
| 20260904093429 | 60 | 228 | 0.9 | 2.6 | 0.00 | 0.03 | 0.03 | 91 | 1011.0 |
| 20260904093410 | 60 | 203 | 0.9 | 2.6 | 0.00 | 0.03 | 0.03 | 91 | 1011.0 |
| 20260904093309 | 60 | 168 | 0.9 | 2.6 | 0.00 | 0.03 | 0.03 | 91 | 1010.9 |
| 20260904093210 | 60 | 224 | 0.9 | 2.6 | 0.00 | 0.03 | 0.03 | 91 | 1010.9 |
| 20260904093109 | 60 | 215 | 0.9 | 2.6 | 0.00 | 0.03 | 0.03 | 91 | 1010.9 |
| 20260904093005 | 60 | 218 | 0.9 | 2.6 | 0.00 | 0.03 | 0.03 | 91 | 1011.0 |
| 20260904092926 | 60 | 218 | 0.9 | 2.6 | 0.00 | 0.03 | 0.03 | 91 | 1011.0 |
| 20260904092904 | 60 | 218 | 0.9 | 2.6 | 0.00 | 0.03 | 0.03 | 91 | 1010.9 |
| 20260904092803 | 60 | 181 | 0.9 | 2.6 | 0.00 | 0.03 | 0.03 | 91 | 1010.9 |
| 20260904092704 | 60 | 226 | 0.9 | 2.6 | 0.00 | 0.03 | 0.03 | 91 | 1010.9 |
| 20260904092603 | 60 | 143 | 0.9 | 2.6 | 0.00 | 0.03 | 0.03 | 91 | 1010.9 |
| 20260904092501 | 60 | 231 | 0.9 | 2.6 | 0.00 | 0.03 | 0.03 | 91 | 1010.9 |
| 20260904092418 | 60 | 203 | 0.9 | 3.5 | 0.00 | 0.03 | 0.03 | 91 | 1010.9 |
| 20260904092401 | 60 | 233 | 0.9 | 3.5 | 0.00 | 0.03 | 0.03 | 91 | 1010.9 |
| 20260904092301 | 60 | 236 | 0.9 | 3.5 | 0.00 | 0.03 | 0.03 | 91 | 1010.9 |
| 20260904092200 | 60 | 236 | 0.9 | 3.5 | 0.00 | 0.03 | 0.03 | 91 | 1010.9 |
| 20260904092057 | 60 | 236 | 0.9 | 3.5 | 0.00 | 0.03 | 0.03 | 91 | 1010.8 |
| 20260904091957 | 60 | 236 | 0.9 | 3.5 | 0.00 | 0.03 | 0.03 | 91 | 1010.8 |
| 20260904091913 | 60 | 236 | 0.9 | 3.5 | 0.00 | 0.03 | 0.03 | 91 | 1010.8 |
| 20260904091855 | 60 | 237 | 0.9 | 3.5 | 0.00 | 0.03 | 0.03 | 91 | 1010.8 |
| 20260904091756 | 60 | 236 | 0.9 | 3.5 | 0.00 | 0.03 | 0.03 | 91 | 1010.8 |
| 20260904091654 | 60 | 236 | 0.9 | 3.5 | 0.00 | 0.03 | 0.03 | 91 | 1010.8 |
| 20260904091629 | 60 | 236 | 0.9 | 2.6 | 0.00 | 0.03 | 0.03 | 91 | 1010.9 |
| 20260904091551 | 60 | 236 | 0.9 | 3.5 | 0.00 | 0.03 | 0.03 | 91 | 1010.8 |
| 20260904091517 | 60 | 236 | 0.9 | 3.5 | 0.00 | 0.03 | 0.03 | 91 | 1010.9 |
| 20260904091345 | 60 | 236 | 0.9 | 2.6 | 0.00 | 0.03 | 0.03 | 91 | 1010.9 |
| 20260904091245 | 60 | 226 | 0.9 | 2.6 | 0.00 | 0.03 | 0.03 | 91 | 1010.9 |
| 20260904091146 | 60 | 208 | 0.9 | 2.6 | 0.00 | 0.03 | 0.03 | 91 | 1010.9 |
| 20260904091045 | 60 | 203 | 0.9 | 2.6 | 0.00 | 0.03 | 0.03 | 91 | 1010.9 |
| 20260904090946 | 60 | 214 | 0.9 | 2.6 | 0.00 | 0.03 | 0.03 | 91 | 1010.9 |
| 20260904090843 | 60 | 200 | 0.9 | 2.6 | 0.00 | 0.03 | 0.03 | 91 | 1010.9 |
| 20260904090744 | 60 | 200 | 0.9 | 2.6 | 0.00 | 0.03 | 0.03 | 91 | 1011.0 |
| 20260904090642 | 60 | 231 | 0.9 | 2.6 | 0.00 | 0.03 | 0.03 | 91 | 1011.0 |
| 20260904090539 | 60 | 226 | 0.9 | 2.6 | 0.00 | 0.03 | 0.03 | 91 | 1011.0 |
| 20260904090433 | 60 | 210 | 0.9 | 2.6 | 0.00 | 0.03 | 0.03 | 91 | 1011.0 |
| 20260904090333 | 60 | 210 | 0.9 | 2.6 | 0.00 | 0.03 | 0.03 | 91 | 1011.0 |
| 20260904090233 | 60 | 210 | 0.9 | 2.6 | 0.00 | 0.03 | 0.03 | 91 | 1011.0 |
| 20260904090134 | 60 | 210 | 0.9 | 2.6 | 0.00 | 0.03 | 0.03 | 91 | 1011.0 |
| 20260904090034 | 60 | 210 | 0.9 | 2.6 | 0.00 | 0.03 | 0.03 | 91 | 1011.0 |
| 20260904085934 | 60 | 219 | 0.9 | 2.6 | 0.00 | 0.03 | 0.03 | 91 | 1011.0 |
| 20260904085832 | 60 | 219 | 0.9 | 2.6 | 0.00 | 0.03 | 0.03 | 91 | 1011.0 |
| 20260904085731 | 60 | 214 | 0.9 | 2.6 | 0.00 | 0.03 | 0.03 | 91 | 1011.0 |
| 20260904085629 | 60 | 214 | 0.9 | 2.6 | 0.00 | 0.03 | 0.03 | 91 | 1011.1 |
| 20260904085527 | 60 | 211 | 0.9 | 1.7 | 0.00 | 0.03 | 0.03 | 91 | 1011.0 |
| 20260904085428 | 60 | 200 | 0.9 | 1.7 | 0.00 | 0.03 | 0.03 | 91 | 1011.0 |
| 20260904085325 | 60 | 200 | 0.9 | 1.7 | 0.00 | 0.03 | 0.03 | 91 | 1011.0 |
| 20260904085224 | 60 | 210 | 0.0 | 1.7 | 0.00 | 0.03 | 0.03 | 91 | 1011.0 |
| 20260904085124 | 60 | 205 | 0.0 | 1.7 | 0.00 | 0.03 | 0.03 | 91 | 1011.1 |
| 20260904085021 | 60 | 186 | 0.0 | 1.7 | 0.00 | 0.03 | 0.03 | 90 | 1011.1 |
| 20260904084922 | 60 | 228 | 0.0 | 1.7 | 0.00 | 0.03 | 0.03 | 91 | 1011.1 |
| 20260904084836 | 60 | 205 | 0.0 | 0.9 | 0.00 | 0.03 | 0.03 | 91 | 1011.1 |
| 20260904084819 | 60 | 204 | 0.0 | 0.9 | 0.00 | 0.03 | 0.03 | 91 | 1011.1 |
| 20260904084720 | 60 | 204 | 0.0 | 0.9 | 0.00 | 0.03 | 0.03 | 91 | 1011.1 |
| 20260904084618 | 60 | 204 | 0.0 | 0.9 | 0.00 | 0.03 | 0.03 | 91 | 1011.1 |
| 20260904084516 | 60 | 205 | 0.0 | 0.9 | 0.00 | 0.03 | 0.03 | 91 | 1011.1 |
| 20260904084412 | 60 | 204 | 0.0 | 0.9 | 0.00 | 0.03 | 0.03 | 91 | 1011.1 |
| 20260904084343 | 60 | 204 | 0.0 | 0.9 | 0.00 | 0.03 | 0.03 | 91 | 1011.1 |
| 20260904084312 | 60 | 204 | 0.0 | 0.9 | 0.00 | 0.03 | 0.03 | 91 | 1011.1 |
| 20260904084211 | 60 | 204 | 0.0 | 0.9 | 0.00 | 0.03 | 0.03 | 91 | 1011.1 |
| 20260904084112 | 60 | 204 | 0.0 | 1.7 | 0.00 | 0.03 | 0.03 | 91 | 1011.1 |
| 20260904084048 | 60 | 204 | 0.9 | 1.7 | 0.00 | 0.03 | 0.03 | 91 | 1011.1 |
| 20260904084009 | 60 | 205 | 0.0 | 1.7 | 0.00 | 0.03 | 0.03 | 91 | 1011.1 |
| 20260904083938 | 60 | 204 | 0.9 | 1.7 | 0.00 | 0.03 | 0.03 | 91 | 1011.1 |
| 20260904083808 | 60 | 204 | 0.9 | 1.7 | 0.00 | 0.03 | 0.03 | 91 | 1011.1 |
| 20260904083708 | 60 | 204 | 0.9 | 1.7 | 0.00 | 0.03 | 0.03 | 91 | 1011.1 |
| 20260904083606 | 60 | 204 | 0.9 | 1.7 | 0.00 | 0.03 | 0.03 | 91 | 1011.1 |
| 20260904083507 | 60 | 205 | 0.9 | 1.7 | 0.00 | 0.03 | 0.03 | 91 | 1011.1 |
| 20260904083404 | 60 | 205 | 0.9 | 1.7 | 0.00 | 0.03 | 0.03 | 91 | 1011.1 |
| 20260904083331 | 60 | 204 | 0.9 | 1.7 | 0.00 | 0.03 | 0.03 | 91 | 1011.1 |
| 20260904083302 | 60 | 205 | 0.9 | 1.7 | 0.00 | 0.03 | 0.03 | 91 | 1011.1 |
| 20260904083201 | 60 | 204 | 0.9 | 1.7 | 0.00 | 0.03 | 0.03 | 91 | 1011.1 |
| 20260904083100 | 60 | 200 | 0.0 | 1.7 | 0.00 | 0.03 | 0.03 | 91 | 1011.1 |
| 20260904083032 | 60 | 212 | 0.0 | 1.7 | 0.01 | 0.03 | 0.03 | 91 | 1011.1 |
| 20260904082957 | 60 | 225 | 0.0 | 1.7 | 0.00 | 0.03 | 0.03 | 91 | 1011.1 |
| 20260904082926 | 60 | 224 | 0.0 | 1.7 | 0.00 | 0.03 | 0.03 | 91 | 1011.1 |
| 20260904082755 | 60 | 212 | 0.0 | 1.7 | 0.01 | 0.03 | 0.03 | 91 | 1011.1 |
| 20260904082655 | 60 | 212 | 0.0 | 1.7 | 0.01 | 0.03 | 0.03 | 91 | 1011.1 |
| 20260904082554 | 60 | 226 | 0.0 | 1.7 | 0.01 | 0.03 | 0.03 | 91 | 1011.1 |
| 20260904082450 | 60 | 226 | 0.0 | 1.7 | 0.01 | 0.03 | 0.03 | 91 | 1011.1 |
| 20260904082352 | 60 | 226 | 0.0 | 1.7 | 0.01 | 0.03 | 0.03 | 91 | 1011.2 |
| 20260904082306 | 60 | 226 | 0.9 | 1.7 | 0.01 | 0.03 | 0.03 | 91 | 1011.1 |
| 20260904082249 | 60 | 226 | 0.9 | 1.7 | 0.01 | 0.03 | 0.03 | 91 | 1011.1 |
| 20260904082150 | 60 | 226 | 0.9 | 1.7 | 0.01 | 0.03 | 0.03 | 91 | 1011.1 |
| 20260904082047 | 60 | 226 | 0.9 | 1.7 | 0.01 | 0.03 | 0.03 | 91 | 1011.1 |
| 20260904081946 | 60 | 226 | 0.9 | 1.7 | 0.01 | 0.03 | 0.03 | 91 | 1011.2 |
| 20260904081846 | 60 | 226 | 0.9 | 1.7 | 0.01 | 0.03 | 0.03 | 91 | 1011.2 |
| 20260904081743 | 60 | 226 | 0.0 | 1.7 | 0.01 | 0.03 | 0.03 | 91 | 1011.1 |
| 20260904081643 | 60 | 232 | 0.9 | 1.7 | 0.01 | 0.03 | 0.03 | 91 | 1011.2 |
| 20260904081541 | 60 | 232 | 0.0 | 1.7 | 0.01 | 0.03 | 0.03 | 91 | 1011.2 |
| 20260904081520 | 60 | 236 | 0.0 | 1.7 | 0.02 | 0.03 | 0.03 | 91 | 1011.2 |
| 20260904081439 | 60 | 238 | 0.0 | 1.7 | 0.01 | 0.03 | 0.03 | 91 | 1011.2 |
| 20260904081405 | 60 | 238 | 0.0 | 1.7 | 0.01 | 0.03 | 0.03 | 91 | 1011.2 |
| 20260904081238 | 60 | 220 | 0.0 | 1.7 | 0.02 | 0.03 | 0.03 | 91 | 1011.2 |
| 20260904081138 | 60 | 158 | 0.0 | 1.7 | 0.02 | 0.03 | 0.03 | 91 | 1011.2 |
| 20260904081036 | 60 | 158 | 0.0 | 1.7 | 0.02 | 0.03 | 0.03 | 91 | 1011.1 |
| 20260904080933 | 60 | 136 | 0.0 | 2.6 | 0.02 | 0.03 | 0.03 | 91 | 1011.1 |
| 20260904080829 | 60 | 231 | 0.9 | 2.6 | 0.02 | 0.03 | 0.03 | 91 | 1011.2 |
| 20260904080748 | 60 | 231 | 0.9 | 2.6 | 0.02 | 0.03 | 0.03 | 91 | 1011.1 |
| 20260904080727 | 60 | 158 | 0.9 | 2.6 | 0.02 | 0.03 | 0.03 | 91 | 1011.1 |
| 20260904080628 | 60 | 158 | 0.9 | 2.6 | 0.02 | 0.03 | 0.03 | 91 | 1011.1 |
| 20260904080528 | 60 | 158 | 0.9 | 2.6 | 0.02 | 0.03 | 0.03 | 91 | 1011.1 |
| 20260904080427 | 60 | 158 | 0.9 | 2.6 | 0.02 | 0.03 | 0.03 | 91 | 1011.2 |
| 20260904080325 | 60 | 163 | 0.9 | 2.6 | 0.02 | 0.03 | 0.03 | 91 | 1011.1 |
| 20260904080226 | 60 | 162 | 1.7 | 3.5 | 0.02 | 0.03 | 0.03 | 91 | 1011.2 |
| 20260904080125 | 60 | 162 | 1.7 | 3.5 | 0.03 | 0.03 | 0.03 | 91 | 1011.2 |
| 20260904080024 | 60 | 235 | 1.7 | 3.5 | 0.03 | 0.03 | 0.03 | 91 | 1011.2 |
| 20260904075958 | 60 | 243 | 1.7 | 4.3 | 0.03 | 0.03 | 0.03 | 91 | 1011.2 |
| 20260904075922 | 60 | 207 | 1.7 | 3.5 | 0.03 | 0.03 | 0.03 | 91 | 1011.2 |
| 20260904075846 | 60 | 212 | 1.7 | 4.3 | 0.03 | 0.03 | 0.03 | 91 | 1011.2 |
| 20260904075718 | 60 | 223 | 1.7 | 4.3 | 0.03 | 0.03 | 0.03 | 91 | 1011.2 |
| 20260904075618 | 60 | 187 | 1.7 | 4.3 | 0.03 | 0.03 | 0.03 | 91 | 1011.2 |
| 20260904075517 | 60 | 224 | 1.7 | 4.3 | 0.03 | 0.03 | 0.03 | 91 | 1011.2 |
| 20260904075415 | 60 | 228 | 1.7 | 4.3 | 0.03 | 0.03 | 0.03 | 91 | 1011.2 |
| 20260904075309 | 61 | 231 | 1.7 | 4.3 | 0.03 | 0.03 | 0.03 | 91 | 1011.2 |
| 20260904075231 | 61 | 166 | 1.7 | 4.3 | 0.03 | 0.03 | 0.03 | 91 | 1011.2 |
| 20260904075210 | 61 | 229 | 1.7 | 4.3 | 0.03 | 0.03 | 0.03 | 91 | 1011.2 |
| 20260904075110 | 61 | 148 | 1.7 | 4.3 | 0.03 | 0.03 | 0.03 | 91 | 1011.2 |
| 20260904075009 | 61 | 266 | 1.7 | 4.3 | 0.03 | 0.03 | 0.03 | 91 | 1011.2 |
| 20260904074909 | 61 | 147 | 1.7 | 4.3 | 0.03 | 0.03 | 0.03 | 91 | 1011.3 |
| 20260904074810 | 61 | 225 | 1.7 | 4.3 | 0.03 | 0.03 | 0.03 | 91 | 1011.3 |
| 20260904074724 | 61 | 228 | 1.7 | 4.3 | 0.03 | 0.03 | 0.03 | 91 | 1011.3 |
| 20260904074708 | 61 | 222 | 1.7 | 4.3 | 0.03 | 0.03 | 0.03 | 91 | 1011.2 |
| 20260904074608 | 61 | 219 | 1.7 | 4.3 | 0.03 | 0.03 | 0.03 | 91 | 1011.2 |
| 20260904074506 | 61 | 229 | 1.7 | 4.3 | 0.03 | 0.03 | 0.03 | 91 | 1011.3 |
| 20260904074405 | 61 | 226 | 1.7 | 4.3 | 0.03 | 0.03 | 0.03 | 91 | 1011.2 |
| 20260904074303 | 61 | 226 | 1.7 | 4.3 | 0.03 | 0.03 | 0.03 | 91 | 1011.2 |
| 20260904074218 | 61 | 235 | 1.7 | 4.3 | 0.03 | 0.03 | 0.03 | 91 | 1011.2 |
| 20260904074202 | 61 | 221 | 1.7 | 3.5 | 0.03 | 0.03 | 0.03 | 91 | 1011.2 |
| 20260904074101 | 61 | 229 | 0.9 | 3.5 | 0.03 | 0.03 | 0.03 | 91 | 1011.2 |
| 20260904073959 | 61 | 214 | 0.9 | 2.6 | 0.03 | 0.03 | 0.03 | 91 | 1011.2 |
| 20260904073857 | 61 | 222 | 0.9 | 2.6 | 0.03 | 0.03 | 0.03 | 91 | 1011.1 |
| 20260904073755 | 61 | 155 | 0.9 | 2.6 | 0.03 | 0.03 | 0.03 | 91 | 1011.0 |
| 20260904073712 | 61 | 200 | 0.9 | 2.6 | 0.03 | 0.03 | 0.03 | 91 | 1011.1 |
| 20260904073656 | 61 | 203 | 0.9 | 2.6 | 0.03 | 0.03 | 0.03 | 91 | 1011.1 |
| 20260904073555 | 61 | 236 | 0.9 | 2.6 | 0.03 | 0.03 | 0.03 | 91 | 1011.1 |
| 20260904073453 | 61 | 229 | 0.9 | 2.6 | 0.03 | 0.03 | 0.03 | 91 | 1011.1 |
| 20260904073352 | 61 | 157 | 0.9 | 2.6 | 0.03 | 0.03 | 0.03 | 91 | 1011.0 |
| 20260904073248 | 61 | 233 | 0.9 | 2.6 | 0.03 | 0.03 | 0.03 | 91 | 1011.0 |
| 20260904073207 | 61 | 165 | 0.9 | 2.6 | 0.03 | 0.03 | 0.03 | 91 | 1011.1 |
| 20260904073146 | 61 | 165 | 0.9 | 2.6 | 0.03 | 0.03 | 0.03 | 91 | 1011.1 |
| 20260904073045 | 61 | 126 | 0.9 | 2.6 | 0.03 | 0.03 | 0.03 | 91 | 1011.0 |
| 20260904072946 | 61 | 125 | 0.9 | 2.6 | 0.03 | 0.03 | 0.03 | 91 | 1011.0 |
| 20260904072845 | 61 | 139 | 0.9 | 2.6 | 0.03 | 0.03 | 0.03 | 91 | 1011.0 |
| 20260904072744 | 61 | 142 | 0.9 | 2.6 | 0.02 | 0.02 | 0.03 | 91 | 1011.0 |
| 20260904072700 | 61 | 158 | 0.9 | 2.6 | 0.02 | 0.02 | 0.02 | 91 | 1010.9 |
| 20260904072644 | 61 | 149 | 0.9 | 2.6 | 0.02 | 0.02 | 0.02 | 91 | 1010.9 |
| 20260904072544 | 61 | 158 | 0.9 | 2.6 | 0.02 | 0.02 | 0.02 | 91 | 1011.0 |
| 20260904072441 | 61 | 104 | 0.9 | 3.5 | 0.02 | 0.02 | 0.02 | 91 | 1011.0 |
| 20260904072339 | 61 | 146 | 0.9 | 3.5 | 0.02 | 0.02 | 0.02 | 91 | 1010.9 |
| 20260904072240 | 61 | 155 | 0.9 | 3.5 | 0.02 | 0.02 | 0.02 | 91 | 1011.0 |
| 20260904072138 | 61 | 127 | 0.9 | 3.5 | 0.02 | 0.02 | 0.02 | 91 | 1010.9 |
| 20260904072038 | 61 | 127 | 0.9 | 3.5 | 0.02 | 0.02 | 0.02 | 91 | 1010.9 |
| 20260904071936 | 61 | 155 | 1.7 | 3.5 | 0.02 | 0.02 | 0.02 | 91 | 1010.9 |
| 20260904071833 | 61 | 156 | 1.7 | 3.5 | 0.02 | 0.02 | 0.02 | 91 | 1010.9 |
| 20260904071730 | 61 | 117 | 0.9 | 3.5 | 0.02 | 0.02 | 0.02 | 91 | 1010.9 |
| 20260904071627 | 61 | 148 | 0.9 | 3.5 | 0.02 | 0.02 | 0.02 | 91 | 1011.0 |
| 20260904071528 | 61 | 143 | 0.9 | 2.6 | 0.02 | 0.02 | 0.02 | 91 | 1011.0 |
| 20260904071428 | 61 | 107 | 0.9 | 2.6 | 0.02 | 0.02 | 0.02 | 91 | 1011.0 |
| 20260904071327 | 61 | 131 | 0.9 | 2.6 | 0.01 | 0.01 | 0.02 | 91 | 1011.0 |
| 20260904071223 | 61 | 123 | 0.9 | 2.6 | 0.01 | 0.01 | 0.01 | 91 | 1011.0 |
| 20260904071143 | 61 | 141 | 0.9 | 2.6 | 0.01 | 0.01 | 0.01 | 91 | 1011.1 |
| 20260904071124 | 62 | 126 | 0.9 | 2.6 | 0.01 | 0.01 | 0.01 | 91 | 1011.1 |
| 20260904071023 | 62 | 204 | 0.9 | 2.6 | 0.01 | 0.01 | 0.01 | 91 | 1011.1 |
| 20260904070924 | 62 | 148 | 0.9 | 2.6 | 0.01 | 0.01 | 0.01 | 91 | 1011.1 |
| 20260904070825 | 62 | 129 | 0.9 | 2.6 | 0.01 | 0.01 | 0.01 | 91 | 1011.1 |
| 20260904070721 | 62 | 238 | 0.9 | 4.3 | 0.01 | 0.01 | 0.01 | 91 | 1011.1 |
| 20260904070652 | 62 | 238 | 0.9 | 4.3 | 0.01 | 0.01 | 0.01 | 91 | 1011.1 |
| 20260904070619 | 62 | 238 | 0.9 | 4.3 | 0.01 | 0.01 | 0.01 | 91 | 1011.1 |
| 20260904070520 | 62 | 238 | 0.9 | 4.3 | 0.01 | 0.01 | 0.01 | 91 | 1011.2 |
| 20260904070418 | 62 | 211 | 0.9 | 4.3 | 0.01 | 0.01 | 0.01 | 91 | 1011.2 |
| 20260904070315 | 62 | 197 | 1.7 | 4.3 | 0.01 | 0.01 | 0.01 | 91 | 1011.2 |
| 20260904070210 | 62 | 197 | 1.7 | 6.1 | 0.01 | 0.01 | 0.01 | 91 | 1011.2 |
| 20260904070139 | 62 | 215 | 1.7 | 6.1 | 0.00 | 0.00 | 0.00 | 91 | 1011.2 |
| 20260904070109 | 62 | 188 | 1.7 | 6.1 | 0.00 | 0.00 | 0.00 | 91 | 1011.1 |
| 20260904070010 | 62 | 221 | 1.7 | 6.1 | 0.00 | 0.00 | 0.00 | 91 | 1011.2 |
| 20260904065910 | 62 | 203 | 1.7 | 6.1 | 0.00 | 0.00 | 0.00 | 90 | 1011.2 |
| 20260904065809 | 63 | 250 | 1.7 | 6.1 | 0.00 | 0.00 | 0.00 | 90 | 1011.2 |
| 20260904065704 | 63 | 242 | 1.7 | 6.1 | 0.00 | 0.00 | 0.00 | 88 | 1011.2 |
| 20260904065639 | 63 | 195 | 1.7 | 6.1 | 0.00 | 0.00 | 0.00 | 88 | 1011.2 |
| 20260904065603 | 63 | 195 | 2.6 | 6.1 | 0.00 | 0.00 | 0.00 | 88 | 1011.2 |
| 20260904065503 | 63 | 236 | 2.6 | 7.0 | 0.00 | 0.00 | 0.00 | 87 | 1011.2 |
| 20260904065401 | 63 | 229 | 2.6 | 7.0 | 0.00 | 0.00 | 0.00 | 87 | 1011.2 |
| 20260904065301 | 63 | 219 | 2.6 | 7.0 | 0.00 | 0.00 | 0.00 | 87 | 1011.2 |
| 20260904065158 | 63 | 239 | 2.6 | 7.0 | 0.00 | 0.00 | 0.00 | 87 | 1011.2 |
| 20260904065140 | 63 | 240 | 2.6 | 7.0 | 0.00 | 0.00 | 0.00 | 87 | 1011.2 |
| 20260904065056 | 63 | 239 | 3.5 | 7.0 | 0.00 | 0.00 | 0.00 | 87 | 1011.2 |
| 20260904064956 | 63 | 168 | 3.5 | 7.0 | 0.00 | 0.00 | 0.00 | 87 | 1011.2 |
| 20260904064856 | 64 | 231 | 2.6 | 7.0 | 0.00 | 0.00 | 0.00 | 86 | 1011.2 |
| 20260904064755 | 64 | 232 | 2.6 | 7.0 | 0.00 | 0.00 | 0.00 | 86 | 1011.2 |
| 20260904064650 | 64 | 246 | 2.6 | 7.0 | 0.00 | 0.00 | 0.00 | 86 | 1011.2 |
| 20260904064637 | 64 | 235 | 2.6 | 7.0 | 0.00 | 0.00 | 0.00 | 86 | 1011.2 |
| 20260904064550 | 64 | 240 | 2.6 | 7.0 | 0.00 | 0.00 | 0.00 | 86 | 1011.1 |
| 20260904064450 | 64 | 231 | 2.6 | 6.1 | 0.00 | 0.00 | 0.00 | 85 | 1011.2 |
| 20260904064350 | 64 | 238 | 2.6 | 6.1 | 0.00 | 0.00 | 0.00 | 85 | 1011.1 |
| 20260904064248 | 64 | 250 | 1.7 | 5.2 | 0.00 | 0.00 | 0.00 | 85 | 1011.2 |
| 20260904064148 | 64 | 225 | 1.7 | 5.2 | 0.00 | 0.00 | 0.00 | 85 | 1011.1 |
| 20260904064137 | 64 | 231 | 1.7 | 5.2 | 0.00 | 0.00 | 0.00 | 85 | 1011.1 |
| 20260904064044 | 64 | 235 | 1.7 | 5.2 | 0.00 | 0.00 | 0.00 | 85 | 1011.1 |
| 20260904063944 | 64 | 226 | 1.7 | 5.2 | 0.00 | 0.00 | 0.00 | 85 | 1011.1 |
| 20260904063844 | 64 | 210 | 2.6 | 5.2 | 0.00 | 0.00 | 0.00 | 84 | 1011.1 |
| 20260904063741 | 64 | 248 | 2.6 | 5.2 | 0.00 | 0.00 | 0.00 | 84 | 1011.1 |
| 20260904063643 | 64 | 232 | 2.6 | 5.2 | 0.00 | 0.00 | 0.00 | 84 | 1011.1 |
| 20260904063637 | 64 | 222 | 2.6 | 5.2 | 0.00 | 0.00 | 0.00 | 84 | 1011.1 |
| 20260904063535 | 64 | 231 | 2.6 | 5.2 | 0.00 | 0.00 | 0.00 | 84 | 1011.1 |
| 20260904063436 | 64 | 253 | 2.6 | 7.0 | 0.00 | 0.00 | 0.00 | 84 | 1011.1 |
| 20260904063336 | 64 | 233 | 2.6 | 7.0 | 0.00 | 0.00 | 0.00 | 84 | 1011.1 |
| 20260904063233 | 64 | 217 | 3.5 | 7.0 | 0.00 | 0.00 | 0.00 | 84 | 1011.0 |
| 20260904063136 | 64 | 235 | 3.5 | 7.0 | 0.00 | 0.00 | 0.00 | 84 | 1011.0 |
| 20260904063126 | 64 | 223 | 3.5 | 7.0 | 0.00 | 0.00 | 0.00 | 84 | 1011.0 |
| 20260904063025 | 64 | 238 | 3.5 | 7.0 | 0.00 | 0.00 | 0.00 | 84 | 1011.0 |
| 20260904062926 | 64 | 235 | 3.5 | 7.0 | 0.00 | 0.00 | 0.00 | 84 | 1011.1 |
| 20260904062826 | 64 | 266 | 2.6 | 7.0 | 0.00 | 0.00 | 0.00 | 84 | 1011.0 |
| 20260904062726 | 64 | 245 | 2.6 | 7.0 | 0.00 | 0.00 | 0.00 | 83 | 1011.0 |
| 20260904062636 | 64 | 245 | 2.6 | 7.0 | 0.00 | 0.00 | 0.00 | 83 | 1011.0 |
| 20260904062620 | 64 | 248 | 2.6 | 7.0 | 0.00 | 0.00 | 0.00 | 83 | 1011.0 |
| 20260904062520 | 64 | 229 | 2.6 | 7.0 | 0.00 | 0.00 | 0.00 | 83 | 1011.0 |
| 20260904062420 | 65 | 245 | 2.6 | 7.0 | 0.00 | 0.00 | 0.00 | 83 | 1011.0 |
| 20260904062320 | 65 | 240 | 1.7 | 7.0 | 0.00 | 0.00 | 0.00 | 83 | 1011.0 |
| 20260904062221 | 65 | 245 | 1.7 | 5.2 | 0.00 | 0.00 | 0.00 | 83 | 1011.0 |
| 20260904062136 | 65 | 240 | 1.7 | 5.2 | 0.00 | 0.00 | 0.00 | 83 | 1011.0 |
| 20260904062116 | 65 | 250 | 1.7 | 5.2 | 0.00 | 0.00 | 0.00 | 83 | 1011.0 |
| 20260904062016 | 65 | 258 | 1.7 | 5.2 | 0.00 | 0.00 | 0.00 | 83 | 1011.0 |
| 20260904061916 | 65 | 238 | 1.7 | 5.2 | 0.00 | 0.00 | 0.00 | 83 | 1011.0 |
| 20260904061908 | 65 | 243 | 1.7 | 5.2 | 0.00 | 0.00 | 0.00 | 82 | 1011.1 |
| 20260904061816 | 65 | 225 | 1.7 | 5.2 | 0.00 | 0.00 | 0.00 | 83 | 1011.0 |
| 20260904061759 | 65 | 252 | 1.7 | 5.2 | 0.00 | 0.00 | 0.00 | 82 | 1011.1 |
| 20260904061607 | 65 | 218 | 1.7 | 5.2 | 0.00 | 0.00 | 0.00 | 82 | 1011.1 |
| 20260904061508 | 65 | 236 | 2.6 | 5.2 | 0.00 | 0.00 | 0.00 | 82 | 1011.0 |
| 20260904061407 | 65 | 276 | 2.6 | 7.8 | 0.00 | 0.00 | 0.00 | 82 | 1011.1 |
| 20260904061308 | 65 | 242 | 2.6 | 7.8 | 0.00 | 0.00 | 0.00 | 82 | 1011.0 |
| 20260904061205 | 65 | 236 | 2.6 | 7.8 | 0.00 | 0.00 | 0.00 | 82 | 1011.0 |
| 20260904061134 | 65 | 215 | 2.6 | 7.8 | 0.00 | 0.00 | 0.00 | 82 | 1011.0 |
| 20260904061057 | 65 | 274 | 2.6 | 7.8 | 0.00 | 0.00 | 0.00 | 82 | 1011.0 |
| 20260904060957 | 65 | 236 | 2.6 | 7.8 | 0.00 | 0.00 | 0.00 | 82 | 1011.0 |
| 20260904060856 | 65 | 233 | 2.6 | 7.8 | 0.00 | 0.00 | 0.00 | 82 | 1011.0 |
| 20260904060757 | 65 | 236 | 2.6 | 7.8 | 0.00 | 0.00 | 0.00 | 82 | 1011.0 |
| 20260904060656 | 65 | 229 | 1.7 | 7.8 | 0.00 | 0.00 | 0.00 | 82 | 1011.0 |
| 20260904060635 | 65 | 245 | 1.7 | 7.8 | 0.00 | 0.00 | 0.00 | 82 | 1011.0 |
| 20260904060549 | 65 | 210 | 1.7 | 7.8 | 0.00 | 0.00 | 0.00 | 82 | 1010.9 |
| 20260904060449 | 65 | 221 | 1.7 | 7.8 | 0.00 | 0.00 | 0.00 | 82 | 1010.9 |
| 20260904060349 | 65 | 231 | 1.7 | 5.2 | 0.00 | 0.00 | 0.00 | 82 | 1011.0 |
| 20260904060249 | 65 | 193 | 1.7 | 5.2 | 0.00 | 0.00 | 0.00 | 82 | 1010.9 |
| 20260904060148 | 65 | 229 | 1.7 | 4.3 | 0.00 | 0.00 | 0.00 | 82 | 1011.0 |
| 20260904060134 | 65 | 239 | 1.7 | 4.3 | 0.00 | 0.00 | 0.00 | 82 | 1011.0 |
| 20260904060119 | 65 | 212 | 1.7 | 4.3 | 0.00 | 0.00 | 0.00 | 82 | 1010.9 |
| 20260904060045 | 65 | 201 | 1.7 | 3.5 | 0.00 | 0.00 | 0.00 | 82 | 1010.9 |
| 20260904060004 | 65 | 148 | 1.7 | 3.5 | 0.00 | 0.00 | 0.00 | 82 | 1010.9 |
| 20260904055844 | 65 | 212 | 1.7 | 3.5 | 0.00 | 0.00 | 0.00 | 82 | 1010.9 |
| 20260904055750 | 65 | 212 | 1.7 | 4.3 | 0.00 | 0.00 | 0.00 | 82 | 1010.9 |
| 20260904055741 | 65 | 212 | 1.7 | 4.3 | 0.00 | 0.00 | 0.00 | 82 | 1010.9 |
| 20260904055535 | 65 | 215 | 1.7 | 4.3 | 0.00 | 0.00 | 0.00 | 82 | 1010.9 |
| 20260904055435 | 65 | 203 | 1.7 | 5.2 | 0.00 | 0.00 | 0.00 | 82 | 1011.0 |
| 20260904055333 | 65 | 211 | 2.6 | 5.2 | 0.00 | 0.00 | 0.00 | 82 | 1010.9 |
| 20260904055233 | 65 | 231 | 2.6 | 6.1 | 0.00 | 0.00 | 0.00 | 82 | 1010.9 |
| 20260904055133 | 65 | 228 | 2.6 | 6.1 | 0.00 | 0.00 | 0.00 | 82 | 1011.0 |
| 20260904055028 | 65 | 218 | 2.6 | 6.1 | 0.00 | 0.00 | 0.00 | 81 | 1010.9 |
| 20260904054926 | 65 | 205 | 2.6 | 6.1 | 0.00 | 0.00 | 0.00 | 81 | 1011.0 |
| 20260904054827 | 65 | 242 | 1.7 | 6.1 | 0.00 | 0.00 | 0.00 | 81 | 1011.0 |
| 20260904054727 | 65 | 236 | 2.6 | 6.1 | 0.00 | 0.00 | 0.00 | 81 | 1010.9 |
| 20260904054643 | 65 | 239 | 2.6 | 6.1 | 0.00 | 0.00 | 0.00 | 81 | 1010.9 |
| 20260904054526 | 65 | 226 | 2.6 | 6.1 | 0.00 | 0.00 | 0.00 | 81 | 1010.9 |
| 20260904054425 | 65 | 134 | 2.6 | 7.0 | 0.00 | 0.00 | 0.00 | 81 | 1011.0 |
| 20260904054323 | 65 | 219 | 2.6 | 8.7 | 0.00 | 0.00 | 0.00 | 81 | 1011.0 |
| 20260904054223 | 65 | 243 | 2.6 | 8.7 | 0.00 | 0.00 | 0.00 | 81 | 1011.0 |
| 20260904054121 | 65 | 233 | 2.6 | 8.7 | 0.00 | 0.00 | 0.00 | 81 | 1011.0 |
| 20260904054015 | 65 | 246 | 2.6 | 8.7 | 0.00 | 0.00 | 0.00 | 81 | 1011.0 |
| 20260904053915 | 65 | 255 | 3.5 | 8.7 | 0.00 | 0.00 | 0.00 | 81 | 1011.0 |
| 20260904053821 | 65 | 262 | 3.5 | 8.7 | 0.00 | 0.00 | 0.00 | 81 | 1011.0 |
| 20260904053715 | 65 | 242 | 2.6 | 8.7 | 0.00 | 0.00 | 0.00 | 81 | 1011.1 |
| 20260904053616 | 65 | 179 | 3.5 | 8.7 | 0.00 | 0.00 | 0.00 | 80 | 1011.0 |
| 20260904053509 | 66 | 238 | 3.5 | 8.7 | 0.00 | 0.00 | 0.00 | 80 | 1011.0 |
| 20260904053409 | 66 | 236 | 2.6 | 7.0 | 0.00 | 0.00 | 0.00 | 80 | 1011.1 |
| 20260904053309 | 66 | 250 | 2.6 | 7.0 | 0.00 | 0.00 | 0.00 | 80 | 1011.1 |
| 20260904053208 | 66 | 191 | 2.6 | 7.0 | 0.00 | 0.00 | 0.00 | 80 | 1011.1 |
| 20260904053109 | 66 | 245 | 2.6 | 7.0 | 0.00 | 0.00 | 0.00 | 80 | 1011.1 |
| 20260904053006 | 66 | 226 | 1.7 | 7.0 | 0.00 | 0.00 | 0.00 | 80 | 1011.1 |
| 20260904052903 | 66 | 210 | 1.7 | 7.0 | 0.00 | 0.00 | 0.00 | 80 | 1011.1 |
| 20260904052802 | 66 | 217 | 1.7 | 7.0 | 0.00 | 0.00 | 0.00 | 80 | 1011.1 |
| 20260904052703 | 66 | 228 | 1.7 | 7.0 | 0.00 | 0.00 | 0.00 | 80 | 1011.1 |
| 20260904052604 | 66 | 221 | 1.7 | 7.0 | 0.00 | 0.00 | 0.00 | 80 | 1011.1 |
| 20260904052457 | 66 | 240 | 1.7 | 5.2 | 0.00 | 0.00 | 0.00 | 80 | 1011.1 |
| 20260904052357 | 66 | 248 | 1.7 | 5.2 | 0.00 | 0.00 | 0.00 | 80 | 1011.1 |
| 20260904052257 | 66 | 235 | 1.7 | 5.2 | 0.00 | 0.00 | 0.00 | 80 | 1011.1 |
| 20260904052157 | 66 | 233 | 1.7 | 5.2 | 0.00 | 0.00 | 0.00 | 81 | 1011.1 |
| 20260904052057 | 66 | 158 | 1.7 | 3.5 | 0.00 | 0.00 | 0.00 | 81 | 1011.1 |
| 20260904051956 | 66 | 152 | 1.7 | 3.5 | 0.00 | 0.00 | 0.00 | 81 | 1011.1 |
| 20260904051855 | 66 | 143 | 1.7 | 4.3 | 0.00 | 0.00 | 0.00 | 81 | 1011.1 |
| 20260904051755 | 66 | 224 | 1.7 | 4.3 | 0.00 | 0.00 | 0.00 | 81 | 1011.1 |
| 20260904051653 | 66 | 224 | 1.7 | 4.3 | 0.00 | 0.00 | 0.00 | 81 | 1011.1 |
| 20260904051550 | 66 | 154 | 1.7 | 4.3 | 0.00 | 0.00 | 0.00 | 81 | 1011.1 |
| 20260904051451 | 66 | 232 | 1.7 | 4.3 | 0.00 | 0.00 | 0.00 | 81 | 1011.1 |
| 20260904051349 | 66 | 242 | 1.7 | 4.3 | 0.00 | 0.00 | 0.00 | 81 | 1011.1 |
| 20260904051249 | 66 | 230 | 1.7 | 5.2 | 0.00 | 0.00 | 0.00 | 81 | 1011.1 |
| 20260904051148 | 66 | 238 | 1.7 | 5.2 | 0.00 | 0.00 | 0.00 | 80 | 1011.1 |
| 20260904051046 | 66 | 224 | 1.7 | 5.2 | 0.00 | 0.00 | 0.00 | 80 | 1011.1 |
| 20260904050941 | 66 | 235 | 1.7 | 5.2 | 0.00 | 0.00 | 0.00 | 80 | 1011.1 |
| 20260904050842 | 66 | 187 | 1.7 | 5.2 | 0.00 | 0.00 | 0.00 | 80 | 1011.2 |
| 20260904050759 | 66 | 232 | 2.6 | 6.1 | 0.00 | 0.00 | 0.00 | 80 | 1011.1 |
| 20260904050742 | 66 | 233 | 1.7 | 5.2 | 0.00 | 0.00 | 0.00 | 80 | 1011.1 |
| 20260904050655 | 66 | 232 | 1.7 | 6.1 | 0.00 | 0.00 | 0.00 | 80 | 1011.2 |
| 20260904050644 | 66 | 232 | 2.6 | 6.1 | 0.00 | 0.00 | 0.00 | 80 | 1011.1 |
| 20260904050435 | 66 | 214 | 2.6 | 6.1 | 0.00 | 0.00 | 0.00 | 80 | 1011.1 |
| 20260904050333 | 66 | 231 | 2.6 | 6.1 | 0.00 | 0.00 | 0.00 | 80 | 1011.1 |
| 20260904050320 | 66 | 219 | 2.6 | 6.1 | 0.00 | 0.00 | 0.00 | 80 | 1011.1 |
| 20260904050232 | 66 | 210 | 2.6 | 6.1 | 0.00 | 0.00 | 0.00 | 80 | 1011.1 |
| 20260904050203 | 66 | 223 | 2.6 | 6.1 | 0.00 | 0.00 | 0.00 | 80 | 1011.1 |
| 20260904050033 | 66 | 219 | 2.6 | 6.1 | 0.00 | 0.00 | 0.00 | 80 | 1011.1 |
| 20260904045929 | 66 | 190 | 2.6 | 6.1 | 0.00 | 0.00 | 0.00 | 80 | 1011.1 |
| 20260904045827 | 66 | 233 | 2.6 | 6.1 | 0.00 | 0.00 | 0.00 | 80 | 1011.0 |
| 20260904045727 | 66 | 221 | 2.6 | 6.1 | 0.00 | 0.00 | 0.00 | 80 | 1011.0 |
| 20260904045628 | 66 | 230 | 2.6 | 7.8 | 0.00 | 0.00 | 0.00 | 80 | 1011.0 |
| 20260904045538 | 66 | 243 | 2.6 | 7.8 | 0.00 | 0.00 | 0.00 | 80 | 1010.9 |
| 20260904045527 | 66 | 222 | 2.6 | 7.8 | 0.00 | 0.00 | 0.00 | 80 | 1010.9 |
| 20260904045421 | 67 | 242 | 2.6 | 7.8 | 0.00 | 0.00 | 0.00 | 80 | 1010.9 |
| 20260904045321 | 67 | 233 | 2.6 | 7.8 | 0.00 | 0.00 | 0.00 | 80 | 1010.9 |
| 20260904045221 | 67 | 236 | 2.6 | 7.8 | 0.00 | 0.00 | 0.00 | 79 | 1010.8 |
| 20260904045121 | 67 | 217 | 2.6 | 7.8 | 0.00 | 0.00 | 0.00 | 79 | 1010.9 |
| 20260904045037 | 67 | 232 | 1.7 | 7.8 | 0.00 | 0.00 | 0.00 | 79 | 1010.8 |
| 20260904045021 | 67 | 231 | 1.7 | 7.8 | 0.00 | 0.00 | 0.00 | 79 | 1010.8 |
| 20260904044915 | 67 | 232 | 1.7 | 7.8 | 0.00 | 0.00 | 0.00 | 79 | 1010.9 |
| 20260904044819 | 67 | 235 | 1.7 | 7.8 | 0.00 | 0.00 | 0.00 | 79 | 1010.9 |
| 20260904044715 | 67 | 216 | 1.7 | 7.8 | 0.00 | 0.00 | 0.00 | 79 | 1010.8 |
| 20260904044615 | 67 | 232 | 0.9 | 4.3 | 0.00 | 0.00 | 0.00 | 79 | 1010.9 |
| 20260904044537 | 67 | 165 | 0.9 | 4.3 | 0.00 | 0.00 | 0.00 | 79 | 1010.9 |
| 20260904044514 | 67 | 215 | 0.9 | 4.3 | 0.00 | 0.00 | 0.00 | 79 | 1010.9 |
| 20260904044411 | 67 | 142 | 0.9 | 3.5 | 0.00 | 0.00 | 0.00 | 79 | 1010.9 |
| 20260904044312 | 67 | 228 | 0.9 | 3.5 | 0.00 | 0.00 | 0.00 | 79 | 1010.9 |
| 20260904044211 | 67 | 246 | 0.9 | 3.5 | 0.00 | 0.00 | 0.00 | 80 | 1010.8 |
| 20260904044111 | 67 | 235 | 0.9 | 3.5 | 0.00 | 0.00 | 0.00 | 79 | 1010.9 |
| 20260904044035 | 67 | 235 | 0.9 | 3.5 | 0.00 | 0.00 | 0.00 | 79 | 1010.9 |
| 20260904044009 | 67 | 242 | 0.9 | 3.5 | 0.00 | 0.00 | 0.00 | 79 | 1010.9 |
| 20260904043908 | 67 | 240 | 0.9 | 4.3 | 0.00 | 0.00 | 0.00 | 79 | 1010.9 |
| 20260904043807 | 67 | 238 | 0.9 | 4.3 | 0.00 | 0.00 | 0.00 | 79 | 1010.9 |
| 20260904043707 | 67 | 233 | 0.9 | 4.3 | 0.00 | 0.00 | 0.00 | 79 | 1010.9 |
| 20260904043605 | 67 | 250 | 0.9 | 4.3 | 0.00 | 0.00 | 0.00 | 79 | 1011.0 |
| 20260904043533 | 67 | 231 | 0.9 | 4.3 | 0.00 | 0.00 | 0.00 | 79 | 1011.0 |
| 20260904043502 | 67 | 231 | 0.9 | 4.3 | 0.00 | 0.00 | 0.00 | 79 | 1010.9 |
| 20260904043359 | 67 | 232 | 0.9 | 4.3 | 0.00 | 0.00 | 0.00 | 79 | 1011.0 |
| 20260904043257 | 67 | 238 | 0.9 | 4.3 | 0.00 | 0.00 | 0.00 | 79 | 1011.0 |
| 20260904043157 | 67 | 232 | 0.9 | 4.3 | 0.00 | 0.00 | 0.00 | 79 | 1011.0 |
| 20260904043056 | 67 | 248 | 0.9 | 5.2 | 0.00 | 0.00 | 0.00 | 79 | 1011.0 |
| 20260904043033 | 67 | 228 | 0.9 | 5.2 | 0.00 | 0.00 | 0.00 | 79 | 1011.0 |
| 20260904042956 | 67 | 269 | 0.9 | 5.2 | 0.00 | 0.00 | 0.00 | 79 | 1011.0 |
| 20260904042856 | 67 | 241 | 0.9 | 7.0 | 0.00 | 0.00 | 0.00 | 79 | 1011.0 |
| 20260904042755 | 67 | 225 | 1.7 | 7.0 | 0.00 | 0.00 | 0.00 | 79 | 1011.0 |
| 20260904042656 | 67 | 225 | 1.7 | 7.0 | 0.00 | 0.00 | 0.00 | 79 | 1011.0 |
| 20260904042533 | 67 | 225 | 1.7 | 7.0 | 0.00 | 0.00 | 0.00 | 79 | 1011.0 |
| 20260904042450 | 67 | 214 | 1.7 | 7.0 | 0.00 | 0.00 | 0.00 | 79 | 1011.0 |
| 20260904042345 | 67 | 193 | 1.7 | 7.0 | 0.00 | 0.00 | 0.00 | 79 | 1011.0 |
| 20260904042252 | 67 | 242 | 1.7 | 7.0 | 0.00 | 0.00 | 0.00 | 79 | 1011.0 |
| 20260904042245 | 67 | 250 | 1.7 | 7.0 | 0.00 | 0.00 | 0.00 | 79 | 1011.0 |
| 20260904042148 | 67 | 240 | 1.7 | 7.0 | 0.00 | 0.00 | 0.00 | 79 | 1011.0 |
| 20260904042139 | 67 | 228 | 1.7 | 7.0 | 0.00 | 0.00 | 0.00 | 79 | 1011.0 |
| 20260904041944 | 67 | 231 | 1.7 | 7.0 | 0.00 | 0.00 | 0.00 | 79 | 1011.0 |
| 20260904041843 | 67 | 250 | 0.9 | 5.2 | 0.00 | 0.00 | 0.00 | 79 | 1011.0 |
| 20260904041743 | 67 | 207 | 0.9 | 5.2 | 0.00 | 0.00 | 0.00 | 79 | 1011.0 |
| 20260904041644 | 67 | 226 | 0.9 | 2.6 | 0.00 | 0.00 | 0.00 | 79 | 1011.0 |
| 20260904041529 | 67 | 207 | 0.9 | 2.6 | 0.00 | 0.00 | 0.00 | 79 | 1011.0 |
| 20260904041439 | 67 | 232 | 0.9 | 2.6 | 0.00 | 0.00 | 0.00 | 79 | 1010.9 |
| 20260904041335 | 67 | 233 | 0.9 | 2.6 | 0.00 | 0.00 | 0.00 | 79 | 1011.0 |
| 20260904041232 | 67 | 231 | 0.9 | 2.6 | 0.00 | 0.00 | 0.00 | 79 | 1010.9 |
| 20260904041134 | 67 | 235 | 0.9 | 2.6 | 0.00 | 0.00 | 0.00 | 79 | 1010.9 |
| 20260904041035 | 67 | 238 | 0.0 | 2.6 | 0.00 | 0.00 | 0.00 | 79 | 1010.9 |
| 20260904041027 | 67 | 239 | 0.0 | 2.6 | 0.00 | 0.00 | 0.00 | 79 | 1010.9 |
| 20260904040933 | 67 | 231 | 0.0 | 2.6 | 0.00 | 0.00 | 0.00 | 80 | 1010.9 |
| 20260904040833 | 67 | 262 | 0.0 | 2.6 | 0.00 | 0.00 | 0.00 | 80 | 1010.9 |
| 20260904040752 | 67 | 242 | 0.0 | 0.9 | 0.00 | 0.00 | 0.00 | 80 | 1010.9 |
| 20260904040731 | 67 | 241 | 0.0 | 0.9 | 0.00 | 0.00 | 0.00 | 80 | 1010.9 |
| 20260904040644 | 67 | 241 | 0.0 | 0.9 | 0.00 | 0.00 | 0.00 | 80 | 1011.0 |
| 20260904040633 | 67 | 242 | 0.0 | 0.9 | 0.00 | 0.00 | 0.00 | 80 | 1010.9 |
| 20260904040426 | 67 | 242 | 0.0 | 0.9 | 0.00 | 0.00 | 0.00 | 80 | 1010.9 |
| 20260904040323 | 67 | 242 | 0.0 | 1.7 | 0.00 | 0.00 | 0.00 | 80 | 1010.9 |
| 20260904040221 | 67 | 242 | 0.0 | 3.5 | 0.00 | 0.00 | 0.00 | 80 | 1010.8 |
| 20260904040121 | 67 | 248 | 0.0 | 3.5 | 0.00 | 0.00 | 0.00 | 80 | 1010.9 |
| 20260904040028 | 67 | 246 | 0.0 | 3.5 | 0.00 | 0.00 | 0.00 | 80 | 1010.9 |
| 20260904040021 | 67 | 245 | 0.0 | 3.5 | 0.00 | 0.00 | 0.00 | 80 | 1010.9 |
| 20260904035921 | 67 | 246 | 0.0 | 3.5 | 0.00 | 0.00 | 0.00 | 80 | 1010.9 |
| 20260904035820 | 67 | 246 | 0.0 | 3.5 | 0.00 | 0.00 | 0.00 | 80 | 1010.9 |
| 20260904035719 | 67 | 246 | 0.0 | 3.5 | 0.00 | 0.00 | 0.00 | 80 | 1010.9 |
| 20260904035618 | 67 | 248 | 0.0 | 3.5 | 0.00 | 0.00 | 0.00 | 80 | 1010.9 |
| 20260904035516 | 67 | 246 | 0.0 | 3.5 | 0.00 | 0.00 | 0.00 | 80 | 1010.9 |
| 20260904035415 | 67 | 248 | 0.0 | 3.5 | 0.00 | 0.00 | 0.00 | 80 | 1010.9 |
| 20260904035309 | 67 | 231 | 0.0 | 2.6 | 0.00 | 0.00 | 0.00 | 80 | 1010.9 |
| 20260904035209 | 67 | 243 | 0.0 | 3.5 | 0.00 | 0.00 | 0.00 | 80 | 1010.9 |
| 20260904035108 | 67 | 243 | 0.0 | 3.5 | 0.00 | 0.00 | 0.00 | 80 | 1010.9 |
| 20260904035009 | 67 | 243 | 0.0 | 3.5 | 0.00 | 0.00 | 0.00 | 80 | 1010.9 |
| 20260904034908 | 67 | 243 | 0.0 | 3.5 | 0.00 | 0.00 | 0.00 | 80 | 1010.9 |
| 20260904034802 | 67 | 243 | 0.0 | 3.5 | 0.00 | 0.00 | 0.00 | 80 | 1011.0 |
| 20260904034703 | 67 | 243 | 0.0 | 3.5 | 0.00 | 0.00 | 0.00 | 80 | 1010.9 |
| 20260904034603 | 67 | 243 | 0.0 | 3.5 | 0.00 | 0.00 | 0.00 | 80 | 1010.9 |
| 20260904034504 | 67 | 243 | 0.0 | 3.5 | 0.00 | 0.00 | 0.00 | 80 | 1010.9 |
| 20260904034402 | 67 | 239 | 0.0 | 3.5 | 0.00 | 0.00 | 0.00 | 80 | 1010.9 |
| 20260904034259 | 67 | 241 | 0.0 | 3.5 | 0.00 | 0.00 | 0.00 | 80 | 1010.9 |
| 20260904034159 | 67 | 241 | 0.0 | 2.6 | 0.00 | 0.00 | 0.00 | 80 | 1010.9 |
| 20260904034059 | 67 | 242 | 0.0 | 2.6 | 0.00 | 0.00 | 0.00 | 80 | 1010.9 |
| 20260904034021 | 67 | 241 | 0.0 | 2.6 | 0.00 | 0.00 | 0.00 | 80 | 1010.9 |
| 20260904033959 | 67 | 242 | 0.0 | 2.6 | 0.00 | 0.00 | 0.00 | 80 | 1010.9 |
| 20260904033856 | 67 | 242 | 0.0 | 2.6 | 0.00 | 0.00 | 0.00 | 80 | 1010.9 |
| 20260904033753 | 67 | 235 | 0.0 | 3.5 | 0.00 | 0.00 | 0.00 | 80 | 1010.9 |
| 20260904033652 | 67 | 204 | 0.0 | 3.5 | 0.00 | 0.00 | 0.00 | 80 | 1010.9 |
| 20260904033521 | 67 | 204 | 0.9 | 3.5 | 0.00 | 0.00 | 0.00 | 80 | 1010.8 |
| 20260904033451 | 67 | 236 | 0.9 | 3.5 | 0.00 | 0.00 | 0.00 | 80 | 1010.9 |
| 20260904033350 | 67 | 236 | 0.9 | 3.5 | 0.00 | 0.00 | 0.00 | 80 | 1010.9 |
| 20260904033251 | 67 | 236 | 0.9 | 3.5 | 0.00 | 0.00 | 0.00 | 80 | 1010.9 |
| 20260904033148 | 67 | 236 | 0.9 | 3.5 | 0.00 | 0.00 | 0.00 | 80 | 1010.8 |
| 20260904033020 | 67 | 236 | 0.9 | 3.5 | 0.00 | 0.00 | 0.00 | 80 | 1010.8 |
| 20260904032947 | 67 | 236 | 0.9 | 3.5 | 0.00 | 0.00 | 0.00 | 80 | 1010.8 |
| 20260904032844 | 67 | 236 | 0.9 | 6.1 | 0.00 | 0.00 | 0.00 | 80 | 1010.8 |
| 20260904032740 | 67 | 239 | 0.9 | 6.1 | 0.00 | 0.00 | 0.00 | 80 | 1010.8 |
| 20260904032641 | 67 | 253 | 0.9 | 6.1 | 0.00 | 0.00 | 0.00 | 80 | 1010.8 |
| 20260904032541 | 67 | 235 | 0.9 | 6.1 | 0.00 | 0.00 | 0.00 | 80 | 1010.8 |
| 20260904032518 | 67 | 236 | 0.9 | 6.1 | 0.00 | 0.00 | 0.00 | 80 | 1010.8 |
| 20260904032440 | 67 | 239 | 0.9 | 6.1 | 0.00 | 0.00 | 0.00 | 80 | 1010.7 |
| 20260904032336 | 67 | 250 | 0.9 | 6.1 | 0.00 | 0.00 | 0.00 | 80 | 1010.7 |
| 20260904032231 | 67 | 250 | 0.9 | 6.1 | 0.00 | 0.00 | 0.00 | 80 | 1010.7 |
| 20260904032130 | 67 | 229 | 0.0 | 6.1 | 0.00 | 0.00 | 0.00 | 79 | 1010.7 |
| 20260904032031 | 67 | 232 | 0.0 | 6.1 | 0.00 | 0.00 | 0.00 | 79 | 1010.7 |
| 20260904032013 | 67 | 232 | 0.0 | 6.1 | 0.00 | 0.00 | 0.00 | 79 | 1010.6 |
| 20260904031931 | 67 | 240 | 0.0 | 6.1 | 0.00 | 0.00 | 0.00 | 79 | 1010.6 |
| 20260904031830 | 67 | 257 | 0.0 | 1.7 | 0.00 | 0.00 | 0.00 | 79 | 1010.6 |
| 20260904031726 | 67 | 243 | 0.0 | 2.6 | 0.00 | 0.00 | 0.00 | 79 | 1010.7 |
| 20260904031626 | 67 | 243 | 0.0 | 2.6 | 0.00 | 0.00 | 0.00 | 79 | 1010.6 |
| 20260904031525 | 67 | 245 | 0.9 | 3.5 | 0.00 | 0.00 | 0.00 | 79 | 1010.6 |
| 20260904031507 | 67 | 243 | 0.9 | 3.5 | 0.00 | 0.00 | 0.00 | 79 | 1010.5 |
| 20260904031425 | 67 | 243 | 0.9 | 3.5 | 0.00 | 0.00 | 0.00 | 79 | 1010.5 |
| 20260904031324 | 67 | 233 | 0.9 | 3.5 | 0.00 | 0.00 | 0.00 | 79 | 1010.5 |
| 20260904031223 | 67 | 239 | 0.9 | 3.5 | 0.00 | 0.00 | 0.00 | 79 | 1010.5 |
| 20260904031217 | 67 | 239 | 0.0 | 3.5 | 0.00 | 0.00 | 0.00 | 79 | 1010.5 |
| 20260904031126 | 67 | 239 | 0.9 | 3.5 | 0.00 | 0.00 | 0.00 | 79 | 1010.5 |
| 20260904031023 | 67 | 239 | 0.9 | 3.5 | 0.00 | 0.00 | 0.00 | 79 | 1010.5 |
| 20260904030921 | 67 | 231 | 0.0 | 3.5 | 0.00 | 0.00 | 0.00 | 79 | 1010.5 |
| 20260904030818 | 67 | 231 | 0.0 | 3.5 | 0.00 | 0.00 | 0.00 | 79 | 1010.5 |
| 20260904030723 | 67 | 233 | 0.0 | 1.7 | 0.00 | 0.00 | 0.00 | 79 | 1010.5 |
| 20260904030715 | 67 | 245 | 0.0 | 3.5 | 0.00 | 0.00 | 0.00 | 79 | 1010.5 |
| 20260904030613 | 67 | 217 | 0.0 | 3.5 | 0.00 | 0.00 | 0.00 | 80 | 1010.5 |
| 20260904030602 | 67 | 233 | 0.0 | 1.7 | 0.00 | 0.00 | 0.00 | 80 | 1010.5 |
| 20260904030413 | 67 | 233 | 0.0 | 2.6 | 0.00 | 0.00 | 0.00 | 79 | 1010.5 |
| 20260904030312 | 67 | 233 | 0.9 | 3.5 | 0.00 | 0.00 | 0.00 | 79 | 1010.4 |
| 20260904030216 | 67 | 232 | 0.9 | 7.8 | 0.00 | 0.00 | 0.00 | 79 | 1010.4 |
| 20260904030209 | 67 | 233 | 0.9 | 7.8 | 0.00 | 0.00 | 0.00 | 79 | 1010.5 |
| 20260904030107 | 67 | 233 | 0.9 | 7.8 | 0.00 | 0.00 | 0.00 | 79 | 1010.4 |
| 20260904030059 | 67 | 232 | 0.9 | 7.8 | 0.00 | 0.00 | 0.00 | 79 | 1010.4 |
| 20260904025907 | 67 | 232 | 0.9 | 7.8 | 0.00 | 0.00 | 0.00 | 79 | 1010.4 |
| 20260904025810 | 67 | 232 | 0.9 | 7.8 | 0.00 | 0.00 | 0.00 | 79 | 1010.4 |
| 20260904025705 | 67 | 259 | 0.9 | 7.8 | 0.00 | 0.00 | 0.00 | 79 | 1010.4 |
| 20260904025701 | 67 | 233 | 0.9 | 7.8 | 0.00 | 0.00 | 0.00 | 79 | 1010.4 |
| 20260904025600 | 67 | 232 | 0.9 | 7.8 | 0.00 | 0.00 | 0.00 | 79 | 1010.4 |
| 20260904025550 | 67 | 179 | 0.9 | 7.8 | 0.00 | 0.00 | 0.00 | 79 | 1010.4 |
| 20260904025401 | 67 | 219 | 0.9 | 7.8 | 0.00 | 0.00 | 0.00 | 79 | 1010.4 |
| 20260904025300 | 67 | 280 | 0.9 | 7.8 | 0.00 | 0.00 | 0.00 | 79 | 1010.4 |
| 20260904025158 | 67 | 235 | 0.9 | 9.6 | 0.00 | 0.00 | 0.00 | 79 | 1010.4 |
| 20260904025055 | 67 | 235 | 1.7 | 9.6 | 0.00 | 0.00 | 0.00 | 79 | 1010.4 |
| 20260904024954 | 67 | 226 | 1.7 | 9.6 | 0.00 | 0.00 | 0.00 | 79 | 1010.4 |
| 20260904024936 | 67 | 212 | 1.7 | 9.6 | 0.00 | 0.00 | 0.00 | 79 | 1010.4 |
| 20260904024855 | 67 | 212 | 1.7 | 9.6 | 0.00 | 0.00 | 0.00 | 79 | 1010.4 |
| 20260904024754 | 67 | 233 | 1.7 | 9.6 | 0.00 | 0.00 | 0.00 | 79 | 1010.4 |
| 20260904024655 | 67 | 245 | 1.7 | 9.6 | 0.00 | 0.00 | 0.00 | 79 | 1010.5 |
| 20260904024553 | 67 | 253 | 1.7 | 9.6 | 0.00 | 0.00 | 0.00 | 79 | 1010.5 |
| 20260904024453 | 67 | 290 | 1.7 | 9.6 | 0.00 | 0.00 | 0.00 | 79 | 1010.5 |
| 20260904024430 | 67 | 311 | 1.7 | 10.4 | 0.00 | 0.00 | 0.00 | 79 | 1010.5 |
| 20260904024352 | 68 | 232 | 1.7 | 10.4 | 0.00 | 0.00 | 0.00 | 79 | 1010.5 |
| 20260904024248 | 68 | 240 | 1.7 | 10.4 | 0.00 | 0.00 | 0.00 | 80 | 1010.5 |
| 20260904024144 | 68 | 250 | 1.7 | 10.4 | 0.00 | 0.00 | 0.00 | 80 | 1010.4 |
| 20260904024043 | 68 | 229 | 1.7 | 10.4 | 0.00 | 0.00 | 0.00 | 80 | 1010.5 |
| 20260904023943 | 68 | 224 | 1.7 | 10.4 | 0.00 | 0.00 | 0.00 | 80 | 1010.5 |
| 20260904023924 | 68 | 284 | 1.7 | 10.4 | 0.00 | 0.00 | 0.00 | 80 | 1010.5 |
| 20260904023842 | 68 | 281 | 1.7 | 10.4 | 0.00 | 0.00 | 0.00 | 80 | 1010.6 |
| 20260904023742 | 68 | 248 | 1.7 | 10.4 | 0.00 | 0.00 | 0.00 | 80 | 1010.5 |
| 20260904023647 | 68 | 234 | 1.7 | 6.1 | 0.00 | 0.00 | 0.00 | 79 | 1010.6 |
| 20260904023634 | 68 | 258 | 1.7 | 10.4 | 0.00 | 0.00 | 0.00 | 80 | 1010.5 |
| 20260904023541 | 68 | 257 | 1.7 | 10.4 | 0.00 | 0.00 | 0.00 | 79 | 1010.5 |
| 20260904023532 | 68 | 193 | 1.7 | 6.1 | 0.00 | 0.00 | 0.00 | 79 | 1010.6 |
| 20260904023333 | 68 | 243 | 1.7 | 6.1 | 0.00 | 0.00 | 0.00 | 79 | 1010.6 |
| 20260904023232 | 68 | 276 | 1.7 | 8.7 | 0.00 | 0.00 | 0.00 | 79 | 1010.6 |
| 20260904023147 | 68 | 214 | 2.6 | 8.7 | 0.00 | 0.00 | 0.00 | 79 | 1010.6 |
| 20260904023133 | 68 | 276 | 1.7 | 8.7 | 0.00 | 0.00 | 0.00 | 79 | 1010.6 |
| 20260904023041 | 68 | 273 | 1.7 | 8.7 | 0.00 | 0.00 | 0.00 | 79 | 1010.6 |
| 20260904023033 | 68 | 219 | 2.6 | 8.7 | 0.00 | 0.00 | 0.00 | 79 | 1010.6 |
| 20260904022829 | 68 | 228 | 1.7 | 8.7 | 0.00 | 0.00 | 0.00 | 79 | 1010.6 |
| 20260904022727 | 68 | 335 | 1.7 | 8.7 | 0.00 | 0.00 | 0.00 | 79 | 1010.6 |
| 20260904022626 | 68 | 280 | 1.7 | 8.7 | 0.00 | 0.00 | 0.00 | 79 | 1010.6 |
| 20260904022521 | 68 | 239 | 1.7 | 8.7 | 0.00 | 0.00 | 0.00 | 79 | 1010.5 |
| 20260904022421 | 68 | 298 | 2.6 | 10.4 | 0.00 | 0.00 | 0.00 | 79 | 1010.6 |
| 20260904022321 | 68 | 231 | 2.6 | 10.4 | 0.00 | 0.00 | 0.00 | 79 | 1010.5 |
| 20260904022220 | 68 | 223 | 1.7 | 10.4 | 0.00 | 0.00 | 0.00 | 79 | 1010.5 |
| 20260904022115 | 68 | 302 | 1.7 | 10.4 | 0.00 | 0.00 | 0.00 | 78 | 1010.5 |
| 20260904022015 | 68 | 253 | 1.7 | 10.4 | 0.00 | 0.00 | 0.00 | 78 | 1010.5 |
| 20260904021923 | 68 | 226 | 1.7 | 10.4 | 0.00 | 0.00 | 0.00 | 78 | 1010.5 |
| 20260904021915 | 68 | 257 | 1.7 | 10.4 | 0.00 | 0.00 | 0.00 | 78 | 1010.5 |
| 20260904021815 | 68 | 284 | 1.7 | 10.4 | 0.00 | 0.00 | 0.00 | 78 | 1010.6 |
| 20260904021714 | 68 | 219 | 1.7 | 10.4 | 0.00 | 0.00 | 0.00 | 78 | 1010.6 |
| 20260904021611 | 68 | 224 | 1.7 | 10.4 | 0.00 | 0.00 | 0.00 | 78 | 1010.5 |
| 20260904021509 | 68 | 255 | 1.7 | 10.4 | 0.00 | 0.00 | 0.00 | 78 | 1010.6 |
| 20260904021422 | 68 | 302 | 1.7 | 7.0 | 0.00 | 0.00 | 0.00 | 77 | 1010.6 |
| 20260904021410 | 68 | 262 | 1.7 | 7.0 | 0.00 | 0.00 | 0.00 | 77 | 1010.5 |
| 20260904021310 | 68 | 256 | 1.7 | 7.0 | 0.00 | 0.00 | 0.00 | 77 | 1010.5 |
| 20260904021209 | 69 | 159 | 1.7 | 7.0 | 0.00 | 0.00 | 0.00 | 77 | 1010.6 |
| 20260904021103 | 69 | 250 | 0.9 | 7.0 | 0.00 | 0.00 | 0.00 | 77 | 1010.6 |
| 20260904021004 | 69 | 246 | 0.9 | 6.1 | 0.00 | 0.00 | 0.00 | 77 | 1010.6 |
| 20260904020926 | 69 | 274 | 0.9 | 4.3 | 0.00 | 0.00 | 0.00 | 77 | 1010.6 |
| 20260904020903 | 69 | 225 | 0.9 | 4.3 | 0.00 | 0.00 | 0.00 | 77 | 1010.6 |
| 20260904020803 | 69 | 170 | 0.9 | 4.3 | 0.00 | 0.00 | 0.00 | 77 | 1010.6 |
| 20260904020703 | 69 | 318 | 0.9 | 4.3 | 0.00 | 0.00 | 0.00 | 77 | 1010.6 |
| 20260904020559 | 69 | 282 | 0.9 | 4.3 | 0.00 | 0.00 | 0.00 | 76 | 1010.6 |
| 20260904020457 | 69 | 285 | 0.9 | 7.0 | 0.00 | 0.00 | 0.00 | 76 | 1010.6 |
| 20260904020424 | 69 | 284 | 0.9 | 7.0 | 0.00 | 0.00 | 0.00 | 76 | 1010.6 |
| 20260904020357 | 69 | 284 | 0.9 | 7.0 | 0.00 | 0.00 | 0.00 | 76 | 1010.7 |
| 20260904020257 | 69 | 270 | 0.9 | 7.0 | 0.00 | 0.00 | 0.00 | 76 | 1010.7 |
| 20260904020156 | 69 | 277 | 0.9 | 7.0 | 0.00 | 0.00 | 0.00 | 76 | 1010.7 |
| 20260904020055 | 69 | 259 | 1.7 | 7.0 | 0.00 | 0.00 | 0.00 | 76 | 1010.7 |
| 20260904015954 | 69 | 258 | 1.7 | 7.0 | 0.00 | 0.00 | 0.00 | 76 | 1010.7 |
| 20260904015919 | 69 | 259 | 1.7 | 7.0 | 0.00 | 0.00 | 0.00 | 75 | 1010.7 |
| 20260904015852 | 69 | 259 | 1.7 | 7.0 | 0.00 | 0.00 | 0.00 | 75 | 1010.7 |
| 20260904015753 | 69 | 273 | 1.7 | 7.0 | 0.00 | 0.00 | 0.00 | 75 | 1010.7 |
| 20260904015650 | 69 | 228 | 1.7 | 7.0 | 0.00 | 0.00 | 0.00 | 75 | 1010.7 |
| 20260904015549 | 69 | 284 | 1.7 | 7.0 | 0.00 | 0.00 | 0.00 | 75 | 1010.8 |
| 20260904015446 | 69 | 233 | 1.7 | 6.1 | 0.00 | 0.00 | 0.00 | 75 | 1010.8 |
| 20260904015419 | 69 | 226 | 1.7 | 6.1 | 0.00 | 0.00 | 0.00 | 75 | 1010.8 |
| 20260904015413 | 69 | 252 | 1.7 | 8.7 | 0.00 | 0.00 | 0.00 | 74 | 1010.8 |
| 20260904015346 | 69 | 232 | 1.7 | 6.1 | 0.00 | 0.00 | 0.00 | 75 | 1010.8 |
| 20260904015256 | 69 | 271 | 1.7 | 6.1 | 0.00 | 0.00 | 0.00 | 75 | 1010.8 |
| 20260904015143 | 69 | 282 | 1.7 | 6.1 | 0.00 | 0.00 | 0.00 | 74 | 1010.8 |
| 20260904015037 | 69 | 312 | 1.7 | 6.1 | 0.00 | 0.00 | 0.00 | 74 | 1010.8 |
| 20260904015025 | 69 | 225 | 1.7 | 8.7 | 0.00 | 0.00 | 0.00 | 74 | 1010.8 |
| 20260904014837 | 69 | 246 | 1.7 | 8.7 | 0.00 | 0.00 | 0.00 | 74 | 1010.8 |
| 20260904014737 | 69 | 270 | 1.7 | 8.7 | 0.00 | 0.00 | 0.00 | 74 | 1010.7 |
| 20260904014634 | 70 | 245 | 1.7 | 8.7 | 0.00 | 0.00 | 0.00 | 74 | 1010.7 |
| 20260904014536 | 70 | 305 | 1.7 | 8.7 | 0.00 | 0.00 | 0.00 | 74 | 1010.7 |
| 20260904014417 | 70 | 253 | 1.7 | 8.7 | 0.00 | 0.00 | 0.00 | 74 | 1010.7 |
| 20260904014331 | 70 | 233 | 1.7 | 8.7 | 0.00 | 0.00 | 0.00 | 74 | 1010.7 |
| 20260904014231 | 70 | 243 | 1.7 | 8.7 | 0.00 | 0.00 | 0.00 | 74 | 1010.7 |
| 20260904014129 | 70 | 205 | 0.9 | 8.7 | 0.00 | 0.00 | 0.00 | 74 | 1010.7 |
| 20260904014023 | 70 | 296 | 0.9 | 8.7 | 0.00 | 0.00 | 0.00 | 74 | 1010.7 |
| 20260904013924 | 70 | 242 | 0.9 | 7.0 | 0.00 | 0.00 | 0.00 | 74 | 1010.7 |
| 20260904013916 | 70 | 239 | 0.9 | 7.0 | 0.00 | 0.00 | 0.00 | 74 | 1010.7 |
| 20260904013823 | 70 | 239 | 0.9 | 7.0 | 0.00 | 0.00 | 0.00 | 74 | 1010.7 |
| 20260904013722 | 70 | 242 | 0.9 | 7.0 | 0.00 | 0.00 | 0.00 | 74 | 1010.6 |
| 20260904013625 | 70 | 217 | 0.9 | 7.0 | 0.00 | 0.00 | 0.00 | 74 | 1010.7 |
| 20260904013519 | 70 | 232 | 0.9 | 7.0 | 0.00 | 0.00 | 0.00 | 74 | 1010.8 |
| 20260904013418 | 70 | 248 | 0.9 | 7.0 | 0.00 | 0.00 | 0.00 | 74 | 1010.7 |
| 20260904013317 | 70 | 290 | 0.9 | 6.1 | 0.00 | 0.00 | 0.00 | 74 | 1010.6 |
| 20260904013218 | 70 | 311 | 0.9 | 6.1 | 0.00 | 0.00 | 0.00 | 74 | 1010.7 |
| 20260904013115 | 70 | 335 | 0.9 | 6.1 | 0.00 | 0.00 | 0.00 | 74 | 1010.7 |
| 20260904013008 | 70 | 312 | 0.9 | 6.1 | 0.00 | 0.00 | 0.00 | 74 | 1010.7 |
| 20260904012916 | 70 | 311 | 0.9 | 6.1 | 0.00 | 0.00 | 0.00 | 74 | 1010.7 |
| 20260904012909 | 70 | 312 | 1.7 | 6.1 | 0.00 | 0.00 | 0.00 | 74 | 1010.7 |
| 20260904012807 | 70 | 311 | 1.7 | 7.0 | 0.00 | 0.00 | 0.00 | 74 | 1010.8 |
| 20260904012708 | 70 | 304 | 1.7 | 7.0 | 0.00 | 0.00 | 0.00 | 74 | 1010.8 |
| 20260904012607 | 70 | 266 | 1.7 | 7.0 | 0.00 | 0.00 | 0.00 | 74 | 1010.8 |
| 20260904012503 | 70 | 235 | 1.7 | 7.0 | 0.00 | 0.00 | 0.00 | 74 | 1010.8 |
| 20260904012417 | 70 | 243 | 1.7 | 7.0 | 0.00 | 0.00 | 0.00 | 74 | 1010.8 |
| 20260904012403 | 70 | 231 | 1.7 | 7.0 | 0.00 | 0.00 | 0.00 | 74 | 1010.8 |
| 20260904012306 | 70 | 239 | 1.7 | 7.0 | 0.00 | 0.00 | 0.00 | 74 | 1010.8 |
| 20260904012204 | 70 | 273 | 1.7 | 7.0 | 0.00 | 0.00 | 0.00 | 74 | 1010.8 |
| 20260904012100 | 70 | 273 | 1.7 | 7.0 | 0.00 | 0.00 | 0.00 | 73 | 1010.9 |
| 20260904011927 | 70 | 273 | 1.7 | 7.0 | 0.00 | 0.00 | 0.00 | 73 | 1010.9 |
| 20260904011853 | 70 | 239 | 1.7 | 7.0 | 0.00 | 0.00 | 0.00 | 73 | 1010.9 |
| 20260904011752 | 70 | 245 | 1.7 | 7.0 | 0.00 | 0.00 | 0.00 | 73 | 1010.8 |
| 20260904011653 | 70 | 235 | 1.7 | 7.0 | 0.00 | 0.00 | 0.00 | 73 | 1010.9 |
| 20260904011552 | 70 | 269 | 1.7 | 7.0 | 0.00 | 0.00 | 0.00 | 73 | 1010.9 |
| 20260904011450 | 70 | 250 | 0.9 | 5.2 | 0.00 | 0.00 | 0.00 | 73 | 1010.9 |
| 20260904011422 | 70 | 240 | 0.9 | 5.2 | 0.00 | 0.00 | 0.00 | 73 | 1010.9 |
| 20260904011349 | 70 | 257 | 0.9 | 5.2 | 0.00 | 0.00 | 0.00 | 73 | 1010.9 |
| 20260904011249 | 70 | 245 | 0.9 | 5.2 | 0.00 | 0.00 | 0.00 | 73 | 1010.9 |
| 20260904011147 | 70 | 301 | 0.9 | 5.2 | 0.00 | 0.00 | 0.00 | 73 | 1010.9 |
| 20260904011045 | 71 | 253 | 1.7 | 8.7 | 0.00 | 0.00 | 0.00 | 73 | 1010.9 |
| 20260904010941 | 71 | 240 | 1.7 | 8.7 | 0.00 | 0.00 | 0.00 | 73 | 1010.9 |
| 20260904010909 | 71 | 321 | 1.7 | 8.7 | 0.00 | 0.00 | 0.00 | 73 | 1010.9 |
| 20260904010838 | 71 | 350 | 1.7 | 8.7 | 0.00 | 0.00 | 0.00 | 72 | 1010.9 |
| 20260904010739 | 71 | 311 | 1.7 | 8.7 | 0.00 | 0.00 | 0.00 | 72 | 1010.9 |
| 20260904010638 | 71 | 233 | 1.7 | 8.7 | 0.00 | 0.00 | 0.00 | 72 | 1010.9 |
| 20260904010536 | 71 | 240 | 1.7 | 8.7 | 0.00 | 0.00 | 0.00 | 72 | 1010.9 |
| 20260904010410 | 71 | 240 | 1.7 | 8.7 | 0.00 | 0.00 | 0.00 | 72 | 1010.9 |
| 20260904010331 | 71 | 241 | 1.7 | 8.7 | 0.00 | 0.00 | 0.00 | 72 | 1010.9 |
| 20260904010232 | 71 | 264 | 1.7 | 8.7 | 0.00 | 0.00 | 0.00 | 72 | 1010.9 |
| 20260904010132 | 71 | 245 | 1.7 | 8.7 | 0.00 | 0.00 | 0.00 | 72 | 1011.0 |
| 20260904010030 | 71 | 256 | 1.7 | 4.3 | 0.00 | 0.00 | 0.00 | 71 | 1011.0 |
| 20260904005929 | 71 | 339 | 1.7 | 4.3 | 0.00 | 0.00 | 0.00 | 72 | 1011.0 |
| 20260904005911 | 71 | 319 | 1.7 | 4.3 | 0.00 | 0.00 | 0.00 | 72 | 1011.0 |
| 20260904005827 | 71 | 294 | 1.7 | 4.3 | 0.00 | 0.00 | 0.00 | 72 | 1011.0 |
| 20260904005727 | 71 | 256 | 1.7 | 4.3 | 0.00 | 0.00 | 0.00 | 71 | 1011.0 |
| 20260904005626 | 71 | 260 | 0.9 | 4.3 | 0.00 | 0.00 | 0.00 | 71 | 1011.0 |
| 20260904005523 | 71 | 238 | 0.9 | 4.3 | 0.00 | 0.00 | 0.00 | 71 | 1011.0 |
| 20260904005410 | 71 | 301 | 1.7 | 4.3 | 0.00 | 0.00 | 0.00 | 71 | 1011.0 |
| 20260904005318 | 71 | 294 | 1.7 | 6.1 | 0.00 | 0.00 | 0.00 | 71 | 1011.0 |
| 20260904005217 | 71 | 310 | 1.7 | 6.1 | 0.00 | 0.00 | 0.00 | 71 | 1011.0 |
| 20260904005132 | 71 | 203 | 1.7 | 6.1 | 0.00 | 0.00 | 0.00 | 70 | 1011.0 |
| 20260904005117 | 71 | 184 | 1.7 | 6.1 | 0.00 | 0.00 | 0.00 | 71 | 1011.0 |
| 20260904005025 | 71 | 229 | 1.7 | 6.1 | 0.00 | 0.00 | 0.00 | 70 | 1011.0 |
| 20260904005015 | 71 | 203 | 1.7 | 6.1 | 0.00 | 0.00 | 0.00 | 70 | 1011.0 |
| 20260904004808 | 71 | 207 | 1.7 | 6.1 | 0.00 | 0.00 | 0.00 | 70 | 1011.0 |
| 20260904004710 | 71 | 277 | 1.7 | 6.1 | 0.00 | 0.00 | 0.00 | 70 | 1010.9 |
| 20260904004607 | 72 | 253 | 0.9 | 6.1 | 0.00 | 0.00 | 0.00 | 70 | 1011.0 |
| 20260904004507 | 72 | 180 | 0.9 | 6.1 | 0.00 | 0.00 | 0.00 | 70 | 1011.0 |
| 20260904004409 | 72 | 276 | 0.9 | 6.1 | 0.00 | 0.00 | 0.00 | 70 | 1011.0 |
| 20260904004403 | 72 | 275 | 0.9 | 6.1 | 0.00 | 0.00 | 0.00 | 70 | 1011.0 |
| 20260904004301 | 72 | 277 | 0.9 | 5.2 | 0.00 | 0.00 | 0.00 | 70 | 1011.0 |
| 20260904004201 | 72 | 115 | 0.9 | 3.5 | 0.00 | 0.00 | 0.00 | 70 | 1011.0 |
| 20260904004132 | 72 | 310 | 0.9 | 3.5 | 0.00 | 0.00 | 0.00 | 70 | 1011.0 |
| 20260904004101 | 72 | 321 | 0.9 | 3.5 | 0.00 | 0.00 | 0.00 | 70 | 1011.0 |
| 20260904004020 | 72 | 177 | 0.9 | 3.5 | 0.00 | 0.00 | 0.00 | 70 | 1010.9 |
| 20260904003855 | 72 | 333 | 0.9 | 3.5 | 0.00 | 0.00 | 0.00 | 70 | 1011.0 |
| 20260904003758 | 72 | 233 | 0.9 | 3.5 | 0.00 | 0.00 | 0.00 | 70 | 1011.0 |
| 20260904003656 | 72 | 348 | 0.9 | 4.3 | 0.00 | 0.00 | 0.00 | 70 | 1011.0 |
| 20260904003555 | 72 | 260 | 0.9 | 4.3 | 0.00 | 0.00 | 0.00 | 70 | 1011.0 |
| 20260904003452 | 72 | 274 | 1.7 | 4.3 | 0.00 | 0.00 | 0.00 | 70 | 1011.0 |
| 20260904003412 | 72 | 273 | 1.7 | 5.2 | 0.00 | 0.00 | 0.00 | 70 | 1010.9 |
| 20260904003350 | 72 | 148 | 1.7 | 5.2 | 0.00 | 0.00 | 0.00 | 69 | 1010.9 |
| 20260904003247 | 72 | 328 | 1.7 | 5.2 | 0.00 | 0.00 | 0.00 | 69 | 1011.0 |
| 20260904003147 | 72 | 217 | 1.7 | 5.2 | 0.00 | 0.00 | 0.00 | 69 | 1010.9 |
| 20260904003047 | 72 | 150 | 1.7 | 5.2 | 0.00 | 0.00 | 0.00 | 69 | 1010.9 |
| 20260904002944 | 72 | 222 | 1.7 | 5.2 | 0.00 | 0.00 | 0.00 | 69 | 1011.0 |
| 20260904002909 | 72 | 207 | 1.7 | 5.2 | 0.00 | 0.00 | 0.00 | 69 | 1010.9 |
| 20260904002841 | 72 | 231 | 1.7 | 5.2 | 0.00 | 0.00 | 0.00 | 69 | 1010.9 |
| 20260904002740 | 72 | 253 | 0.9 | 5.2 | 0.00 | 0.00 | 0.00 | 69 | 1010.9 |
| 20260904002641 | 72 | 256 | 0.9 | 5.2 | 0.00 | 0.00 | 0.00 | 69 | 1010.8 |
| 20260904002624 | 73 | 274 | 0.9 | 5.2 | 0.00 | 0.00 | 0.00 | 68 | 1010.8 |
| 20260904002540 | 72 | 270 | 0.9 | 5.2 | 0.00 | 0.00 | 0.00 | 69 | 1010.8 |
| 20260904002520 | 72 | 224 | 0.9 | 5.2 | 0.00 | 0.00 | 0.00 | 68 | 1010.8 |
| 20260904002335 | 73 | 273 | 0.9 | 5.2 | 0.00 | 0.00 | 0.00 | 69 | 1010.8 |
| 20260904002236 | 73 | 136 | 0.9 | 5.2 | 0.00 | 0.00 | 0.00 | 69 | 1010.9 |
| 20260904002137 | 73 | 238 | 0.9 | 5.2 | 0.00 | 0.00 | 0.00 | 69 | 1010.9 |
| 20260904002035 | 73 | 305 | 0.9 | 5.2 | 0.00 | 0.00 | 0.00 | 69 | 1010.8 |
| 20260904001933 | 73 | 305 | 0.9 | 6.1 | 0.00 | 0.00 | 0.00 | 69 | 1010.8 |
| 20260904001909 | 73 | 304 | 0.9 | 6.1 | 0.00 | 0.00 | 0.00 | 69 | 1010.8 |
| 20260904001833 | 73 | 305 | 0.9 | 6.1 | 0.00 | 0.00 | 0.00 | 69 | 1010.8 |
| 20260904001733 | 73 | 280 | 0.9 | 6.1 | 0.00 | 0.00 | 0.00 | 68 | 1010.8 |
| 20260904001634 | 73 | 242 | 0.9 | 6.1 | 0.00 | 0.00 | 0.00 | 68 | 1010.8 |
| 20260904001531 | 73 | 288 | 0.9 | 6.1 | 0.00 | 0.00 | 0.00 | 68 | 1010.8 |
| 20260904001428 | 73 | 212 | 0.9 | 6.1 | 0.00 | 0.00 | 0.00 | 68 | 1010.8 |
| 20260904001407 | 73 | 290 | 0.9 | 6.1 | 0.00 | 0.00 | 0.00 | 68 | 1010.9 |
| 20260904001329 | 73 | 283 | 0.9 | 6.1 | 0.00 | 0.00 | 0.00 | 68 | 1010.9 |
| 20260904001228 | 73 | 283 | 0.9 | 6.1 | 0.00 | 0.00 | 0.00 | 68 | 1010.8 |
| 20260904001129 | 73 | 257 | 0.9 | 6.1 | 0.00 | 0.00 | 0.00 | 68 | 1010.9 |
| 20260904001028 | 73 | 300 | 0.9 | 7.0 | 0.00 | 0.00 | 0.00 | 68 | 1010.9 |
| 20260904000930 | 73 | 236 | 0.9 | 7.0 | 0.00 | 0.00 | 0.00 | 68 | 1010.9 |
| 20260904000919 | 73 | 197 | 1.7 | 7.8 | 0.00 | 0.00 | 0.00 | 68 | 1010.9 |
| 20260904000829 | 73 | 250 | 1.7 | 7.8 | 0.00 | 0.00 | 0.00 | 68 | 1010.9 |
| 20260904000727 | 73 | 250 | 1.7 | 7.8 | 0.00 | 0.00 | 0.00 | 67 | 1010.9 |
| 20260904000627 | 73 | 250 | 1.7 | 7.8 | 0.00 | 0.00 | 0.00 | 67 | 1010.9 |
| 20260904000526 | 73 | 250 | 1.7 | 7.8 | 0.00 | 0.00 | 0.00 | 67 | 1010.9 |
| 20260904000426 | 73 | 250 | 1.7 | 7.8 | 0.00 | 0.00 | 0.00 | 67 | 1010.9 |
| 20260904000410 | 73 | 233 | 1.7 | 7.8 | 0.00 | 0.00 | 0.00 | 67 | 1011.0 |
| 20260904000327 | 73 | 238 | 1.7 | 7.8 | 0.00 | 0.00 | 0.00 | 66 | 1011.0 |
| 20260904000226 | 73 | 283 | 1.7 | 8.7 | 0.00 | 0.00 | 0.00 | 66 | 1011.0 |
| 20260904000126 | 74 | 297 | 1.7 | 8.7 | 0.00 | 0.00 | 0.00 | 66 | 1011.0 |
| 20260904000021 | 74 | 238 | 1.7 | 8.7 | 0.00 | 0.00 | 0.00 | 66 | 1010.9 |
| 20260903235920 | 74 | 274 | 1.7 | 8.7 | 0.00 | 0.00 | 0.00 | 66 | 1010.9 |
| 20260903235902 | 74 | 26 | 1.7 | 8.7 | 0.00 | 0.00 | 0.00 | 66 | 1010.9 |
| 20260903235821 | 74 | 325 | 1.7 | 8.7 | 0.00 | 0.00 | 0.00 | 67 | 1010.9 |
| 20260903235720 | 74 | 288 | 1.7 | 8.7 | 0.00 | 0.00 | 0.00 | 66 | 1010.9 |
| 20260903235617 | 74 | 325 | 1.7 | 8.7 | 0.00 | 0.00 | 0.00 | 67 | 1010.9 |
| 20260903235515 | 74 | 201 | 1.7 | 8.7 | 0.00 | 0.00 | 0.00 | 66 | 1010.9 |
| 20260903235415 | 74 | 239 | 1.7 | 8.7 | 0.00 | 0.00 | 0.00 | 66 | 1010.9 |
| 20260903235356 | 74 | 222 | 1.7 | 8.7 | 0.00 | 0.00 | 0.00 | 66 | 1010.9 |
| 20260903235315 | 74 | 326 | 1.7 | 8.7 | 0.00 | 0.00 | 0.00 | 66 | 1010.9 |
| 20260903235214 | 74 | 219 | 1.7 | 8.7 | 0.00 | 0.00 | 0.00 | 66 | 1011.0 |
| 20260903235110 | 74 | 252 | 1.7 | 8.7 | 0.00 | 0.00 | 0.00 | 66 | 1011.0 |
| 20260903235008 | 74 | 273 | 1.7 | 10.4 | 0.00 | 0.00 | 0.00 | 66 | 1010.9 |
| 20260903234909 | 74 | 232 | 1.7 | 10.4 | 0.00 | 0.00 | 0.00 | 66 | 1010.9 |
| 20260903234850 | 74 | 281 | 1.7 | 10.4 | 0.00 | 0.00 | 0.00 | 66 | 1010.9 |
| 20260903234809 | 74 | 136 | 1.7 | 10.4 | 0.00 | 0.00 | 0.00 | 66 | 1010.9 |
| 20260903234709 | 74 | 161 | 1.7 | 10.4 | 0.00 | 0.00 | 0.00 | 66 | 1011.0 |
| 20260903234602 | 74 | 317 | 1.7 | 10.4 | 0.00 | 0.00 | 0.00 | 66 | 1010.9 |
| 20260903234504 | 74 | 6 | 1.7 | 10.4 | 0.00 | 0.00 | 0.00 | 66 | 1010.9 |
| 20260903234403 | 74 | 293 | 1.7 | 10.4 | 0.00 | 0.00 | 0.00 | 66 | 1010.9 |
| 20260903234344 | 74 | 327 | 1.7 | 10.4 | 0.00 | 0.00 | 0.00 | 66 | 1010.9 |
| 20260903234302 | 74 | 218 | 1.7 | 10.4 | 0.00 | 0.00 | 0.00 | 66 | 1011.0 |
| 20260903234201 | 74 | 148 | 1.7 | 10.4 | 0.00 | 0.00 | 0.00 | 66 | 1011.0 |
| 20260903234059 | 74 | 214 | 1.7 | 10.4 | 0.00 | 0.00 | 0.00 | 66 | 1011.0 |
| 20260903233958 | 74 | 314 | 1.7 | 7.0 | 0.00 | 0.00 | 0.00 | 66 | 1011.0 |
| 20260903233858 | 74 | 8 | 1.7 | 5.2 | 0.00 | 0.00 | 0.00 | 66 | 1011.0 |
| 20260903233838 | 74 | 250 | 1.7 | 5.2 | 0.00 | 0.00 | 0.00 | 66 | 1011.0 |
| 20260903233759 | 74 | 266 | 1.7 | 6.1 | 0.00 | 0.00 | 0.00 | 66 | 1011.0 |
| 20260903233655 | 74 | 291 | 1.7 | 7.8 | 0.00 | 0.00 | 0.00 | 66 | 1011.0 |
| 20260903233602 | 74 | 259 | 2.6 | 8.7 | 0.00 | 0.00 | 0.00 | 65 | 1011.0 |
| 20260903233551 | 74 | 297 | 1.7 | 7.8 | 0.00 | 0.00 | 0.00 | 66 | 1011.0 |
| 20260903233451 | 74 | 248 | 2.6 | 7.8 | 0.00 | 0.00 | 0.00 | 66 | 1011.0 |
| 20260903233441 | 74 | 318 | 2.6 | 8.7 | 0.00 | 0.00 | 0.00 | 65 | 1011.0 |
| 20260903233251 | 74 | 233 | 2.6 | 8.7 | 0.00 | 0.00 | 0.00 | 65 | 1011.0 |
| 20260903233150 | 74 | 256 | 2.6 | 8.7 | 0.00 | 0.00 | 0.00 | 66 | 1011.0 |
| 20260903233053 | 74 | 200 | 2.6 | 8.7 | 0.00 | 0.00 | 0.00 | 65 | 1011.0 |
| 20260903233047 | 74 | 253 | 2.6 | 8.7 | 0.00 | 0.00 | 0.00 | 66 | 1011.0 |
| 20260903232946 | 74 | 273 | 2.6 | 8.7 | 0.00 | 0.00 | 0.00 | 65 | 1011.0 |
| 20260903232935 | 74 | 256 | 2.6 | 8.7 | 0.00 | 0.00 | 0.00 | 65 | 1011.0 |
| 20260903232745 | 74 | 288 | 2.6 | 8.7 | 0.00 | 0.00 | 0.00 | 65 | 1011.0 |
| 20260903232645 | 74 | 280 | 2.6 | 8.7 | 0.00 | 0.00 | 0.00 | 65 | 1011.0 |
| 20260903232544 | 75 | 277 | 1.7 | 9.6 | 0.00 | 0.00 | 0.00 | 65 | 1011.0 |
| 20260903232540 | 74 | 274 | 2.6 | 8.7 | 0.00 | 0.00 | 0.00 | 65 | 1011.0 |
| 20260903232438 | 75 | 281 | 1.7 | 9.6 | 0.00 | 0.00 | 0.00 | 65 | 1011.0 |
| 20260903232429 | 75 | 277 | 1.7 | 9.6 | 0.00 | 0.00 | 0.00 | 65 | 1011.0 |
| 20260903232239 | 75 | 231 | 2.6 | 9.6 | 0.00 | 0.00 | 0.00 | 65 | 1011.0 |
| 20260903232138 | 75 | 305 | 2.6 | 9.6 | 0.00 | 0.00 | 0.00 | 65 | 1011.1 |
| 20260903232035 | 75 | 287 | 2.6 | 9.6 | 0.00 | 0.00 | 0.00 | 65 | 1011.0 |
| 20260903231933 | 75 | 310 | 2.6 | 9.6 | 0.00 | 0.00 | 0.00 | 65 | 1011.0 |
| 20260903231832 | 75 | 321 | 2.6 | 9.6 | 0.00 | 0.00 | 0.00 | 64 | 1011.0 |
| 20260903231817 | 75 | 267 | 2.6 | 9.6 | 0.00 | 0.00 | 0.00 | 64 | 1011.0 |
| 20260903231733 | 75 | 308 | 2.6 | 9.6 | 0.00 | 0.00 | 0.00 | 64 | 1011.0 |
| 20260903231632 | 75 | 253 | 2.6 | 9.6 | 0.00 | 0.00 | 0.00 | 64 | 1011.1 |
| 20260903231530 | 75 | 236 | 2.6 | 9.6 | 0.00 | 0.00 | 0.00 | 64 | 1011.0 |
| 20260903231430 | 75 | 266 | 2.6 | 9.6 | 0.00 | 0.00 | 0.00 | 63 | 1011.0 |
| 20260903231331 | 75 | 291 | 2.6 | 9.6 | 0.00 | 0.00 | 0.00 | 63 | 1011.0 |
| 20260903231308 | 75 | 226 | 2.6 | 9.6 | 0.00 | 0.00 | 0.00 | 63 | 1011.1 |
| 20260903231229 | 76 | 248 | 2.6 | 9.6 | 0.00 | 0.00 | 0.00 | 63 | 1011.1 |
| 20260903231126 | 76 | 303 | 2.6 | 8.7 | 0.00 | 0.00 | 0.00 | 63 | 1011.1 |
| 20260903231022 | 76 | 290 | 2.6 | 8.7 | 0.00 | 0.00 | 0.00 | 63 | 1011.1 |
| 20260903230920 | 76 | 232 | 1.7 | 7.8 | 0.00 | 0.00 | 0.00 | 62 | 1011.1 |
| 20260903230821 | 76 | 277 | 2.6 | 7.8 | 0.00 | 0.00 | 0.00 | 62 | 1011.1 |
| 20260903230802 | 76 | 263 | 2.6 | 7.8 | 0.00 | 0.00 | 0.00 | 62 | 1011.1 |
| 20260903230721 | 76 | 256 | 2.6 | 7.8 | 0.00 | 0.00 | 0.00 | 63 | 1011.1 |
| 20260903230625 | 76 | 278 | 2.6 | 7.8 | 0.00 | 0.00 | 0.00 | 62 | 1011.1 |
| 20260903230516 | 76 | 253 | 1.7 | 7.8 | 0.00 | 0.00 | 0.00 | 62 | 1011.1 |
| 20260903230414 | 76 | 250 | 1.7 | 7.8 | 0.00 | 0.00 | 0.00 | 62 | 1011.1 |
| 20260903230315 | 76 | 278 | 2.6 | 7.8 | 0.00 | 0.00 | 0.00 | 61 | 1011.2 |
| 20260903230256 | 76 | 236 | 2.6 | 7.8 | 0.00 | 0.00 | 0.00 | 61 | 1011.2 |
| 20260903230215 | 76 | 283 | 2.6 | 7.8 | 0.00 | 0.00 | 0.00 | 61 | 1011.2 |
| 20260903230114 | 76 | 311 | 2.6 | 7.8 | 0.00 | 0.00 | 0.00 | 61 | 1011.2 |
| 20260903230011 | 77 | 269 | 1.7 | 7.8 | 0.00 | 0.00 | 0.00 | 62 | 1011.2 |
| 20260903225909 | 76 | 248 | 1.7 | 7.8 | 0.00 | 0.00 | 0.00 | 61 | 1011.2 |
| 20260903225809 | 76 | 250 | 2.6 | 7.8 | 0.00 | 0.00 | 0.00 | 61 | 1011.2 |
| 20260903225752 | 76 | 232 | 2.6 | 7.8 | 0.00 | 0.00 | 0.00 | 61 | 1011.2 |
| 20260903225708 | 76 | 208 | 2.6 | 10.4 | 0.00 | 0.00 | 0.00 | 62 | 1011.2 |
| 20260903225609 | 76 | 269 | 2.6 | 13.9 | 0.00 | 0.00 | 0.00 | 62 | 1011.2 |
| 20260903225508 | 76 | 243 | 2.6 | 13.9 | 0.00 | 0.00 | 0.00 | 62 | 1011.2 |
| 20260903225408 | 76 | 291 | 2.6 | 13.9 | 0.00 | 0.00 | 0.00 | 62 | 1011.2 |
| 20260903225306 | 76 | 271 | 2.6 | 13.9 | 0.00 | 0.00 | 0.00 | 62 | 1011.2 |
| 20260903225255 | 76 | 280 | 2.6 | 13.9 | 0.00 | 0.00 | 0.00 | 62 | 1011.2 |
| 20260903225203 | 76 | 255 | 2.6 | 13.9 | 0.00 | 0.00 | 0.00 | 62 | 1011.2 |
| 20260903225103 | 76 | 281 | 2.6 | 13.9 | 0.00 | 0.00 | 0.00 | 62 | 1011.2 |
| 20260903225002 | 76 | 266 | 2.6 | 13.9 | 0.00 | 0.00 | 0.00 | 62 | 1011.2 |
| 20260903224902 | 76 | 248 | 3.5 | 13.9 | 0.00 | 0.00 | 0.00 | 61 | 1011.2 |
| 20260903224806 | 76 | 235 | 3.5 | 13.9 | 0.00 | 0.00 | 0.00 | 60 | 1011.3 |
| 20260903224757 | 76 | 232 | 3.5 | 13.9 | 0.00 | 0.00 | 0.00 | 60 | 1011.3 |
| 20260903224702 | 76 | 229 | 2.6 | 13.9 | 0.00 | 0.00 | 0.00 | 61 | 1011.2 |
| 20260903224603 | 76 | 260 | 2.6 | 10.4 | 0.00 | 0.00 | 0.00 | 61 | 1011.3 |
| 20260903224503 | 76 | 250 | 2.6 | 10.4 | 0.00 | 0.00 | 0.00 | 61 | 1011.3 |
| 20260903224401 | 76 | 243 | 2.6 | 10.4 | 0.00 | 0.00 | 0.00 | 62 | 1011.3 |
| 20260903224301 | 76 | 240 | 3.5 | 10.4 | 0.00 | 0.00 | 0.00 | 62 | 1011.2 |
| 20260903224239 | 76 | 255 | 3.5 | 10.4 | 0.00 | 0.00 | 0.00 | 62 | 1011.2 |
| 20260903224201 | 76 | 276 | 3.5 | 10.4 | 0.00 | 0.00 | 0.00 | 62 | 1011.3 |
| 20260903224058 | 76 | 235 | 2.6 | 10.4 | 0.00 | 0.00 | 0.00 | 62 | 1011.3 |
| 20260903223959 | 76 | 256 | 2.6 | 10.4 | 0.00 | 0.00 | 0.00 | 62 | 1011.3 |
| 20260903223857 | 76 | 252 | 2.6 | 10.4 | 0.00 | 0.00 | 0.00 | 62 | 1011.2 |
| 20260903223756 | 76 | 266 | 2.6 | 9.6 | 0.00 | 0.00 | 0.00 | 63 | 1011.3 |
| 20260903223743 | 76 | 267 | 2.6 | 9.6 | 0.00 | 0.00 | 0.00 | 63 | 1011.3 |
| 20260903223657 | 76 | 207 | 2.6 | 9.6 | 0.00 | 0.00 | 0.00 | 63 | 1011.3 |
| 20260903223556 | 75 | 242 | 2.6 | 9.6 | 0.00 | 0.00 | 0.00 | 63 | 1011.4 |
| 20260903223456 | 75 | 211 | 2.6 | 9.6 | 0.00 | 0.00 | 0.00 | 63 | 1011.4 |
| 20260903223356 | 75 | 284 | 2.6 | 9.6 | 0.00 | 0.00 | 0.00 | 63 | 1011.4 |
| 20260903223252 | 75 | 281 | 3.5 | 9.6 | 0.00 | 0.00 | 0.00 | 63 | 1011.4 |
| 20260903223151 | 75 | 235 | 3.5 | 9.6 | 0.00 | 0.00 | 0.00 | 63 | 1011.5 |
| 20260903223050 | 75 | 273 | 3.5 | 9.6 | 0.00 | 0.00 | 0.00 | 64 | 1011.4 |
| 20260903223000 | 75 | 236 | 4.3 | 12.2 | 0.00 | 0.00 | 0.00 | 63 | 1011.5 |
| 20260903222951 | 75 | 255 | 4.3 | 9.6 | 0.00 | 0.00 | 0.00 | 63 | 1011.5 |
| 20260903222858 | 75 | 267 | 4.3 | 12.2 | 0.00 | 0.00 | 0.00 | 63 | 1011.5 |
| 20260903222849 | 75 | 266 | 4.3 | 12.2 | 0.00 | 0.00 | 0.00 | 63 | 1011.5 |
| 20260903222643 | 75 | 229 | 4.3 | 12.2 | 0.00 | 0.00 | 0.00 | 63 | 1011.5 |
| 20260903222542 | 75 | 223 | 4.3 | 12.2 | 0.00 | 0.00 | 0.00 | 63 | 1011.6 |
| 20260903222443 | 75 | 280 | 4.3 | 12.2 | 0.00 | 0.00 | 0.00 | 63 | 1011.5 |
| 20260903222342 | 75 | 243 | 4.3 | 12.2 | 0.00 | 0.00 | 0.00 | 63 | 1011.6 |
| 20260903222242 | 74 | 217 | 4.3 | 12.2 | 0.00 | 0.00 | 0.00 | 63 | 1011.6 |
| 20260903222138 | 74 | 249 | 3.5 | 12.2 | 0.00 | 0.00 | 0.00 | 63 | 1011.6 |
| 20260903222036 | 75 | 256 | 3.5 | 12.2 | 0.00 | 0.00 | 0.00 | 62 | 1011.5 |
| 20260903221937 | 75 | 243 | 3.5 | 12.2 | 0.00 | 0.00 | 0.00 | 62 | 1011.6 |
| 20260903221834 | 75 | 259 | 3.5 | 11.3 | 0.00 | 0.00 | 0.00 | 63 | 1011.6 |
| 20260903221738 | 75 | 274 | 3.5 | 11.3 | 0.00 | 0.00 | 0.00 | 63 | 1011.6 |
| 20260903221729 | 75 | 214 | 3.5 | 11.3 | 0.00 | 0.00 | 0.00 | 63 | 1011.6 |
| 20260903221629 | 75 | 240 | 3.5 | 11.3 | 0.00 | 0.00 | 0.00 | 63 | 1011.5 |
| 20260903221529 | 75 | 239 | 3.5 | 11.3 | 0.00 | 0.00 | 0.00 | 63 | 1011.5 |
| 20260903221429 | 75 | 274 | 3.5 | 11.3 | 0.00 | 0.00 | 0.00 | 63 | 1011.5 |
| 20260903221326 | 75 | 245 | 3.5 | 11.3 | 0.00 | 0.00 | 0.00 | 63 | 1011.6 |
| 20260903221237 | 75 | 243 | 3.5 | 11.3 | 0.00 | 0.00 | 0.00 | 63 | 1011.6 |
| 20260903221220 | 75 | 229 | 3.5 | 11.3 | 0.00 | 0.00 | 0.00 | 63 | 1011.6 |
| 20260903221124 | 75 | 296 | 3.5 | 11.3 | 0.00 | 0.00 | 0.00 | 63 | 1011.6 |
| 20260903221021 | 75 | 256 | 2.6 | 11.3 | 0.00 | 0.00 | 0.00 | 63 | 1011.7 |
| 20260903220920 | 75 | 231 | 3.5 | 11.3 | 0.00 | 0.00 | 0.00 | 62 | 1011.7 |
| 20260903220818 | 75 | 256 | 3.5 | 11.3 | 0.00 | 0.00 | 0.00 | 62 | 1011.7 |
| 20260903220739 | 75 | 235 | 2.6 | 11.3 | 0.00 | 0.00 | 0.00 | 62 | 1011.7 |
| 20260903220712 | 75 | 246 | 2.6 | 11.3 | 0.00 | 0.00 | 0.00 | 62 | 1011.7 |
| 20260903220613 | 76 | 262 | 2.6 | 7.8 | 0.00 | 0.00 | 0.00 | 62 | 1011.8 |
| 20260903220512 | 76 | 243 | 2.6 | 7.8 | 0.00 | 0.00 | 0.00 | 62 | 1011.8 |
| 20260903220412 | 76 | 238 | 2.6 | 7.8 | 0.00 | 0.00 | 0.00 | 61 | 1011.8 |
| 20260903220312 | 76 | 203 | 1.7 | 7.8 | 0.00 | 0.00 | 0.00 | 62 | 1011.8 |
| 20260903220235 | 76 | 253 | 1.7 | 7.8 | 0.00 | 0.00 | 0.00 | 62 | 1011.8 |
| 20260903220208 | 76 | 193 | 1.7 | 7.8 | 0.00 | 0.00 | 0.00 | 62 | 1011.8 |
| 20260903220107 | 76 | 253 | 2.6 | 7.8 | 0.00 | 0.00 | 0.00 | 62 | 1011.8 |
| 20260903220007 | 76 | 218 | 2.6 | 7.8 | 0.00 | 0.00 | 0.00 | 61 | 1011.9 |
| 20260903220000 | 76 | 271 | 3.5 | 11.3 | 0.00 | 0.00 | 0.00 | 62 | 1011.9 |
| 20260903215907 | 76 | 245 | 2.6 | 9.6 | 0.00 | 0.00 | 0.00 | 61 | 1011.9 |
| 20260903215848 | 76 | 321 | 3.5 | 11.3 | 0.00 | 0.00 | 0.00 | 61 | 1011.9 |
| 20260903215657 | 76 | 205 | 3.5 | 11.3 | 0.00 | 0.00 | 0.00 | 62 | 1011.8 |
| 20260903215558 | 76 | 240 | 3.5 | 11.3 | 0.00 | 0.00 | 0.00 | 62 | 1011.9 |
| 20260903215458 | 76 | 232 | 3.5 | 11.3 | 0.00 | 0.00 | 0.00 | 62 | 1011.9 |
| 20260903215357 | 76 | 257 | 3.5 | 11.3 | 0.00 | 0.00 | 0.00 | 62 | 1011.9 |
| 20260903215257 | 76 | 226 | 3.5 | 11.3 | 0.00 | 0.00 | 0.00 | 62 | 1011.9 |
| 20260903215232 | 76 | 200 | 3.5 | 11.3 | 0.00 | 0.00 | 0.00 | 62 | 1011.9 |
| 20260903215152 | 76 | 248 | 3.5 | 11.3 | 0.00 | 0.00 | 0.00 | 62 | 1012.0 |
| 20260903215052 | 76 | 242 | 3.5 | 11.3 | 0.00 | 0.00 | 0.00 | 61 | 1011.9 |
| 20260903214954 | 76 | 222 | 2.6 | 11.3 | 0.00 | 0.00 | 0.00 | 60 | 1012.0 |
| 20260903214852 | 76 | 239 | 1.7 | 9.6 | 0.00 | 0.00 | 0.00 | 60 | 1011.9 |
| 20260903214750 | 76 | 230 | 1.7 | 7.8 | 0.00 | 0.00 | 0.00 | 60 | 1011.9 |
| 20260903214737 | 76 | 238 | 1.7 | 7.0 | 0.00 | 0.00 | 0.00 | 60 | 1011.9 |
| 20260903214644 | 76 | 287 | 1.7 | 7.0 | 0.00 | 0.00 | 0.00 | 60 | 1011.9 |
| 20260903214544 | 76 | 207 | 1.7 | 7.8 | 0.00 | 0.00 | 0.00 | 60 | 1011.9 |
| 20260903214455 | 76 | 232 | 1.7 | 9.6 | 0.00 | 0.00 | 0.00 | 61 | 1012.0 |
| 20260903214444 | 76 | 148 | 1.7 | 9.6 | 0.00 | 0.00 | 0.00 | 60 | 1011.9 |
| 20260903214352 | 76 | 214 | 1.7 | 9.6 | 0.00 | 0.00 | 0.00 | 61 | 1011.9 |
| 20260903214343 | 76 | 243 | 1.7 | 9.6 | 0.00 | 0.00 | 0.00 | 61 | 1012.0 |
| 20260903214140 | 76 | 281 | 1.7 | 9.6 | 0.00 | 0.00 | 0.00 | 61 | 1012.0 |
| 20260903214040 | 76 | 231 | 1.7 | 9.6 | 0.00 | 0.00 | 0.00 | 61 | 1012.0 |
| 20260903213940 | 76 | 243 | 2.6 | 9.6 | 0.00 | 0.00 | 0.00 | 61 | 1012.0 |
| 20260903213838 | 76 | 234 | 2.6 | 9.6 | 0.00 | 0.00 | 0.00 | 61 | 1012.0 |
| 20260903213740 | 76 | 253 | 3.5 | 11.3 | 0.00 | 0.00 | 0.00 | 61 | 1012.1 |
| 20260903213632 | 76 | 263 | 3.5 | 11.3 | 0.00 | 0.00 | 0.00 | 61 | 1012.1 |
| 20260903213532 | 76 | 208 | 3.5 | 11.3 | 0.00 | 0.00 | 0.00 | 62 | 1012.0 |
| 20260903213432 | 76 | 307 | 3.5 | 11.3 | 0.00 | 0.00 | 0.00 | 61 | 1012.1 |
| 20260903213332 | 76 | 240 | 3.5 | 11.3 | 0.00 | 0.00 | 0.00 | 61 | 1012.0 |
| 20260903213230 | 75 | 228 | 4.3 | 11.3 | 0.00 | 0.00 | 0.00 | 61 | 1012.0 |
| 20260903213125 | 75 | 223 | 4.3 | 11.3 | 0.00 | 0.00 | 0.00 | 61 | 1012.1 |
| 20260903213024 | 75 | 243 | 5.2 | 11.3 | 0.00 | 0.00 | 0.00 | 60 | 1012.1 |
| 20260903212924 | 75 | 214 | 5.2 | 11.3 | 0.00 | 0.00 | 0.00 | 60 | 1012.1 |
| 20260903212824 | 76 | 219 | 5.2 | 11.3 | 0.00 | 0.00 | 0.00 | 60 | 1012.1 |
| 20260903212724 | 76 | 238 | 5.2 | 11.3 | 0.00 | 0.00 | 0.00 | 60 | 1012.1 |
| 20260903212618 | 76 | 218 | 4.3 | 11.3 | 0.00 | 0.00 | 0.00 | 61 | 1012.2 |
| 20260903212518 | 75 | 219 | 5.2 | 11.3 | 0.00 | 0.00 | 0.00 | 61 | 1012.2 |
| 20260903212417 | 75 | 233 | 5.2 | 11.3 | 0.00 | 0.00 | 0.00 | 61 | 1012.2 |
| 20260903212318 | 75 | 221 | 4.3 | 11.3 | 0.00 | 0.00 | 0.00 | 60 | 1012.2 |
| 20260903212220 | 75 | 222 | 4.3 | 11.3 | 0.00 | 0.00 | 0.00 | 60 | 1012.2 |
| 20260903212112 | 76 | 216 | 4.3 | 11.3 | 0.00 | 0.00 | 0.00 | 60 | 1012.2 |
| 20260903212012 | 76 | 222 | 3.5 | 11.3 | 0.00 | 0.00 | 0.00 | 60 | 1012.2 |
| 20260903211912 | 76 | 198 | 3.5 | 11.3 | 0.00 | 0.00 | 0.00 | 60 | 1012.2 |
| 20260903211812 | 76 | 250 | 3.5 | 8.7 | 0.00 | 0.00 | 0.00 | 60 | 1012.2 |
| 20260903211713 | 76 | 225 | 3.5 | 8.7 | 0.00 | 0.00 | 0.00 | 60 | 1012.2 |
| 20260903211608 | 76 | 236 | 3.5 | 10.4 | 0.00 | 0.00 | 0.00 | 59 | 1012.2 |
| 20260903211510 | 76 | 198 | 3.5 | 10.4 | 0.00 | 0.00 | 0.00 | 60 | 1012.3 |
| 20260903211408 | 76 | 239 | 3.5 | 10.4 | 0.00 | 0.00 | 0.00 | 60 | 1012.3 |
| 20260903211308 | 76 | 262 | 3.5 | 10.4 | 0.00 | 0.00 | 0.00 | 60 | 1012.3 |
| 20260903211206 | 76 | 252 | 3.5 | 10.4 | 0.00 | 0.00 | 0.00 | 60 | 1012.2 |